     2.10           OBSERVATION DATA    G (GPS)             RINEX VERSION / TYPE
teqc 2003Nov3 GPS Data Processor 20031211 22:32:03UTC       PGM / RUN BY / DATE
Solaris 2.7|Ultra 2|cc SC5.0|=+-|*Sparc                     COMMENT
2 OBSERVATION DATA                                          COMMENT
ASHTORIN USGS 15 - SEP - 92 11:31                           COMMENT
                                                            COMMENT
faro Fair_1989_Oregon_Trans/NGS                             MARKER NAME
                                                            MARKER NUMBER
JLS USGS                                                    OBSERVER / AGENCY
763 ASHTECH L-XII 7A24                                      REC # / TYPE / VERS
0718 ASH700228A NONE                                        ANT # / TYPE
 -2591639.0000 -3939567.0000  4280623.0000                  APPROX POSITION XYZ
        1.1778        0.0000        0.0000                  ANTENNA: DELTA H/E/N
HI is vertical height to base of antenna                    COMMENT
     1     1                                                WAVELENGTH FACT L1/2
     3    L1    L2    C1                                    # / TYPES OF OBSERV
    30.0000                                                 INTERVAL
                                                            COMMENT
Receiver type modified to reflect codeless receiver         COMMENT
Original receiver designation: ASHTECH LM-XII3              COMMENT
                                                            COMMENT
                                                            COMMENT
  1992     8    26    19    34   30.0000000     GPS         TIME OF FIRST OBS
                                                            END OF HEADER
 92  8 26 19 34 30.0000000  0  2G 3G16
  -1247202.64016   -131339.60831  23185068.631
  -6137041.01417    -96744.84131  22193417.986
 92  8 26 19 35  0.0000000  0  2G 3G16
  -1305693.338 6   -176916.59621  23173938.566
  -6179156.999 7   -129564.05325  22185405.553
 92  8 26 19 35 30.0000000  0  3G 3G24G16
  -1364077.620 6   -222408.64023  23162827.748
   7420460.99917    209962.46131  22274264.757
  -6220790.950 7   -162006.05725  22177483.628
 92  8 26 19 36  0.0000000  0  5G20G 3G24G25G16
   -207367.31318     -2932.90335  20676732.596
  -1422327.244 6   -267797.92325  23151743.881
   7507725.880 7    277972.34221  22290870.262
    696312.27916      5210.78831  24021209.822
  -6261909.582 7   -194046.51625  22169657.216
 92  8 26 19 36 30.0000000  0  5G20G 3G24G25G16
   -208019.262 8     -3440.91227  20676609.831
  -1480437.464 6   -313078.56425  23140681.749
   7595221.763 7    346150.73825  22307514.409
    699831.239 5      7947.95421  24021880.188
  -6302513.031 7   -225685.51126  22161926.138
 92  8 26 19 37  0.0000000  0  5G20G 3G24G25G16
   -208095.722 8     -3500.47929  20676591.574
  -1538426.499 6   -358264.77925  23129647.079
   7682924.035 7    414490.16225  22324202.926
    703924.734 5     11137.46324  24022650.985
  -6342623.296 7   -256940.20726  22154297.259
 92  8 26 19 37 30.0000000  0  5G20G 3G24G25G16
   -207609.827 8     -3121.85429  20676683.670
  -1596308.454 6   -403367.56425  23118637.680
   7770825.545 7    482984.84826  22340927.208
    708561.435 5     14750.50625  24023541.578
    249728.13417    -13838.89731  22146752.952
 92  8 26 19 38  0.0010000  0  5G20G 3G24G25G16
   -206548.578 8     -2294.90729  20676886.060
  -1654073.275 6   -448379.04425  23107632.299
   7858945.157 7    551649.44526  22357701.555
    713753.809 5     18796.49125  24024533.562
    210599.688 7    -44315.47421  22139311.234
 92  8 26 19 38 30.0010000  0  5G20G 3G24G25G16
   -204862.769 8      -981.29329  20677208.426
  -1711668.316 6   -493258.27125  23096686.067
   7947330.516 7    620521.09726  22374521.831
    719560.475 5     23321.17425  24025636.018
    172029.171 7    -74374.89621  22131970.306
 92  8 26 19 39  0.0010000  0  5G20G 3G24G25G16
   -202542.356 8       826.83529  20677649.961
  -1769086.473 6   -537999.60225  23085755.694
   8035992.026 7    689607.99426  22391390.073
    725984.044 5     28326.51625  24026850.897
    134032.949 7   -103982.12825  22124739.162
 92  8 26 19 39 30.0010000  0  4G 3G24G25G16
  -1826343.641 6   -582615.55225  23074858.628
   8124908.584 7    758893.59626  22408306.402
    733007.260 5     33799.15325  24028194.327
     96598.561 7   -133151.73825  22117616.543
 92  8 26 19 40  0.0010000  0  5G20G 3G24G25G16
      1660.85018      2092.66134  20678887.954
  -1883435.688 6   -627102.82625  23063995.768
   8214081.291 7    828378.79226  22425285.088
    740646.059 5     39751.40125  24029636.149
     59733.223 7   -161877.93526  22110603.438
 92  8 26 19 40 30.0010000  0  5G20G 3G24G25G16
      5858.511 8      5362.78524  20679686.691
  -1940353.721 6   -671454.47325  23053163.397
   8303511.475 7    898064.61926  22442302.537
    748894.299 5     46178.63225  24031221.691
     23432.191 7   -190164.43026  22103698.528
 92  8 26 19 41  0.0010000  0  5G20G 3G24G25G16
     10684.689 8      9123.60827  20680606.694
  -1997103.444 6   -715674.99925  23042369.609
   8393187.010 7    967941.63126  22459365.285
    757740.434 5     53071.76025  24032902.538
    -12313.130 7   -218017.89826  22096896.117
 92  8 26 19 41 30.0010000  0  5G20G 3G24G25G16
     16145.951 8     13379.15328  20681644.575
  -2053678.952 6   -759759.75625  23031596.208
   8483115.317 7   1038015.62726  22476479.207
    767198.213 5     60441.36725  24034692.688
    -47494.217 7   -245431.70026  22090198.004
 92  8 26 19 42  0.0010000  0  5G20G 3G24G25G16
     22262.177 8     18145.04329  20682808.160
  -2110061.056 6   -803693.79025  23020873.741
   8573317.508 7   1108303.01826  22493641.126
    777284.279 5     68300.65425  24036619.185
    -82091.558 7   -272390.62526  22083611.504
 92  8 26 19 42 30.0010000  0  5G20G 3G24G25G16
     29016.889 8     23408.44229  20684092.381
  -2166266.620 6   -847490.30925  23010176.576
   8663776.682 7   1178790.64627  22510854.819
    787985.684 5     76639.40125  24038645.842
   -116135.023 7   -298917.99527  22077133.828
 92  8 26 19 43  0.0010000  0  5G20G 3G24G25G16
     36383.897 8     29148.98129  20685497.478
  -2222322.703 6   -891170.30225  22999506.603
   8754469.314 7   1249460.21627  22528115.550
    799281.390 5     85441.23225  24040794.454
   -149640.666 7   -325026.24227  22070761.080
 92  8 26 19 43 30.0010000  0  5G20G 3G24G25G16
     44385.927 8     35384.32629  20687015.507
  -2278206.320 6   -934715.94325  22988869.877
   8845411.757 7   1320324.43426  22545424.817
    811194.657 5     94724.28725  24043068.410
   -182587.177 7   -350698.81927  22064493.589
 92  8 26 19 44  0.0010000  0  5G20G 3G24G25G16
     52961.199 8     42066.35229  20688651.145
  -2333980.065 6   -978175.97825  22978262.500
   8936542.877 7   1391335.65327  22562761.695
    823666.883 5    104442.92025  24045444.835
   -215050.177 7   -375994.64527  22058309.830
 92  8 26 19 44 30.0010000  0  5G20G 3G24G25G16
     61905.317 8     49035.80129  20690352.227
  -2389849.030 6  -1021710.17825  22967624.814
   9027645.115 7   1462324.37927  22580101.121
    836492.900 5    114437.14125  24047881.008
   -247223.885 7   -401065.05327  22052186.389
 92  8 26 19 45  0.0010000  0  5G20G 3G24G25G16
     71465.890 8     56485.59729  20692171.728
  -2445565.587 6  -1065125.63425  22957020.795
   9118947.991 7   1533469.43227  22597473.045
    849918.416 5    124898.58725  24050437.668
   -278840.505 7   -425701.35227  22046175.041
 92  8 26 19 45 30.0010000  0  5G20G 3G24G25G16
     81666.295 8     64433.95829  20694115.552
  -2501107.156 6  -1108404.74725  22946462.345
   9210476.322 7   1604790.19726  22614893.415
    863972.596 6    135849.88025  24053118.143
   -309873.617 7   -449882.96527  22040266.281
 92  8 26 19 46  0.0010000  0  4G20G 3G24G25
     92472.136 8     72854.09829  20696172.668
  -2556508.141 6  -1151574.30925  22935920.473
   9302204.689 7   1676266.80926  22632344.004
    878619.935 5    147263.39225  24055898.628
 92  8 26 19 46 30.0010000  0  5G20G 3G24G25G16
    103871.427 8     81736.67029  20698342.805
  -2611780.814 6  -1194643.88325  22925397.488
   9394119.007 7   1747888.31026  22649835.905
    893838.812 5    159122.22025  24058794.983
    578160.24317    -22766.44131  22028780.692
 92  8 26 19 47  0.0010000  0  5G20G 3G24G25G16
    115852.340 8     91072.42629  20700621.318
   1409653.56316    -26434.54331  22914897.946
   9486227.200 7   1819660.90426  22667362.462
       278.09415      2271.34031  24061808.167
    548804.686 7    -45638.11721  22023190.942
 92  8 26 19 47 30.0010000  0  5G20G 3G24G25G16
    128404.534 8    100853.36029  20703006.047
   1354602.395 6    -69333.52021  22904418.461
   9578539.891 7   1891592.81626  22684933.507
      6910.00315     10765.12432  24064911.888
    519979.576 7    -68099.29825  22017708.817
 92  8 26 19 48  0.0010000  0  6G20G 3G17G24G25G16
    141577.009 8    111117.61929  20705512.102
   1299705.160 6   -112110.54525  22893978.668
   3653335.62615   -178939.76931  24348020.086
   9671096.181 7   1963714.57426  22702541.637
     23822.410 5     23943.60825  24068124.104
    491723.703 7    -90116.82125  22012332.220
 92  8 26 19 48 30.0010000  0  5G20G 3G17G24G16
    155432.316 8    121913.95229  20708149.886
   1245024.027 6   -154719.14125  22883578.418
   3561285.067 5   -250667.24122  24330501.474
   9763942.250 7   2036062.11526  22720204.899
    464092.122 7   -111647.91726  22007072.211
 92  8 26 19 49  0.0010000  0  5G20G 3G17G24G16
    169908.766 8    133194.29929  20710904.289
   1190497.548 6   -197207.27125  22873192.378
   3469454.540 5   -322223.34223  24313035.326
   9857007.828 7   2108580.72826  22737924.702
    437019.405 7   -132743.51826  22001920.457
 92  8 26 19 49 30.0010000  0  6G20G 3G17G24G25G16
    185000.899 8    144954.38529  20713775.282
   1136119.718 6   -239579.56125  22862849.419
   3377825.232 5   -393622.61524  24295592.411
   9950265.979 7   2181249.35426  22755668.399
    -13985.62815     19335.12632  24078494.825
    410500.794 7   -153407.36627  21996876.449
 92  8 26 19 50  0.0010000  0  5G20G 3G24G25G16
    200732.782 8    157213.00229  20716769.099
   1081915.106 6   -281816.86225  22852534.280
  10043725.084 7   2254074.59826  22773452.267
      5362.469 5     34411.61725  24082176.396
    384562.068 7   -173619.32027  21991937.848
 92  8 26 19 50 30.0010000  0  5G20G 3G24G25G16
    217093.032 8    169961.22829  20719883.643
   1027871.578 6   -323928.68325  22842251.728
  10137373.071 7   2327047.00126  22791276.368
     25293.290 5     49942.11225  24085964.364
    359202.108 7   -193380.30227  21987114.487
 92  8 26 19 51  0.0010000  0  5G20G 3G24G25G16
    234101.022 8    183214.20129  20723121.432
    974008.662 6   -365899.75825  22832000.625
  10231237.789 7   2400188.31026  22809133.386
     45823.668 5     65939.75725  24089867.991
    334435.993 7   -212678.55927  21982401.330
 92  8 26 19 51 30.0010000  0  5G20G 3G24G25G16
    251735.255 8    196955.15029  20726473.951
    920304.767 6   -407746.91825  22821776.683
  10325295.498 6   2473479.97726  22827029.167
     66929.264 5     82385.61725  24093879.694
    310236.709 7   -231535.13027  21977795.978
 92  8 26 19 52  0.0010000  0  5G20G 3G24G25G16
    270003.589 8    211190.20729  20729952.532
    866767.892 6   -449463.90826  22811596.930
  10419550.707 7   2546925.55426  22844967.578
     88624.183 5     99290.70825  24098012.513
    286623.617 7   -249934.92727  21973297.083
 92  8 26 19 52 30.0010000  0  6G20G 3G17G24G25G16
    288935.223 8    225942.13329  20733556.008
    813426.995 6   -491028.21226  22801437.683
     -4511.64115    -15254.19431  24191755.846
  10514034.861 6   2620549.51526  22862950.479
    110928.971 5    116671.07225  24102253.467
    263630.112 7   -267851.88927  21968925.629
 92  8 26 19 53  0.0010000  0  6G20G 3G17G24G25G16
    308487.063 8    241177.30629  20737277.122
    760239.319 6   -532473.12226  22791320.797
    -94736.907 5    -85559.43123  24174597.884
  10608696.759 6   2694312.00526  22880957.063
    133807.119 5    134498.19625  24106601.567
    241220.549 7   -285313.89127  21964659.433
 92  8 26 19 53 30.0010000  0  5G20G 3G24G25G16
    328670.981 8    256905.04829  20741114.945
    707216.706 6   -573789.38526  22781227.954
  10703544.388 6   2768219.21226  22899008.976
    157264.024 5    152776.22625  24111072.762
    219424.440 7   -302297.85227  21960514.712
 92  8 26 19 54  0.0010000  0  5G20G 3G17G24G16
    349486.916 8    273125.23729  20745078.801
    654359.011 6   -614977.18126  22771173.814
    108484.69315    -66380.28531  24140362.155
  10798582.654 6   2842274.96626  22917093.087
    198245.543 7   -318800.86127  21956483.163
 92  8 26 19 54 30.0010000  0  5G20G 3G17G24G16
    370924.064 8    289829.50629  20749153.430
    601655.797 6   -656044.57626  22761145.547
     18882.315 5   -136200.22823  24123322.401
  10893806.264 6   2916475.15826  22935219.888
    177659.965 7   -334841.53827  21952566.434
 92  8 26 19 55  0.0010000  0  4G20G 3G24G16
    392979.503 8    307015.54029  20753353.522
    549103.708 6   -696994.22126  22751141.982
  10989213.353 6   2990818.28826  22953371.931
    157656.957 7   -350428.30727  21948757.152
 92  8 26 19 55 30.0010000  0  5G20G 3G17G24G16
    415648.455 7    324679.66129  20757668.225
    496698.464 6   -737829.44626  22741171.604
    127360.40115    -89091.22232  24089334.001
  11084812.500 6   3065311.07926  22971558.421
    138224.790 7   -365570.23027  21945061.220
 92  8 26 19 56  0.0010000  0  5G20G 3G17G24G16
    438935.579 8    342825.47029  20762098.498
    925078.28216    -27619.05931  22731226.739
     38368.849 5   -158435.12024  24072399.205
  11180607.989 6   3139956.89326  22989795.456
    119355.799 7   -380273.30527  21941470.606
 92  8 26 19 56 30.0010000  0  6G20G 3G17G24G25G16
    462783.335 8    361408.12029  20766637.146
    872919.934 6    -68256.51321  22721301.690
    -50475.630 5   -227664.43325  24055494.058
  11276542.234 6   3214710.81726  23008047.001
     14385.87115     16318.31231  24140159.825
    101000.499 7   -394576.13927  21937981.741
 92  8 26 19 57  0.0010000  0  5G20G 3G17G24G16
    487242.058 8    380466.86029  20771291.724
    820906.302 7   -108791.10122  22711406.500
   -139114.847 5   -296733.81625  24038629.713
  11372667.565 6   3289613.62326  23026343.724
     83224.617 7   -408427.45827  21934596.935
 92  8 26 19 57 30.0010000  0  6G20G 3G17G24G25G16
    512324.280 8    400011.43729  20776068.767
    769050.932 6   -149197.83225  22701535.054
   -227538.711 5   -365635.38625  24021793.398
  11468986.216 6   3364667.06826  23044668.958
     14984.18515     15289.45931  24150685.358
     66043.452 7   -421815.34927  21931322.751
 92  8 26 19 58  0.0010000  0  6G20G 3G17G24G25G16
    538061.931 8    420066.73129  20780959.461
    717385.744 7   -189456.39725  22691704.290
   -315718.856 5   -434347.06025  24005009.038
  11565515.022 6   3439884.28926  23063039.400
     43529.561 5     37532.68223  24156124.943
     49487.111 7   -434716.37427  21928172.502
 92  8 26 19 58 30.0010000  0  6G20G 3G17G24G25G16
    564524.373 8    440686.83629  20785999.512
    665980.425 6   -229512.43525  22681915.946
   -403589.149 5   -502817.27725  23988291.741
  11662312.788 6   3515311.07326  23081458.409
     72734.746 5     60289.99325  24161674.101
     33634.227 7   -447069.26927  21925156.020
 92  8 26 19 59  0.0010000  0  6G20G 3G17G24G25G16
    591665.121 8    461835.43929  20791160.349
    614788.875 6   -269401.93325  22672175.599
   -491201.346 5   -571086.38525  23971616.355
  11759321.196 6   3590901.99926  23099919.718
    102563.803 5     83533.28925  24167345.545
     18435.517 7   -458912.39127  21922265.391
 92  8 26 19 59 30.0010000  0  6G20G 3G17G24G25G16
    619475.335 8    483505.74129  20796454.774
    563802.725 6   -309131.35325  22662475.155
   -578572.933 5   -639168.04025  23954994.273
  11856521.004 6   3666642.07526  23118416.583
    133000.606 5    107250.21625  24173137.415
      3869.491 7   -470262.52027  21919494.859
 92  8 26 20  0  0.0010000  0  6G20G 3G17G24G25G16
    647942.346 8    505687.80229  20801873.013
    513009.680 6   -348710.30226  22652812.304
   -665724.755 5   -707078.47525  23938422.195
  11953902.875 6   3742524.00426  23136940.819
    164044.719 5    131440.44025  24179048.753
    -10066.082 7   -481121.39927  21916838.488
 92  8 26 20  0 30.0010000  0  6G20G 3G17G24G25G16
    677059.258 8    528376.30129  20807412.728
    462403.215 6   -388143.90126  22643185.459
   -752657.361 5   -774818.05225  23921858.182
  12051465.855 6   3818547.06626  23155513.352
    195702.701 5    156108.97425  24185071.433
    -23376.747 7   -491493.33427  21914310.878
 92  8 26 20  1  0.0010000  0  6G20G 3G17G24G25G16
    706814.675 8    551562.34029  20813078.476
    411972.542 6   -427440.50926  22633581.787
   -839375.110 5   -842390.19025  23905378.411
  12149203.344 6   3894706.10826  23174110.647
    227947.482 5    181234.72325  24191212.622
    -36078.639 7   -501390.88327  21911893.142
 92  8 26 20  1 30.0010000  0  6G20G 3G17G24G25G16
    737201.101 8    575240.05229  20818859.134
    361710.769 7   -466605.47126  22624022.815
   -925870.089 5   -909788.78925  23888911.231
  12247103.083 6   3970991.56126  23192741.129
    260761.189 5    206803.83925  24197458.648
    -48172.891 7   -510814.94427  21909587.948
 92  8 26 20  2  0.0010000  0  6G20G 3G17G24G25G16
    768212.144 7    599404.48529  20824758.390
    311611.861 6   -505643.56826  22614486.117
  -1012136.548 5   -977009.29325  23872499.243
  12345151.405 6   4047392.78626  23211394.816
    294132.615 5    232807.52025  24203810.021
    -59646.577 7   -519755.47827  21907408.007
 92  8 26 20  2 30.0010000  0  6G20G 3G17G24G25G16
    799843.475 7    624052.26729  20830776.903
    261672.063 6   -544557.67026  22604985.064
  -1098160.002 5  -1044040.44525  23856118.433
  12443336.081 6   4123900.29126  23230080.280
    328040.108 5    259228.85025  24210249.833
    -70506.543 7   -528217.76227  21905339.769
 92  8 26 20  3  0.0010000  0  6G20G 3G17G24G25G16
    832090.871 8    649180.09829  20836913.715
    211888.451 6   -583350.08626  22595508.865
  -1183940.961 5  -1110882.64625  23839791.616
  12541646.231 6   4200505.56326  23248792.696
    362467.671 5    286055.56225  24216811.840
    -80751.076 7   -536200.49427  21903389.889
 92  8 26 20  3 30.0010000  0  6G20G 3G17G24G25G16
    864943.860 8    674779.82429  20843165.047
    162250.995 6   -622028.56826  22586063.604
  -1269493.363 5  -1177546.75025  23823518.162
  12640071.531 6   4277200.55026  23267525.227
    397415.177 5    313287.33225  24223458.928
    -90386.315 7   -543708.45327  21901560.045
 92  8 26 20  4  0.0010000  0  6G20G 3G17G24G25G16
    898403.792 8    700852.47429  20849532.909
    112761.077 7   -660592.12226  22576650.330
  -1354825.526 5  -1244039.28225  23807273.428
  12738627.015 6   4353996.98126  23286265.404
    432900.305 5    340937.99625  24230216.400
    -99420.212 7   -550747.84727  21899836.898
 92  8 26 20  4 30.0010000  0  6G20G 3G17G24G25G16
    932467.547 8    727395.64129  20856016.940
     63416.716 6   -699042.27726  22567253.755
  -1439944.049 5  -1310365.31225  23791081.277
  12837323.130 6   4430902.99826  23305050.849
    468935.349 5    369017.26625  24237078.440
   -107868.682 7   -557331.03427  21898231.270
 92  8 26 20  5  0.0010000  0  6G20G 3G17G24G25G16
    967134.748 8    754409.02229  20862613.663
     14218.328 6   -737378.62926  22557894.804
  -1524856.924 5  -1376531.04825  23774928.999
  12936172.787 6   4507928.64726  23323867.023
    505522.708 5    397526.81425  24244034.284
   -115735.675 7   -563461.14027  21896731.138
 92  8 26 20  5 30.0010000  0  6G20G 3G17G24G25G16
   1002399.717 8    781888.21629  20869322.509
    -34838.923 7   -775605.03426  22548563.404
  -1609566.489 5  -1442538.43025  23758805.831
  13035173.130 6   4585071.73126  23342702.713
    542658.964 5    426464.15225  24251092.538
   -123025.805 7   -569141.74327  21895350.204
 92  8 26 20  6  0.0010000  0  6G20G 3G17G24G25G16
   1038264.417 8    809834.70729  20876148.003
    -83752.546 6   -813719.54226  22539254.009
  -1694063.281 6  -1508379.99425  23742733.568
  13134327.677 6   4662334.95726  23361575.878
    580340.361 5    455826.23025  24258272.507
   -129745.859 7   -574378.12427  21894068.322
 92  8 26 20  6 30.0010000  0  6G20G 3G17G24G25G16
   1074721.620 8    838242.91929  20883090.327
   -132528.958 7   -851727.09026  22529967.428
  -1778349.779 5  -1574057.70925  23726678.872
  13233630.846 6   4739714.00125  23380467.779
    618541.542 5    485593.40225  24265532.222
   -135888.757 7   -579164.77627  21892902.099
 92  8 26 20  7  0.0010000  0  6G20G 3G17G24G25G16
   1111772.188 7    867113.45829  20890134.521
   -181166.177 7   -889626.19626  22520715.383
  -1862430.239 5  -1639574.82625  23710678.079
  13333083.735 6   4817209.70825  23399402.940
    657252.056 5    515757.34425  24272898.182
   -141448.511 7   -583497.04127  21891843.022
 92  8 26 20  7 30.0010000  0  6G20G 3G17G24G25G16
   1149409.265 7    896441.03429  20897296.593
   -229670.171 7   -927421.51926  22511483.694
  -1946315.197 5  -1704939.62925  23694721.775
  13432670.431 6   4894809.65825  23418348.025
    696458.539 5    546307.85625  24280368.561
   -146426.456 7   -587375.95827  21890890.912
 92  8 26 20  8  0.0010000  0  6G20G 3G17G24G25G16
   1187633.181 8    926225.88129  20904571.806
   -278039.514 7   -965111.87826  22502285.792
  -2030010.732 5  -1770156.83225  23678790.295
  13532389.420 6   4972512.73225  23437322.519
    736157.497 5    577241.97125  24287928.397
   -150812.460 7   -590793.60627  21890054.880
 92  8 26 20  8 30.0010000  0  6G20G 3G17G24G25G16
   1226450.269 8    956472.94929  20911958.213
   -326267.318 7  -1002691.96126  22493103.688
  -2113507.036 5  -1835218.80925  23662904.442
  13632226.084 6   5050307.47125  23456326.543
    776349.389 5    608560.38525  24295573.345
   -154593.475 7   -593739.83027  21889339.905
 92  8 26 20  9  0.0010000  0  6G20G 3G17G24G25G16
   1265861.334 8    987182.86429  20919456.292
   -374351.729 7  -1040160.30926  22483951.834
  -2196790.236 5  -1900114.72325  23647056.723
  13732160.519 6   5128178.43425  23475337.582
    817039.125 5    640266.59225  24303319.862
   -157780.296 7   -596223.06127  21888734.355
 92  8 26 20  9 30.0010000  0  6G20G 3G17G24G25G16
   1305875.643 7   1018362.82829  20927071.320
   -422282.568 7  -1077509.01026  22474835.985
  -2279838.578 6  -1964827.62625  23631252.624
  13832178.891 6   5206114.76625  23494368.587
    858240.444 5    672371.45625  24311151.100
   -160363.925 7   -598236.26527  21888241.616
 92  8 26 20 10  0.0010000  0  6G20G 3G17G24G25G16
   1346488.547 8   1050009.20429  20934802.398
   -470063.095 7  -1114740.56526  22465738.303
  -2362647.075 5  -2029353.61625  23615493.884
  13932269.080 6   5284107.05325  23513414.972
    899955.500 5    704876.68825  24319083.309
   -162350.671 7   -599784.37527  21887867.265
 92  8 26 20 10 30.0010000  0  6G20G 3G17G24G25G16
   1387701.110 8   1082122.88129  20942644.279
   -517691.637 7  -1151853.68326  22456674.318
  -2445216.390 5  -2093693.23925  23599786.378
  14032429.444 6   5362154.00725  23532474.217
    942177.969 5    737777.29225  24327122.184
   -163747.806 7   -600873.04127  21887598.861
 92  8 26 20 11  0.0010000  0  6G20G 3G17G24G25G16
   1429513.368 8   1114703.84629  20950599.212
   -565166.728 7  -1188847.24526  22447640.402
  -2527549.979 6  -2157849.17825  23584117.785
  14132675.409 6   5440267.73425  23551556.787
    984909.302 5    771074.31125  24335252.645
   -164542.670 7   -601492.40727  21887444.857
 92  8 26 20 11 30.0010000  0  6G20G 3G17G24G25G16
   1471920.110 8   1147748.03729  20958673.852
   -612492.772 7  -1225724.66026  22438640.692
  -2609673.770 5  -2221841.67125  23568488.345
  14233018.137 6   5518456.80225  23570649.759
   1028133.355 5    804755.35325  24343478.860
   -164736.410 7   -601643.37327  21887408.193
 92  8 26 20 12  0.0010000  0  6G20G 3G17G24G25G16
   1514918.141 8   1181252.98629  20966851.501
   -659671.711 7  -1262487.44026  22429655.283
  -2691586.055 5  -2285669.33025  23552904.084
  14333481.215 6   5596739.66525  23589763.237
   1071838.100 5    838811.02725  24351808.354
   -164328.277 7   -601325.33527  21887484.220
 92  8 26 20 12 30.0010000  0  6G20G 3G17G24G25G16
   1558501.983 8   1215214.39429  20975146.548
   -706707.343 7  -1299138.56726  22420706.958
  -2773281.439 5  -2349327.96825  23537357.027
  14434080.523 6   5675128.67225  23608911.671
   1116030.710 5    873246.70725  24360207.100
   -163323.247 7   -600542.18828  21887678.575
 92  8 26 20 13  0.0010000  0  6G20G 3G17G24G25G16
   1602675.207 8   1249635.07529  20983549.551
   -753594.760 7  -1335674.19126  22411779.378
  -2854749.442 5  -2412809.42225  23521854.369
  14534820.183 6   5753627.01925  23628082.439
   1160734.376 5    908080.75725  24368722.584
   -161722.845 7   -599295.12027  21887980.856
 92  8 26 20 13 30.0010000  0  6G20G 3G17G24G25G16
   1647434.183 8   1284512.16829  20992069.113
   -800336.997 7  -1372096.69626  22402890.682
  -2935985.539 5  -2476110.18125  23506391.164
  14635687.459 6   5832224.84525  23647274.403
   1205956.480 5    943318.74225  24377313.977
   -159544.625 7   -597597.81727  21888393.041
 92  8 26 20 14  0.0010000  0  6G20G 3G17G24G25G16
   1692773.867 8   1319841.79029  21000697.230
   -846937.261 7  -1408408.55226  22394024.409
  -3016973.504 5  -2539217.56525  23490979.823
  14736664.761 6   5910908.41525  23666491.159
   1251706.510 5    978968.02125  24386019.890
   -156777.788 7   -595441.82427  21888922.384
 92  8 26 20 14 30.0010000  0  6G20G 3G17G24G25G16
   1738694.794 8   1355624.31229  21009435.341
   -893394.098 7  -1444608.67526  22385181.401
  -3097727.326 5  -2602142.58625  23475614.350
  14837732.068 6   5989662.11625  23685719.008
   1297988.376 5   1015031.80325  24394830.340
   -153414.991 7   -592821.47327  21889560.223
 92  8 26 20 15  0.0010000  0  6G20G 3G17G24G25G16
   1785197.822 8   1391860.40529  21018285.574
   -939705.012 7  -1480695.08227  22376369.182
  -3178259.470 5  -2664894.77125  23460291.178
  14938868.128 6   6068469.36625  23704967.093
   1344767.225 5   1051482.82425  24403730.639
   -149444.083 7   -589727.25827  21890319.117
 92  8 26 20 15 30.0010000  0  6G20G 3G17G24G25G16
   1832286.411 8   1428552.79929  21027247.090
   -985865.395 7  -1516664.18727  22367582.565
  -3258564.076 6  -2727469.69525  23445011.866
  15040075.827 6   6147332.46025  23724236.223
   1392016.128 5   1088300.08025  24412723.453
   -144848.921 7   -586146.60828  21891195.501
 92  8 26 20 16  0.0010000  0  6G20G 3G17G24G25G16
   1879955.009 8   1465697.13729  21036317.790
  -1031879.000 7  -1552518.91227  22358830.843
  -3338662.734 5  -2789884.14925  23429767.809
  15141367.031 6   6226260.59225  23743495.910
   1439713.231 5   1125466.61025  24421797.002
   -139632.182 7   -582081.61528  21892184.636
 92  8 26 20 16 30.0010000  0  6G20G 3G17G24G25G16
   1928208.090 8   1503296.92029  21045500.223
  -1077740.394 7  -1588255.05227  22350098.938
  -3418556.587 6  -2852139.00125  23414564.105
  15242746.368 6   6305257.42825  23762795.949
   1487855.481 5   1162980.05325  24430961.207
   -133813.339 7   -577547.45328  21893294.827
 92  8 26 20 17  0.0010000  0  6G20G 3G17G24G25G16
   1977040.434 8   1541348.07929  21054789.622
  -1123453.059 7  -1623875.29227  22341404.627
  -3498233.399 6  -2914224.71425  23399402.101
  15344208.609 6   6384318.88025  23782101.654
   1536434.454 5   1200833.72125  24440211.304
   -127414.943 7   -572561.69128  21894509.976
 92  8 26 20 17 30.0010000  0  6G20G 3G17G24G25G16
   2026439.789 8   1579841.06329  21064191.803
  -1169027.903 7  -1659388.14427  22332731.272
  -3577695.749 6  -2976143.37625  23384281.169
  15445756.164 6   6463446.76325  23801423.967
   1585466.721 5   1239040.63225  24449538.477
   -120461.671 7   -567143.53428  21895832.960
 92  8 26 20 18  0.0010000  0  6G20G 3G17G24G25G16
   2076408.423 8   1618777.64829  21073703.858
  -1214460.886 7  -1694790.44427  22324084.508
  -3656928.112 6  -3037882.79225  23369205.686
  15547391.864 6   6542643.35325  23820766.576
   1634975.114 5   1277618.56425  24458966.200
   -112945.769 7   -561287.00228  21897264.739
 92  8 26 20 18 30.0010000  0  6G20G 3G17G24G25G16
   2126949.479 8   1658160.26229  21083321.170
  -1259747.438 7  -1730078.64127  22315464.276
  -3735900.479 6  -3099419.60625  23354175.801
  15649100.960 6   6621897.14325  23840125.315
   1684960.405 6   1316568.09225  24468478.315
   -104849.079 7   -554977.88228  21898805.402
 92  8 26 20 19  0.0010000  0  6G20G 3G17G24G25G16
   2178068.432 8   1697993.20529  21093043.980
  -1304880.636 7  -1765247.34627  22306879.029
  -3814609.211 6  -3160751.00125  23339193.493
  15750899.051 6   6701220.29125  23859488.790
   1735420.003 5   1355887.22925  24478072.813
    -96144.327 7   -548194.95128  21900461.456
 92  8 26 20 19 30.0010000  0  6G20G 3G17G24G25G16
   2229763.427 8   1738274.98929  21102884.007
  -1349861.095 7  -1800297.02427  22298316.806
  -3893065.962 6  -3221886.04825  23324266.406
  15852791.266 6   6780616.74925  23878880.025
   1786355.771 5   1395577.41925  24487762.615
    -86804.602 7   -540917.24528  21902235.928
 92  8 26 20 20  0.0010000  0  6G20G 3G17G24G25G16
   2282027.439 8   1779000.17229  21112831.211
  -1394693.306 7  -1835231.19227  22289789.989
  -3971285.286 6  -3282836.06725  23309384.049
  15954752.715 6   6860067.16225  23898283.882
   1837752.752 5   1435626.92525  24497547.211
    -76827.702 7   -533143.02228  21904136.522
 92  8 26 20 20 30.0010000  0  6G20G 3G17G24G25G16
   2334855.311 8   1820164.73529  21122881.813
  -1439381.292 7  -1870052.96827  22281287.755
  -4049290.082 6  -3343618.95225  23294532.930
  16056759.694 6   6939553.07825  23917696.643
   1889603.721 6   1476030.26125  24507420.426
    -66228.274 7   -524883.71828  21906150.318
 92  8 26 20 21  0.0010000  0  6G20G 3G17G24G25G16
   2388240.839 8   1861763.82229  21133040.131
  -1483929.146 7  -1904765.56627  22272807.346
  -4127106.615 6  -3404255.14025  23279729.629
  16158816.455 6   7019077.77125  23937115.430
   1941918.513 5   1516795.02225  24517364.632
    -55027.107 7   -516155.53028  21908282.891
 92  8 26 20 21 30.0010000  0  6G20G 3G17G24G25G16
   2442183.936 8   1903797.38329  21143306.583
  -1528335.606 7  -1939367.95827  22264355.657
  -4204728.544 6  -3464739.68525  23264959.783
  16260915.301 6   7098635.26025  23956543.840
   1994710.908 5   1557931.85625  24527407.619
    -43236.569 7   -506968.07428  21910530.136
 92  8 26 20 22  0.0010000  0  5G20G 3G17G24G16
   2496690.692 8   1946270.15429  21153677.754
  -1572592.471 7  -1973853.80327  22255936.856
  -4282135.872 6  -3525057.01325  23250223.815
  16363058.932 6   7178227.62625  23975978.126
    -30885.268 7   -497343.67428  21912880.658
 92  8 26 20 22 30.0010000  0  6G20G 3G17G24G25G16
   2551766.301 8   1989186.20229  21164157.659
  -1616693.259 7  -2008218.02927  22247542.337
  -4359308.628 6  -3585191.53825  23235544.207
  16465277.865 6   7257878.67025  23995435.376
  -1986266.57716     48099.89131  24547782.983
    -17972.741 7   -487281.96328  21915334.580
 92  8 26 20 23  0.0010000  0  6G20G 3G17G24G25G16
   2607407.728 8   2032543.13629  21174745.908
  -1660638.763 7  -2042461.24427  22239179.836
  -4436239.588 6  -3645137.65126  23220905.162
  16567595.307 6   7337606.50625  24014904.528
  -1932079.924 6     90323.34623  24558091.347
     -4500.136 7   -476783.82528  21917902.422
 92  8 26 20 23 30.0010000  0  6G20G 3G17G24G25G16
   2663616.544 8   2076342.18429  21185444.212
  -1704425.718 7  -2076580.92427  22230843.207
  -4512911.766 6  -3704882.11926  23206310.755
  16670000.203 5   7417402.50325  24034387.740
  -1877464.971 5    132880.45125  24568477.717
      9544.065 7   -465840.26828  21920573.333
 92  8 26 20 24  0.0010000  0  6G20G 3G17G24G25G16
   2720387.578 7   2120579.33729  21196245.465
  -1748056.994 7  -2110579.28427  22222543.363
  -4589325.728 6  -3764425.37826  23191770.641
  16772494.171 6   7497267.85625  24053901.021
  -1822443.897 5    175753.93825  24578951.986
     24175.523 7   -454439.11528  21923361.643
 92  8 26 20 24 30.0010000  0  6G20G 3G17G24G25G16
   2777719.817 7   2165253.78829  21207157.161
  -1791532.381 7  -2144456.19027  22214269.002
  -4665489.697 6  -3823773.84626  23177285.449
  16875078.934 6   7577203.97425  24073408.036
  -1767008.671 6    218950.16825  24589500.093
     39423.435 7   -442557.63328  21926262.974
 92  8 26 20 25  0.0010000  0  6G20G 3G17G24G25G16
   2835611.658 7   2210364.28829  21218175.733
  -1834850.809 7  -2178210.80227  22206029.835
  -4741399.856 6  -3882924.53726  23162827.298
  16977733.896 6   7657194.82825  24092957.802
  -1711150.113 5    262476.29225  24600129.265
     55293.787 7   -430191.12928  21929278.347
 92  8 26 20 25 30.0010000  0  6G20G 3G17G24G25G16
   2894059.596 7   2255908.11629  21229296.324
  -1878014.422 7  -2211844.73727  22197814.503
  -4817050.333 6  -3941872.89426  23148440.378
  17080445.011 6   7737229.38025  24112492.579
  -1654858.383 5    306339.90925  24610831.706
     71785.575 7   -417340.37828  21932418.493
 92  8 26 20 26  0.0010000  0  6G20G 3G17G24G25G16
   2953058.758 7   2301881.47129  21240520.044
  -1921025.878 7  -2245360.12527  22189627.231
  -4892443.795 6  -4000620.94326  23134095.879
  17183222.392 6   7817315.58425  24132051.728
  -1598113.603 5    350556.54625  24621637.785
     88887.149 7   -404014.47028  21935672.620
 92  8 26 20 26 30.0010000  0  6G20G 3G17G24G25G16
   3012607.286 7   2348282.90429  21251857.625
  -1963884.810 7  -2278756.66727  22181476.713
  -4967586.638 6  -4059173.73126  23119788.374
  17286050.205 6   7897441.11425  24151619.812
  -1540902.211 5    395136.86125  24632528.315
    106583.792 7   -390224.88128  21939036.621
 92  8 26 20 27  0.0010000  0  6G20G 3G17G24G25G16
   3072709.532 7   2395115.79129  21263289.701
  -2006585.138 7  -2312029.63927  22173349.879
  -5042472.981 6  -4117526.67526  23105538.369
  17388928.922 6   7977606.30825  24171199.497
  -1483235.265 5    440072.08825  24643506.116
    124869.390 7   -375976.35828  21942520.539
 92  8 26 20 27 30.0010000  0  6G20G 3G17G24G25G16
   3133358.665 7   2442374.84329  21274830.961
  -2049131.183 7  -2345182.36027  22165252.065
  -5117116.118 6  -4175690.05626  23091331.714
  17491856.752 6   8057809.74625  24190789.255
  -1425134.723 5    485345.19725  24654563.091
    143732.345 7   -361277.95328  21946109.235
 92  8 26 20 28  0.0010000  0  6G20G 3G17G24G25G16
   3194555.538 7   2490060.69429  21286479.367
  -2091520.367 7  -2378212.87227  22157184.500
  -5191527.344 6  -4233672.76226  23077180.670
  17594826.595 6   8138045.92725  24210381.921
  -1366620.492 5    530940.66425  24665699.601
    163178.491 7   -346125.10228  21949806.845
 92  8 26 20 28 30.0010000  0  6G20G 3G17G24G25G16
   3256300.027 7   2538173.27129  21298227.094
  -2133750.726 7  -2411119.63327  22149152.251
  -5265708.442 6  -4291476.11526  23063060.146
  17697820.637 5   8218300.95425  24229973.688
  -1307704.197 5    576849.37925  24676905.484
    183213.630 7   -330513.31828  21953627.040
 92  8 26 20 29  0.0010000  0  6G20G 3G17G24G25G16
   3318587.930 7   2586709.26629  21310078.250
  -2175823.612 7  -2443903.67227  22141143.235
  -5339645.154 6  -4349089.06126  23048991.215
  17800844.328 6   8298579.07325  24249589.289
  -1248401.195 5    623059.45825  24688186.434
    203826.785 7   -314451.10528  21957548.416
 92  8 26 20 29 30.0010000  0  6G20G 3G17G24G25G16
   3381418.144 7   2635667.86229  21322033.613
  -2217738.468 7  -2476564.57227  22133166.897
  -5413336.577 6  -4406510.88526  23034970.012
  17903898.752 6   8378881.19425  24269190.139
  -1188697.264 5    669581.97325  24699551.686
    225023.370 7   -297934.28728  21961576.877
 92  8 26 20 30  0.0010000  0  6G20G 3G17G24G25G16
   3444790.708 7   2685049.05729  21334098.731
  -2259493.041 7  -2509100.57827  22125221.408
  -5486788.070 6  -4463745.73426  23020994.977
  18006982.250 6   8459205.92225  24288815.753
  -1128571.043 5    716433.54225  24710993.685
    246804.367 7   -280962.08128  21965720.938
 92  8 26 20 30 30.0010000  0  6G20G 3G17G24G25G16
   3508706.787 7   2734853.76429  21346258.643
  -2301083.771 7  -2541508.90927  22117306.228
  -5559979.809 6  -4520778.19026  23007062.302
  18110101.284 6   8539558.35025  24308438.608
  -1068008.992 5    763624.71425  24722510.212
    269167.021 7   -263536.61828  21969982.278
 92  8 26 20 31  0.0010000  0  6G20G 3G17G24G25G16
   3573165.650 7   2785081.42429  21358523.902
  -2342509.329 7  -2573788.54927  22109421.746
  -5632913.402 6  -4577609.49526  22993180.293
  18213273.052 6   8619951.83625  24328071.327
  -1007023.449 5    811145.86025  24734129.778
    292113.487 7   -245656.27028  21974347.076
 92  8 26 20 31 30.0010000  0  6G20G 3G17G24G25G16
   3638165.354 7   2835730.52129  21370889.591
  -2383768.908 7  -2605938.84327  22101576.537
  -5705604.314 6  -4634251.69526  22979351.076
  18316489.651 5   8700380.29225  24347703.266
   -945616.985 5    858994.98825  24745810.172
    315660.221 7   -227308.16028  21978822.168
 92  8 26 20 32  0.0010000  0  6G20G 3G17G24G25G16
   3703700.213 7   2886796.61729  21383367.463
  -2424866.428 7  -2637962.86927  22093752.164
  -5778044.793 6  -4690698.74626  22965563.231
  18419745.062 5   8780839.01825  24367359.038
   -883807.395 5    907158.26425  24757560.957
    339806.338 7   -208492.99228  21983420.685
 92  8 26 20 32 30.0010000  0  6G20G 3G17G24G25G16
   3769773.615 7   2938282.36229  21395937.101
  -2465795.885 7  -2669855.93027  22085961.937
  -5850208.428 6  -4746930.07426  22951831.508
  18523057.161 5   8861341.89125  24387011.903
   -821616.040 5    955618.98125  24769395.474
    364572.168 7   -189194.93428  21988130.094
 92  8 26 20 33  0.0010000  0  6G20G 3G17G24G25G16
   3836387.548 7   2990189.29729  21408609.868
  -2506552.532 7  -2701614.32727  22078207.985
  -5922095.981 6  -4802946.27926  22938154.256
  18626438.058 5   8941898.34225  24406694.687
   -759041.996 5   1004377.93725  24781301.522
    389963.265 7   -169409.66128  21992962.389
 92  8 26 20 33 30.0010000  0  6G20G 3G17G24G25G16
   3903545.436 7   3042520.09229  21421391.399
  -2547131.259 7  -2733234.08727  22070487.969
  -5993698.479 6  -4858740.35326  22924528.029
  18729885.053 5   9022506.29425  24426371.355
   -696070.841 5   1053446.28925  24793302.694
    415982.608 7   -149134.84828  21997921.856
 92  8 26 20 34  0.0010000  0  6G20G 3G17G24G25G16
   3971238.795 7   3095268.14629  21434279.687
  -2587537.717 7  -2764719.63827  22062795.415
  -6065016.832 6  -4914313.03326  22910957.834
  18833394.609 5   9103163.06725  24446071.917
   -632713.716 5   1102815.43125  24805346.496
    442611.623 7   -128384.96228  22002982.562
 92  8 26 20 34 30.0010000  0  5G20G 3G17G24G16
   4039466.404 7   3148432.49029  21447258.782
  -2627770.363 7  -2796069.72027  22055138.236
  -6136059.497 6  -4969670.88426  22897435.126
  18936961.102 5   9183864.11025  24465775.746
    469829.743 7   -107176.01528  22008165.164
 92  8 26 20 35  0.0010000  0  6G20G 3G17G24G25G16
   4108229.527 7   3202014.12029  21460342.534
  -2667825.751 7  -2827281.69727  22047517.901
  -6206839.853 6  -5024824.36526  22883971.566
  19040562.187 5   9264592.16525  24485495.015
     23570.05415     22193.04031  24829699.027
    497619.896 7    -85521.35728  22013453.533
 92  8 26 20 35 30.0010000  0  6G20G 3G17G24G25G16
   4177518.306 7   3256005.35129  21473532.982
  -2707710.864 7  -2858360.98027  22039928.565
  -6277371.526 6  -5079784.01926  22870549.888
  19144176.938 5   9345330.84925  24505222.408
     88123.652 5     72494.46923  24841966.894
    525970.889 7    -63429.66028  22018844.911
 92  8 26 20 36  0.0010000  0  5G20G 3G17G24G16
   4247328.611 7   3310402.96929  21486814.148
  -2747427.328 7  -2889308.85727  22032370.977
  -6347645.962 6  -5134543.24726  22857172.968
  19247801.022 5   9426076.82525  24524929.175
    554880.313 7    -40902.82128  22024346.762
 92  8 26 20 36 30.0010000  0  5G20G 3G17G24G16
   4317658.636 7   3365205.55529  21500194.935
  -2786974.589 7  -2920124.87927  22024846.426
  -6417660.678 6  -5189100.09426  22843848.663
  19351433.017 5   9506828.97325  24544657.587
    584352.189 7    -17937.71028  22029953.271
 92  8 26 20 37  0.0010000  0  5G20G 3G17G24G16
   4388503.088 7   3420408.99829  21513681.428
  -2826355.360 7  -2950811.16327  22017351.375
  -6487421.895 6  -5243459.44226  22830575.471
  19455078.771 5   9587591.78525  24564367.083
    614412.081 7      5485.57828  22035677.358
 92  8 26 20 37 30.0010000  0  5G20G 3G17G24G16
   4459854.274 7   3476007.29229  21527257.320
  -2865574.755 7  -2981371.72727  22009887.052
  -6556926.166 6  -5297618.54326  22817345.031
  19558746.839 5   9668372.05925  24584098.613
    645071.361 7     29375.94328  22041507.782
 92  8 26 20 38  0.0010000  0  5G20G 3G17G24G16
   4531716.118 7   3532003.53029  21540930.524
  -2904625.801 7  -3011801.08727  22002457.206
  -6626164.566 6  -5351570.47126  22804169.992
  19662447.740 5   9749177.93525  24603839.286
    676335.094 7     53737.30328  22047459.891
 92  8 26 20 38 30.0010000  0  5G20G 3G17G24G16
   4604089.559 7   3588398.38229  21554705.208
  -2943505.365 7  -3042096.84527  21995059.107
  -6695144.937 6  -5405321.36626  22791048.885
  19766191.173 5   9830016.81125  24623580.860
    708209.186 7     78574.28328  22053524.812
 92  8 26 20 39  0.0010000  0  5G20G 3G17G24G16
   4676970.552 7   3645188.72829  21568570.190
  -2982214.712 7  -3072259.95328  21987691.888
  -6763870.098 6  -5458873.38026  22777966.512
  19869977.582 6   9910889.33525  24643334.515
    740689.174 7    103883.37028  22059705.394
 92  8 26 20 39 30.0010000  0  5G20G 3G17G24G16
   4750358.003 7   3702373.72529  21582535.841
  -3020751.592 7  -3102288.64228  21980359.294
  -6832320.282 6  -5512211.10926  22764940.919
  19973808.935 5   9991796.83625  24663095.065
    773752.154 7    129646.73228  22065992.671
 92  8 26 20 40  0.0010000  0  5G20G 3G17G24G16
   4824259.827 7   3759959.52629  21596598.476
  -3059105.725 7  -3132174.97228  21973056.380
  -6900486.857 6  -5565327.83426  22751963.683
  20077690.067 5  10072743.11325  24682851.507
    807396.843 7    155863.39128  22072400.885
 92  8 26 20 40 30.0010000  0  5G20G 3G17G24G16
   4898673.707 7   3817944.35629  21610761.331
  -3097276.344 7  -3161918.29428  21965797.715
  -6968373.664 6  -5618226.57926  22739048.744
  20181606.602 5  10153716.95725  24702620.182
    841620.492 7    182531.19128  22078912.737
 92  8 26 20 41  0.0010000  0  5G20G 3G17G24G16
   4973596.903 7   3876326.02729  21625021.169
  -3135263.789 7  -3191518.86728  21958566.721
  -7035977.775 6  -5670905.05926  22726183.241
  20285541.426 6  10234705.09525  24722405.285
    876415.689 7    209644.34028  22085537.521
 92  8 26 20 41 30.0010000  0  5G20G 3G17G24G16
   5049025.839 7   3935101.78629  21639372.744
  -3173068.692 7  -3220977.21128  21951373.201
  -7103300.831 6  -5723364.51826  22713378.715
  20389475.799 5  10315692.86625  24742186.221
    911779.390 7    237200.48028  22092263.364
 92  8 26 20 42  0.0010000  0  6G20G 3G17G24G25G16
   5124960.875 7   3994271.91729  21653824.090
  -3210687.732 7  -3250290.73428  21944215.476
  -7170353.695 6  -5775613.44626  22700614.512
  20493399.230 5  10396672.06825  24761956.244
     18551.29515     18013.76531  25008132.620
    947715.936 7    265202.98728  22099100.911
 92  8 26 20 42 30.0020000  0  6G20G 3G17G24G25G16
   5201401.303 7   4053835.85129  21668368.131
  -3248122.388 7  -3279460.58228  21937086.831
  -7237132.784 6  -5827649.04626  22687909.067
  20597313.797 6  10477644.38025  24781736.881
     88174.569 5     72265.64422  25021374.933
    984218.727 7    293646.72128  22106046.053
 92  8 26 20 43  0.0020000  0  6G20G 3G17G24G25G16
   5278341.246 7   4113789.02229  21683010.894
  -3285368.228 7  -3308483.28828  21929998.658
  -7303622.071 6  -5879458.81426  22675262.952
  20701226.972 5  10558615.61825  24801516.707
    158158.652 5    126798.38822  25034692.403
   1021295.203 7    322537.48628  22113104.246
 92  8 26 20 43 30.0020000  0  6G20G 3G17G24G25G16
   5355777.285 7   4174128.74329  21697747.402
  -3322429.559 7  -3337362.21828  21922954.524
  -7369828.398 6  -5931048.10926  22662659.707
  20805138.958 5  10639585.96125  24821287.360
    228504.335 5    181613.37023  25048076.487
   1058938.589 7    351869.99728  22120266.378
 92  8 26 20 44  0.0020000  0  6G20G 3G17G24G25G16
   5433702.625 7   4234849.76129  21712572.829
  -3359310.059 7  -3366100.24828  21915933.985
  -7435762.031 6  -5982424.91026  22650110.305
  20909055.964 5  10720560.16925  24841066.797
    299211.097 5    236709.51523  25061539.297
   1097136.738 7    381634.77828  22127533.827
 92  8 26 20 44 30.0020000  0  6G20G 3G17G24G25G16
   5512119.048 7   4295953.43129  21727493.289
  -3396004.521 7  -3394693.33128  21908948.640
  -7501422.435 6  -6033588.78226  22637609.679
  21012991.868 5  10801549.07525  24860836.821
    370283.329 5    292090.39723  25075055.740
   1135902.138 7    411841.59028  22134913.488
 92  8 26 20 45  0.0020000  0  6G20G 3G17G24G25G16
   5591024.258 7   4357437.97929  21742509.084
  -3432512.806 7  -3423141.32628  21902002.329
  -7566817.224 6  -6084545.72026  22625173.328
  21116941.225 5  10882548.51625  24880623.962
    441709.504 5    347747.07224  25088644.973
   1175236.627 7    442491.84828  22142397.477
 92  8 26 20 45 30.0020000  0  6G20G 3G17G24G25G16
   5670415.257 7   4419301.06029  21757621.952
  -3468835.150 7  -3451444.43628  21895092.773
  -7631952.722 6  -6135300.58826  22612781.257
  21220907.834 5  10963561.42125  24900407.417
    513474.313 5    403667.55323  25102316.798
   1215113.488 7    473564.73128  22149985.134
 92  8 26 20 46  0.0020000  0  6G20G 3G17G24G25G16
   5750290.163 7   4481541.20229  21772813.995
  -3504969.876 7  -3479601.34628  21888214.394
  -7696828.896 6  -6185853.38526  22600434.335
  21324917.281 5  11044607.66925  24920189.702
    585571.882 5    459847.37124  25116028.405
   1255537.120 7    505063.65028  22157674.841
 92  8 26 20 46 30.0020000  0  6G20G 3G17G24G25G16
   5830645.825 7   4544155.97429  21788104.519
  -3540917.291 7  -3507612.27428  21881370.522
  -7761436.578 6  -6236196.95626  22588133.431
  21428963.779 5  11125682.78325  24939997.859
    657981.400 5    516270.45124  25129810.254
   1296522.580 7    537000.37228  22165475.860
 92  8 26 20 47  0.0020000  0  5G20G 3G17G25G16
   5911482.436 7   4607145.50828  21803491.907
  -3576674.084 7  -3535474.69728  21874567.992
  -7825756.422 6  -6286316.25026  22575901.958
    730688.191 5    572925.17223  25143639.441
   1338079.660 7    569382.50628  22173382.407
 92  8 26 20 47 30.0020000  0  5G20G 3G17G25G16
   5992795.354 7   4670506.18628  21818966.444
  -3612241.598 7  -3563189.62428  21867801.016
  -7889788.378 6  -6336211.20826  22563710.838
    803692.245 5    629811.68923  25157533.262
   1380217.249 7    602216.99828  22181401.945
 92  8 26 20 48  0.0020000  0  5G20G 3G17G25G16
   6074582.532 7   4734236.41128  21834530.559
  -3647618.899 7  -3590756.32728  21861071.095
  -7953533.265 6  -6385882.49126  22551583.843
    876991.804 5    686928.25923  25171481.286
   1422960.853 7    635523.69828  22189539.691
 92  8 26 20 48 30.0020000  0  5G20G 3G17G25G16
   6156844.239 7   4798336.39228  21850183.892
  -3682802.152 7  -3618171.83828  21854375.081
  -8016975.941 6  -6435318.28226  22539513.300
    950592.451 5    744279.24323  25185488.189
   1466315.180 7    669306.27928  22197788.811
 92  8 26 20 49  0.0020000  0  5G20G 3G17G25G16
   6239584.690 7   4862809.44528  21865924.645
  -3717784.062 7  -3645430.45328  21847717.680
  -8080114.037 6  -6484516.72726  22527498.877
   1024511.413 5    801878.37523  25199557.389
   1510264.112 7    703552.20028  22206151.012
 92  8 26 20 49 30.0020000  0  4G20G 3G17G16
  -6262533.33917     34635.95532  21881763.730
  -3752564.788 7  -3672532.30028  21841096.134
  -8142954.992 6  -6533483.64026  22515538.087
   1554776.454 7    738237.12828  22214624.046
 92  8 26 20 50  0.0020000  0  5G20G 3G17G24G16
  -6178848.224 7     99845.16125  21897692.453
  -3787147.489 7  -3699479.82628  21834519.317
  -8205490.344 6  -6582212.43026  22503637.466
     78121.30315     70344.95831  25078727.448
   1599840.302 7    773351.81628  22223196.221
 92  8 26 20 50 30.0020000  0  5G20G 3G17G24G16
  -6094693.255 7    165420.43726  21913705.028
  -3821527.986 7  -3726269.80928  21827976.946
  -8267709.508 6  -6630694.82926  22491798.782
    182285.142 5    151510.42722  25098554.013
   1645446.272 7    808888.92528  22231879.350
 92  8 26 20 51  0.0020000  0  5G20G 3G17G24G16
   -202803.91117     30649.18831  21929803.943
  -3855712.022 7  -3752906.70228  21821472.679
  -8329637.145 6  -6678950.05226  22480012.291
    286434.657 5    232665.90522  25118366.697
   1691580.238 7    844837.46628  22240658.473
 92  8 26 20 51 30.0020000  0  5G20G 3G17G24G16
   -117734.326 7     96944.96321  21945989.528
  -3889704.042 7  -3779393.97428  21815004.117
  -8391288.896 6  -6726990.33626  22468278.445
    390552.795 5    313796.83123  25138181.059
   1738256.927 7    881208.89328  22249542.252
 92  8 26 20 52  0.0020000  0  5G20G 3G17G24G16
    -32215.760 7    163571.97521  21962267.059
  -3923504.666 7  -3805732.10728  21808570.421
  -8452678.659 6  -6774826.43826  22456601.079
    494647.146 5    394909.31723  25157982.981
   1785488.446 7    918012.66028  22258522.685
 92  8 26 20 52 30.0020000  0  5G20G 3G17G24G16
     53751.738 7    230568.74121  21978626.523
  -3957110.991 7  -3831918.82628  21802174.649
  -8513821.274 6  -6822469.98527  22444959.358
    598718.995 5    476004.16223  25177798.273
   1833264.228 7    955240.52528  22267616.620
 92  8 26 20 53  0.0020000  0  5G20G 3G17G24G16
    140172.597 7    297909.49225  21995071.219
  -3990514.771 7  -3857947.74328  21795818.029
  -8574716.172 6  -6869920.46527  22433377.386
    702770.926 5    557083.57024  25197590.691
   1881586.231 7    992894.03228  22276809.785
 92  8 26 20 53 30.0020000  0  5G20G 3G17G24G16
    227044.932 7    365602.18125  22011606.272
  -4023715.036 7  -3883818.03328  21789502.032
  -8635340.890 7  -6917160.45927  22421839.543
    806820.385 5    638161.06824  25217392.432
   1930449.223 7   1030969.09728  22286113.215
 92  8 26 20 54  0.0020000  0  5G20G 3G17G24G16
    314368.319 7    433646.36726  22028223.318
  -4056708.008 7  -3909526.83728  21783221.560
  -8695675.022 7  -6964174.02027  22410360.550
    910871.478 5    719239.81924  25237198.581
   1979836.373 7   1069452.57828  22295512.008
 92  8 26 20 54 30.0020000  0  5G20G 3G17G24G16
    402134.206 7    502035.33326  22044923.857
  -4089499.473 7  -3935078.60128  21776983.478
  -8755706.966 6  -7010952.09827  22398934.171
   1014920.407 5    800316.78724  25257001.222
   2029747.480 7   1108344.32928  22305005.926
 92  8 26 20 55  0.0020000  0  5G20G 3G17G24G16
    490348.950 7    570774.04626  22061709.266
  -4122079.337 7  -3960465.48728  21770783.410
  -8815419.580 7  -7057481.35127  22387573.955
   1118981.771 5    881403.58424  25276809.289
   2080200.830 7   1147658.62828  22314606.539
 92  8 26 20 55 30.0020000  0  5G20G 3G17G24G16
    579008.157 7    639859.12227  22078578.528
  -4154448.754 7  -3985688.39128  21764620.847
  -8874813.086 6  -7103761.93927  22376270.490
   1223056.840 5    962501.04624  25296610.731
   2131205.624 7   1187402.63228  22324310.372
 92  8 26 20 56  0.0020000  0  5G20G 3G17G24G16
    668103.858 7    709284.29827  22095535.449
  -4186611.974 7  -4010750.62028  21758500.074
  -8933907.186 7  -7149809.23427  22365027.014
   1327139.201 5   1043604.14725  25316398.892
   2182766.078 7   1227579.58928  22334125.637
 92  8 26 20 56 30.0020000  0  4G 3G17G24G16
  -4218567.475 7  -4035650.99828  21752418.334
  -8992708.953 7  -7195628.73127  22353834.442
   1431236.583 5   1124718.89325  25336201.353
   2234886.732 7   1268193.09328  22344037.854
 92  8 26 20 57  0.0020000  0  5G20G 3G17G24G16
   -866673.24317     76962.33935  22129689.245
  -4250313.302 7  -4060387.95628  21746379.435
  -9051224.016 6  -7241224.81427  22342692.716
   1535335.374 5   1205834.82425  25356014.217
   2287553.524 7   1309232.13228  22354064.353
 92  8 26 20 57 30.0020000  0  4G20G 3G17G16
   -776279.721 7    147398.79925  22146891.816
  -4281848.629 7  -4084960.94328  21740378.549
  -9109453.045 6  -7286598.03027  22331613.646
   2340766.735 7   1350696.96028  22364192.662
 92  8 26 20 58  0.0020000  0  4G20G 3G17G16
   -685457.428 7    218169.39126  22164173.712
  -4313171.225 7  -4109368.13328  21734418.585
  -9167386.489 6  -7331740.92527  22320587.849
   2394517.911 7   1392580.98528  22374418.372
 92  8 26 20 58 30.0020000  0  4G20G 3G17G16
   -594211.667 7    289269.95826  22181536.912
  -4344283.146 7  -4133611.17528  21728500.892
  -9225013.041 7  -7376644.67327  22309625.368
   2448797.579 7   1434876.84128  22384751.679
 92  8 26 20 59  0.0020000  0  4G20G 3G17G16
   -502550.539 7    360694.17126  22198978.927
  -4375188.349 7  -4157693.11528  21722616.086
  -9282330.188 7  -7421307.31227  22298719.428
   2503604.874 7   1477583.81728  22395180.319
 92  8 26 20 59 30.0020000  0  4G20G 3G17G16
   -410471.840 7    432443.78027  22216497.749
  -4405881.552 8  -4181609.87228  21716776.638
  -9339334.763 7  -7465726.39627  22287873.686
   2558950.777 7   1520710.49628  22405707.142
 92  8 26 21  0  0.0020000  0  4G20G 3G17G16
   -317970.560 7    504522.66127  22234107.108
  -4436353.717 7  -4205354.39428  21710978.322
  -9396022.048 7  -7509898.25727  22277085.505
   2614838.910 7   1564259.68728  22416339.071
 92  8 26 21  0 30.0020000  0  4G20G 3G17G16
   -225046.148 7    576931.26527  22251787.578
  -4466600.503 7  -4228923.29128  21705221.228
  -9452412.868 7  -7553839.09827  22266351.526
   2671271.132 7   1608232.84128  22427085.762
 92  8 26 21  1  0.0020000  0  4G20G 3G17G16
   -131706.871 7    649663.12627  22269551.211
  -4496626.726 7  -4252320.32928  21699508.773
  -9508528.579 7  -7597565.56627  22255673.968
   2728239.336 7   1652623.65528  22437925.867
 92  8 26 21  1 30.0020000  0  4G20G 3G17G16
    -37953.855 7    722717.40127  22287384.964
  -4526429.647 7  -4275543.35628  21693834.751
  -9564377.550 7  -7641084.19028  22245046.924
   2785734.550 7   1697425.12628  22448866.643
 92  8 26 21  2  0.0020000  0  4G20G 3G17G16
     56213.449 6    796094.48027  22305305.089
  -4556005.300 8  -4298589.30928  21688208.696
  -9619945.076 7  -7684383.48428  22234474.114
   2843755.592 7   1742636.32328  22459902.063
 92  8 26 21  2 30.0020000  0  4G20G 3G17G16
    150793.672 7    869793.31427  22323308.735
  -4585351.047 8  -4321456.09428  21682624.431
  -9675216.231 7  -7727451.86228  22223950.289
   2902296.032 7   1788252.24528  22471046.578
 92  8 26 21  3  0.0020000  0  4G20G 3G17G16
    245777.812 7    943806.89827  22341381.304
  -4614472.212 7  -4344147.89328  21677081.299
  -9730178.199 7  -7770279.30828  22213496.916
   2961339.982 7   1834260.52328  22482280.941
 92  8 26 21  3 30.0020000  0  4G20G 3G17G16
    341162.906 7   1018132.90527  22359532.028
  -4643367.849 7  -4366663.95028  21671579.088
  -9784825.232 7  -7812861.35928  22203097.206
   3020887.368 7   1880661.08327  22493612.646
 92  8 26 21  4  0.0020000  0  4G20G 3G17G16
    436949.301 7   1092771.63327  22377762.108
  -4672033.668 8  -4389000.91928  21666132.039
  -9839159.989 7  -7855200.04828  22192760.811
   3080939.055 7   1927454.63127  22505038.426
 92  8 26 21  4 30.0020000  0  4G20G 3G17G16
    533134.156 7   1167720.83627  22396060.300
  -4700468.861 7  -4411158.19828  21660716.588
  -9893202.327 7  -7897310.91128  22182474.333
   3141490.842 7   1974637.83627  22516561.998
 92  8 26 21  5  0.0020000  0  4G20G 3G17G16
    629716.079 7   1242979.43827  22414441.025
  -4728671.282 8  -4433134.09728  21655354.440
  -9946956.274 7  -7939197.04928  22172244.275
   3202541.828 7   2022210.03127  22528180.635
 92  8 26 21  5 30.0020000  0  4G20G 3G17G16
    726685.013 7   1318539.61727  22432890.973
  -4756646.634 7  -4454933.05328  21650023.591
 -10000426.181 7  -7980861.86728  22162070.038
   3264090.995 7   2070170.43027  22539899.222
 92  8 26 21  6  0.0020000  0  4G20G 3G17G16
    824032.311 7   1394394.63327  22451420.275
  -4784400.154 7  -4476559.14529  21644744.875
 -10053605.540 7  -8022300.27628  22151947.936
   3326125.438 7   2118508.96827  22551694.707
 92  8 26 21  6 30.0020000  0  4G20G 3G17G16
    921760.221 7   1470546.20927  22470013.793
  -4811925.686 7  -4498007.59229  21639507.920
 -10106471.921 7  -8063494.79728  22141890.198
   3388654.026 7   2167232.54627  22563598.836
 92  8 26 21  7  0.0020000  0  4G20G 3G17G16
   1019862.689 7   1546989.65327  22488684.688
  -4839225.184 7  -4519279.91429  21634311.678
 -10159012.715 7  -8104435.61628  22131892.660
   3451678.338 7   2216342.41427  22575588.885
 92  8 26 21  7 30.0020000  0  4G20G 3G17G16
   1118342.738 7   1623727.30827  22507427.922
  -4866291.490 7  -4540370.51629  21629162.982
 -10211226.500 7  -8145121.64428  22121957.358
   3515217.442 7   2265853.41627  22587681.404
 92  8 26 21  8  0.0020000  0  4G20G 3G17G16
   1217191.514 7   1700752.30427  22526238.250
  -4893129.397 7  -4561283.15129  21624056.857
 -10263122.752 7  -8185560.22228  22112081.055
   3579265.137 7   2315760.72027  22599867.098
 92  8 26 21  8 30.0020000  0  4G20G 3G17G16
   1316408.798 6   1778064.43627  22545112.643
  -4919736.065 7  -4582015.60429  21618994.651
 -10314711.600 7  -8225759.25828  22102261.892
   3643824.210 7   2366066.49527  22612155.321
 92  8 26 21  9  0.0020000  0  4G20G 3G17G16
  -2233462.78316     57924.53531  22564066.272
  -4946108.260 7  -4602565.33729  21613973.248
 -10365998.693 7  -8265723.18328  22092503.588
   3708891.671 7   2416768.40127  22624532.792
 92  8 26 21  9 30.0020000  0  4G20G 3G17G16
  -2133511.425 6    135808.69121  22583081.478
  -4972242.774 7  -4622929.86529  21609003.018
 -10416985.899 7  -8305453.41928  22082800.265
   3774458.999 7   2467859.82227  22637014.051
 92  8 26 21 10  0.0020000  0  4G20G 3G17G16
  -2033194.826 6    213978.03525  22602178.767
  -4998136.721 7  -4643106.95329  21604070.203
 -10467668.215 7  -8344946.09028  22073158.940
   3840508.031 7   2519326.60627  22649580.961
 92  8 26 21 10 30.0020000  0  4G20G 3G17G16
  -1932517.458 6    292427.88825  22621335.685
  -5023790.803 8  -4663097.12529  21599194.709
 -10518060.785 7  -8384212.97528  22063562.913
   3907034.609 7   2571165.49627  22662239.548
 92  8 26 21 11  0.0020000  0  4G20G 3G17G16
  -1831485.992 6    371153.67225  22640561.405
  -5049207.477 7  -4682902.32329  21594354.679
 -10568163.764 7  -8423254.23428  22054030.323
   3974036.960 7   2623375.13027  22674994.128
 92  8 26 21 11 30.0020000  0  4G20G 3G17G16
  -1730102.406 6    450153.81726  22659848.943
  -5074384.741 7  -4702520.94629  21589566.034
 -10617977.817 7  -8462070.33128  22044553.733
   4041516.213 7   2675956.34827  22687832.680
 92  8 26 21 12  0.0020000  0  4G20G 3G17G16
  -1628370.178 6    529425.65926  22679210.739
  -5099322.308 7  -4721952.80629  21584820.080
 -10667507.062 7  -8500664.48828  22035127.179
   4109466.831 7   2728904.87927  22700765.637
 92  8 26 21 12 30.0020000  0  4G20G 3G17G16
  -1526295.326 6    608964.46326  22698639.239
  -5124021.737 7  -4741199.10529  21580116.636
 -10716752.299 7  -8539037.36328  22025756.026
   4177891.634 7   2782222.90227  22713780.437
 92  8 26 21 13  0.0020000  0  4G20G 3G17G16
  -1423877.417 6    688770.56926  22718127.638
  -5148478.960 7  -4760256.65029  21575465.956
 -10765687.976 7  -8577169.02928  22016441.864
   4246780.743 7   2835902.71827  22726895.997
 92  8 26 21 13 30.0020000  0  4G20G 3G17G16
  -1321122.127 6    768839.59826  22737684.958
  -5172695.096 7  -4779126.35729  21570854.758
 -10814315.065 7  -8615060.21228  22007190.899
   4316119.230 7   2889932.70627  22740090.343
 92  8 26 21 14  0.0020000  0  4G20G 3G17G16
  -1218022.330 6    849177.04926  22757299.899
  -5196659.241 7  -4797799.69729  21566294.495
 -10862614.612 7  -8652696.16128  21998001.450
   4385917.888 7   2944321.27027  22753368.871
 92  8 26 21 14 30.0020000  0  4G20G 3G17G16
  -1114524.290 6    929824.82126  22776992.786
  -5220313.582 7  -4816231.62929  21561794.011
 -10910521.030 7  -8690025.80028  21988884.102
   4456243.061 7   2999120.09227  22766752.355
 92  8 26 21 15  0.0020000  0  4G20G 3G17G16
  -1010651.078 6   1010764.94126  22796763.079
  -5243676.724 7  -4834436.65029  21557347.789
 -10958053.235 7  -8727063.86128  21979842.362
   4527072.603 6   3054311.94327  22780230.305
 92  8 26 21 15 30.0020000  0  4G20G 3G17G16
   -906449.196 6   1091961.16527  22816592.732
  -5266791.606 8  -4852448.22229  21552951.662
 -11005271.545 7  -8763857.29628  21970853.595
   4598378.771 7   3109875.17127  22793799.841
 92  8 26 21 16  0.0020000  0  4G20G 3G17G16
   -801918.728 6   1173413.42826  22836484.321
  -5289653.865 7  -4870262.96129  21548599.095
 -11052178.311 7  -8800407.99028  21961927.154
   4670170.054 7   3165816.43627  22807463.482
 92  8 26 21 16 30.0020000  0  4G20G 3G17G16
   -697056.131 7   1255124.47526  22856436.348
  -5312255.950 7  -4887874.94229  21544300.011
 -11098775.249 7  -8836717.24328  21953058.244
   4742440.605 7   3222131.12927  22821215.921
 92  8 26 21 17  0.0020000  0  4G20G 3G17G16
   -591866.071 7   1337090.72626  22876456.729
  -5334597.837 7  -4905284.19729  21540047.006
 -11145072.057 7  -8872792.63028  21944251.361
   4815180.848 7   3278811.83927  22835058.268
 92  8 26 21 17 30.0020000  0  4G20G 3G17G16
   -486353.539 6   1419308.22526  22896530.292
  -5356681.078 7  -4922491.88329  21535845.714
 -11191074.902 7  -8908638.94529  21935493.044
   4888384.035 6   3335853.28327  22848986.596
 92  8 26 21 18  0.0020000  0  4G20G 3G17G16
   -380524.478 6   1501772.35826  22916666.092
  -5378506.914 7  -4939499.03129  21531691.190
 -11236775.163 7  -8944249.51029  21926801.941
   4962039.892 6   3393247.43927  22863003.332
 92  8 26 21 18 30.0020000  0  3G 3G17G16
  -5400070.212 7  -4956301.56529  21527588.141
 -11282166.596 7  -8979619.42129  21918162.222
   5036152.456 6   3450997.47027  22877106.409
 92  8 26 21 19  0.0020000  0  4G20G 3G17G16
    -17690.42916     40959.30031  22957126.772
  -5421366.306 7  -4972895.91929  21523533.388
 -11327256.510 7  -9014754.37929  21909583.151
   5110728.747 7   3509108.86127  22891300.922
 92  8 26 21 19 30.0020000  0  4G20G 3G17G16
     89084.512 6    124154.64822  22977449.733
  -5442399.124 7  -4989285.10629  21519534.276
 -11372046.273 7  -9049655.46529  21901054.595
   5185757.561 7   3567572.85927  22905576.140
 92  8 26 21 20  0.0020000  0  5G20G 3G17G16G23
    196162.011 6    207591.65225  22997822.009
  -5463171.668 7  -5005471.47829  21515577.855
 -11416535.746 7  -9084322.54429  21892586.508
   5261226.060 7   3626379.47127  22919942.074
   -595270.67315   -173202.87231  24685496.876
 92  8 26 21 20 30.0020000  0  5G20G 3G17G16G23
    303542.016 6    291264.31425  23018258.711
  -5483680.163 7  -5021452.12329  21511677.136
 -11460726.903 7  -9118757.18329  21884186.923
   5337123.018 7   3685519.94527  22934375.192
   -691732.907 5   -248370.33423  24667120.858
 92  8 26 21 21  0.0020000  0  4G 3G17G16G23
  -5503920.476 7  -5037223.77029  21507828.940
 -11504609.889 7  -9152951.65929  21875831.947
   5413442.440 7   3744989.61427  22948900.197
    355619.56415    -14653.47131  24648811.513
 92  8 26 21 21 30.0020000  0  5G20G 3G17G16G23
   -309962.05216     97760.51931  23059302.667
  -5523893.544 8  -5052787.18729  21504026.073
 -11548169.285 7  -9186894.02029  21867544.064
   5490184.025 7   3804788.26227  22963506.385
    259391.071 5    -89636.58223  24630474.407
 92  8 26 21 22  0.0020000  0  5G20G 3G17G16G23
   -201678.426 6    182149.20021  23079905.394
  -5543587.272 8  -5068132.93329  21500276.568
 -11591405.443 7  -9220584.47629  21859320.218
   5567369.203 6   3864932.55527  22978187.971
    163284.161 5   -164524.94424  24612196.781
 92  8 26 21 22 30.0020000  0  5G20G 3G17G16G23
    -93093.939 6    266761.68724  23100562.713
  -5563001.496 8  -5083260.89029  21496582.855
 -11634324.082 7  -9254027.53929  21851149.194
   5645002.939 7   3925426.37127  22992965.431
     67302.697 5   -239315.54225  24593932.765
 92  8 26 21 23  0.0020000  0  5G20G 3G17G16G23
     15788.198 6    351604.83825  23121282.299
  -5582134.683 7  -5098169.84029  21492938.998
 -11676921.032 7  -9287219.92529  21843040.618
   5723083.055 7   3986268.01027  23007826.803
    -28552.730 5   -314007.90625  24575691.653
 92  8 26 21 23 30.0020000  0  5G20G 3G17G16G23
    124968.174 6    436680.10425  23142065.232
  -5600982.877 8  -5112856.73729  21489357.737
 -11719192.418 7  -9320158.63229  21835000.334
   5801614.246 7   4047461.14127  23022768.669
   -124285.349 5   -388604.56925  24557461.183
 92  8 26 21 24  0.0020000  0  5G20G 3G17G16G23
    234440.982 6    521983.54225  23162903.536
  -5619546.611 8  -5127321.96329  21485824.533
 -11761129.845 7  -9352837.10429  21827019.379
   5880574.737 7   4108988.79627  23037796.425
   -219892.395 5   -463103.40525  24539287.974
 92  8 26 21 24 30.0020000  0  5G20G 3G17G16G23
    344209.893 6    607517.68026  23183774.067
  -5637817.736 8  -5141559.19529  21482345.652
 -11802707.533 7  -9385235.27329  21819107.076
   5959963.685 7   4170850.29527  23052896.492
   -315353.255 5   -537488.25825  24521115.635
 92  8 26 21 25  0.0020000  0  5G20G 3G17G16G23
    454269.084 6    693278.05726  23204722.395
  -5655798.714 7  -5155570.33229  21478926.698
 -11843925.889 7  -9417353.43829  21811263.247
   6039785.237 7   4233048.89927  23068090.783
   -410667.394 5   -611758.82425  24502981.429
 92  8 26 21 25 30.0020000  0  5G20G 3G17G16G23
    564610.443 6    779258.27726  23225726.004
  -5673492.714 7  -5169357.86129  21475556.222
 -11884798.446 7  -9449202.15429  21803482.163
   6120045.863 7   4295589.65227  23083366.978
   -505836.527 5   -685916.39825  24484870.217
 92  8 26 21 26  0.0020000  0  5G20G 3G17G16G23
    675224.446 6    865450.94726  23246772.364
  -5690905.566 8  -5182926.30329  21472242.706
 -11925350.450 7  -9480801.08029  21795766.225
   6200740.536 7   4358468.60527  23098713.084
   -600847.472 5   -759950.75325  24466792.852
 92  8 26 21 26 30.0020000  0  6G20G 3G17G26G16G23
    786102.699 6    951849.53126  23267870.828
  -5708040.631 7  -5196278.30429  21468980.364
 -11965611.627 7  -9512173.38229  21788106.708
  -1629040.76215   -131458.81832  24949673.810
   6281869.853 7   4421686.24126  23114162.378
   -695706.824 5   -833866.92025  24448735.603
 92  8 26 21 27  0.0020000  0  6G20G 3G17G26G16G23
    897247.289 6   1038455.65226  23289019.957
  -5724891.707 8  -5209408.99829  21465777.202
 -12005587.880 7  -9543323.68429  21780498.245
  -1692758.325 5   -181108.76325  24937550.953
   6363429.065 6   4485238.86726  23129669.293
   -790414.451 5   -907664.87325  24430708.363
 92  8 26 21 27 30.0020000  0  6G20G 3G17G26G16G23
   1008649.617 6   1125262.60126  23310213.125
  -5741463.035 8  -5222321.70929  21462621.017
 -12045287.594 7  -9574258.49429  21772944.104
  -1756293.656 5   -230616.65825  24925457.145
   6445387.874 6   4549102.88426  23145274.660
   -884973.407 5   -981347.01525  24412716.468
 92  8 26 21 28  0.0020000  0  6G20G 3G17G26G16G23
   1120310.405 6   1212270.93826  23331466.852
  -5757749.953 7  -5235012.80829  21459524.161
 -12084698.899 7  -9604968.58929  21765441.918
  -1819652.315 5   -279986.90925  24913411.184
   6527723.733 6   4613260.68626  23160943.313
   -979383.581 5  -1054913.19525  24394746.668
 92  8 26 21 28 30.0020000  0  6G20G 3G17G26G16G23
   1232226.174 6   1299477.95526  23352768.845
  -5773750.914 8  -5247481.07329  21456476.500
 -12123800.759 7  -9635437.54629  21758001.669
  -1882840.249 5   -329224.12725  24901389.267
   6610431.698 6   4677708.44926  23176679.239
  -1073651.026 5  -1128368.14125  24376820.668
 92  8 26 21 29  0.0020000  0  6G20G 3G17G26G16G23
   1344396.059 6   1386882.99326  23374109.391
  -5789462.365 8  -5259723.75329  21453488.679
 -12162574.235 7  -9665650.61529  21750624.586
  -1945854.696 5   -378326.20725  24889390.224
   6693512.462 6   4742446.69526  23192489.364
  -1167772.058 5  -1201709.03625  24358899.525
 92  8 26 21 29 30.0020000  0  6G20G 3G17G26G16G23
   1456814.768 6   1474481.94526  23395505.369
  -5804885.634 8  -5271741.86329  21450553.831
 -12201016.156 7  -9695605.31729  21743307.461
  -2008703.078 5   -427298.74925  24877421.010
   6776967.409 6   4807476.50526  23208367.092
  -1261750.646 5  -1274938.92325  24341018.164
 92  8 26 21 30  0.0020000  0  6G20G 3G17G26G16G23
   1569476.860 6   1562270.51426  23416947.844
  -5820021.514 8  -5283536.06029  21447672.405
 -12239117.236 7  -9725294.44829  21736058.960
  -2071379.532 5   -476137.47025  24865500.092
   6860815.615 6   4872812.76826  23224322.616
  -1355588.416 5  -1348059.09825  24323159.227
 92  8 26 21 30 30.0020000  0  6G20G 3G17G26G16G23
   1682381.001 6   1650247.70026  23438429.053
  -5834866.849 8  -5295103.84029  21444845.123
 -12276875.441 7  -9754716.39429  21728878.361
  -2133869.124 5   -524830.57025  24853617.159
   6945078.604 6   4938472.22226  23240357.765
  -1449280.675 5  -1421065.93825  24305334.797
 92  8 26 21 31  0.0020000  0  6G20G 3G17G26G16G23
   1795525.279 6   1738412.00826  23459961.407
  -5849419.832 8  -5306443.81629  21442074.950
 -12314305.699 7  -9783882.81129  21721753.283
  -2196155.070 5   -573364.95025  24841755.840
   7029756.579 6   5004455.06526  23256479.314
  -1542824.704 5  -1493957.22525  24287539.506
 92  8 26 21 31 30.0020000  0  6G20G 3G17G26G16G23
   1908905.618 6   1826760.24826  23481540.768
  -5863679.728 8  -5317555.41429  21439367.675
 -12351417.550 7  -9812801.11629  21714690.892
  -2258226.000 5   -621731.76825  24829951.602
   7114852.168 7   5070763.31526  23272671.735
  -1636216.215 5  -1566729.69425  24269755.968
 92  8 26 21 32  0.0020000  0  6G20G 3G17G26G16G23
   2022525.694 6   1915295.31526  23503151.877
  -5877638.447 8  -5328432.32029  21436711.364
 -12388216.227 7  -9841475.38829  21707685.552
  -2320061.956 5   -669915.51525  24818182.320
   7200368.940 6   5137399.73326  23288942.820
  -1729444.214 5  -1639374.76425  24252026.272
 92  8 26 21 32 30.0020000  0  6G20G 3G17G26G16G23
   2136381.013 6   2004013.66826  23524819.766
  -5891296.177 8  -5339074.70729  21434110.454
 -12424726.150 7  -9869924.65629  21700739.091
  -2381651.611 5   -717907.33625  24806467.990
   7286290.929 6   5204351.93526  23305287.445
  -1822512.888 5  -1711895.68225  24234299.753
 92  8 26 21 33  0.0020000  0  6G20G 3G17G26G16G23
   2250470.036 6   2092914.15626  23546529.327
  -5904650.028 8  -5349480.27729  21431571.122
 -12460955.487 7  -9898155.27229  21693846.023
  -2442995.882 5   -765707.96025  24794781.930
   7372603.623 6   5271608.55826  23321712.744
  -1915418.262 6  -1784289.32325  24216629.626
 92  8 26 21 33 30.0020000  0  6G20G 3G17G26G16G23
   2364790.486 6   2181994.95126  23568285.685
  -5917697.866 8  -5359647.42129  21429088.960
 -12496889.809 7  -9926156.03729  21687009.166
  -2504107.007 5   -813326.94725  24783161.374
   7459296.736 6   5339161.64026  23338215.749
  -2008163.763 5  -1856558.43125  24198982.223
 92  8 26 21 34  0.0020000  0  6G20G 3G17G26G16G23
   2479335.290 6   2271250.57726  23590089.081
  -5930442.389 8  -5369578.20429  21426662.500
 -12532526.803 7  -9953925.10529  21680229.240
  -2564991.930 5   -860769.66225  24771570.738
   7546356.736 6   5407000.56826  23354782.670
  -2100744.861 5  -1928699.47125  24181360.752
 92  8 26 21 34 30.0020000  0  6G20G 3G17G26G16G23
   2594102.536 6   2360679.53126  23611921.557
  -5942880.865 8  -5379270.50329  21424292.401
 -12567849.974 7  -9981449.61929  21673505.524
  -2625653.537 5   -908038.36825  24760023.572
   7633771.216 6   5475115.74926  23371420.013
  -2193154.567 5  -2000706.89025  24163778.494
 92  8 26 21 35  0.0020000  0  6G20G 3G17G26G16G23
   2709092.933 6   2450282.35626  23633808.385
  -5955008.439 8  -5388720.56129  21421986.817
 -12602826.405 7 -10008703.96329  21666845.275
  -2686109.887 5   -955147.11725  24748527.821
   7721540.439 6   5543507.31326  23388113.356
  -2285380.422 5  -2072571.09025  24146225.406
 92  8 26 21 35 30.0020000  0  6G20G 3G17G26G16G23
   2824306.289 6   2540058.98126  23655734.786
  -5966820.969 8  -5397925.11329  21419740.053
 -12637436.970 7 -10035673.21629  21660258.895
  -2746347.337 5  -1002085.28925  24737059.950
   7809679.466 6   5612187.06526  23404892.440
  -2377407.286 6  -2144280.20425  24128719.025
 92  8 26 21 36  0.0020000  0  6G20G 3G17G26G16G23
   2939738.379 6   2630005.98026  23677691.285
  -5978317.686 8  -5406883.59029  21417549.649
 -12671700.311 7 -10062371.91529  21653740.208
  -2806348.737 5  -1048839.54125  24725647.720
   7898198.719 6   5681163.08826  23421732.622
  -2469222.738 5  -2215824.60325  24111239.806
 92  8 26 21 36 30.0020000  0  6G20G 3G17G26G16G23
   3055383.234 6   2720118.76026  23699699.859
  -5989500.845 8  -5415597.72629  21415420.823
 -12705620.850 7 -10088803.46929  21647288.824
  -2866118.255 5  -1095413.13625  24714252.099
   7987099.581 6   5750436.45426  23438661.183
  -2560835.498 5  -2287211.02825  24093809.783
 92  8 26 21 37  0.0020000  0  6G20G 3G17G26G16G23
   3171238.296 6   2810395.36626  23721753.162
  -6000367.929 7  -5424065.59629  21413352.704
 -12739212.068 8 -10114978.42029  21640897.698
  -2925649.036 5  -1141800.67025  24702932.416
   8076394.416 6   5820016.82626  23455643.076
  -2652241.149 6  -2358436.14525  24076427.396
 92  8 26 21 37 30.0020000  0  6G20G 3G17G26G16G23
   3287297.223 6   2900830.83226  23743837.283
  -6010921.258 8  -5432288.95329  21411347.573
 -12772508.921 7 -10140923.99829  21634555.619
  -2984921.734 5  -1187987.15925  24691667.594
   8166074.988 6   5889897.75926  23472715.597
  -2743446.740 5  -2429505.32825  24059054.033
 92  8 26 21 38  0.0020000  0  6G20G 3G17G26G16G23
   3403551.198 6   2991418.26026  23765954.022
  -6021165.433 8  -5440271.41829  21409398.772
 -12805530.144 7 -10166654.80929  21628273.828
  -3043943.564 5  -1233978.12125  24680428.075
   8256110.329 6   5960055.15426  23489841.961
  -2834473.561 6  -2500435.19025  24041735.803
 92  8 26 21 38 30.0020000  0  6G20G 3G17G26G16G23
   3519996.013 6   3082154.40526  23788110.034
  -6031100.178 7  -5448012.77829  21407504.713
 -12838261.166 7 -10192159.48729  21622048.997
  -3102720.958 5  -1279778.62225  24669243.028
   8346481.619 6   6030474.31426  23507038.956
  -2925331.551 5  -2571233.50425  24024443.054
 92  8 26 21 39  0.0020000  0  6G20G 3G17G26G16G23
   3636630.482 6   3173038.34625  23810311.614
  -6040721.719 7  -5455510.07329  21405676.249
 -12870697.125 7 -10217434.22029  21615875.341
  -3161236.879 5  -1325375.35125  24658114.373
   8437177.086 6   6101146.09426  23524304.303
  -3016010.877 6  -2641892.60025  24007195.335
 92  8 26 21 39 30.0020000  0  6G20G 3G17G26G16G23
   3753455.209 6   3264070.52725  23832537.777
  -6050025.148 8  -5462759.48829  21403905.734
 -12902818.161 7 -10242463.59129  21609760.474
  -3219488.479 5  -1370766.16125  24647027.118
   8528193.331 6   6172067.79726  23541621.784
  -3106510.818 5  -2712411.93925  23989967.731
 92  8 26 21 40  0.0020000  0  6G20G 3G17G26G16G23
   3870473.964 6   3355253.88426  23854805.102
  -6059002.253 8  -5469754.64429  21402196.947
 -12934592.578 7 -10267222.87129  21603716.688
  -3277478.417 5  -1415953.05025  24635993.107
   8619549.068 6   6243254.06226  23559005.910
  -3196817.674 6  -2782780.80525  23972795.139
 92  8 26 21 40 30.0020000  0  6G20G 3G17G26G16G23
   3987683.445 6   3446585.84526  23877109.661
  -6067651.800 8  -5476494.52629  21400554.954
 -12966004.883 7 -10291699.95029  21597737.477
  -3335217.624 5  -1460944.55625  24624999.867
   8711260.942 6   6314717.83426  23576453.861
  -3286925.087 6  -2852994.28025  23955636.998
 92  8 26 21 41  0.0020000  0  6G20G 3G17G26G16G23
   4105079.632 6   3538063.31926  23899453.163
  -6075973.749 7  -5482979.16429  21398966.953
 -12997059.598 7 -10315898.42529  21591826.679
  -3392696.282 5  -1505733.03925  24614067.546
   8803333.500 6   6386462.63026  23593974.391
  -3376828.408 6  -2923048.68225  23938540.074
 92  8 26 21 41 30.0020000  0  6G20G 3G17G26G16G23
   4222651.616 6   3629677.79225  23921832.370
  -6083974.101 7  -5489213.19629  21397443.348
 -13027780.501 7 -10339836.76829  21585980.397
  -3449927.452 5  -1550328.71125  24603176.895
   8895766.703 6   6458488.50326  23611568.911
  -3466544.749 5  -2992957.39625  23921461.437
 92  8 26 21 42  0.0020000  0  6G20G 3G17G26G16G23
   4340398.620 6   3721428.61025  23944230.734
  -6091649.969 8  -5495194.38329  21395987.166
 -13058177.187 7 -10363522.48029  21580194.822
  -3506900.499 5  -1594723.19825  24592331.543
   8988557.909 6   6530793.29126  23629222.580
  -3556067.271 5  -3062715.08625  23904412.270
 92  8 26 21 42 30.0020000  0  6G20G 3G17G26G16G23
   4458317.996 6   3813313.76525  23966681.652
  -6098999.073 7  -5500920.95029  21394586.626
 -13088265.256 7 -10386967.70829  21574474.062
  -3563589.156 5  -1638896.11625  24581550.796
   9081691.019 6   6603364.51826  23646946.340
  -3645385.944 6  -3132313.96325  23887435.053
 92  8 26 21 43  0.0020000  0  6G20G 3G17G26G16G23
   4576404.346 6   3905329.05326  23989137.995
  -6106022.274 7  -5506393.57729  21393249.701
 -13118068.141 7 -10410190.73429  21568804.357
  -3619971.334 5  -1682830.19125  24570809.832
   9175149.331 6   6676189.14126  23664731.467
  -3734486.644 6  -3201742.98525  23870478.132
 92  8 26 21 43 30.0020000  0  6G20G 3G17G26G16G23
   4694654.793 6   3997472.12226  24011641.916
  -6112718.277 7  -5511611.23029  21391976.003
 -13147579.023 8 -10433186.19129  21563187.776
  -3676051.853 5  -1726529.21125  24560144.746
   9268928.175 6   6749263.53626  23682577.783
  -3823358.237 6  -3270993.47525  23853558.805
 92  8 26 21 44  0.0020000  0  6G20G 3G17G26G16G23
   4813061.980 6   4089737.34826  24034176.236
  -6119090.144 8  -5516576.29629  21390761.754
 -13176788.239 7 -10455946.59929  21557626.206
  -3731829.996 5  -1769992.61825  24549526.906
   9363018.678 6   6822580.77126  23700481.028
  -3911994.582 6  -3340060.65325  23836692.121
 92  8 26 21 44 30.0020000  0  6G20G 3G17G26G16G23
   4931631.546 6   4182129.16325  24056741.584
  -6125127.098 7  -5521280.40429  21389615.138
 -13205681.087 7 -10478460.49029  21552126.423
  -3787300.097 5  -1813216.01625  24538973.372
   9457428.473 6   6896146.82226  23718446.241
  -4000387.601 6  -3408938.20025  23819871.666
 92  8 26 21 45  0.0020000  0  6G20G 3G17G26G16G23
   5050360.416 6   4274645.08525  24079333.764
  -6130828.079 7  -5525722.72729  21388529.109
 -13234256.535 7 -10500727.04929  21546686.419
  -3842484.746 5  -1856216.94525  24528469.574
   9552160.310 6   6969963.82326  23736477.229
  -4088548.896 6  -3477635.23126  23803095.490
 92  8 26 21 45 30.0020000  0  6G20G 3G17G26G16G23
   5169235.640 6   4367275.04925  24101955.593
  -6136201.775 7  -5529910.00429  21387506.367
 -13262521.676 7 -10522751.80829  21541308.862
  -3897410.683 5  -1899016.25625  24518013.832
   9647211.756 6   7044029.82826  23754560.680
  -4176503.561 6  -3546171.24626  23786364.972
 92  8 26 21 46  0.0020000  0  6G20G 3G17G26G16G23
   5288251.383 6   4460014.51825  24124611.179
  -6141249.448 7  -5533843.24629  21386545.443
 -13290483.605 7 -10544540.31829  21535990.424
  -3952073.913 5  -1941610.92325  24507615.021
   9742579.966 6   7118342.66326  23772713.833
  -4264265.708 6  -3614557.26526  23769653.911
 92  8 26 21 46 30.0020000  0  6G20G 3G17G26G16G23
   5407409.641 6   4552864.99125  24147277.498
  -6145964.738 7  -5537517.49529  21385648.524
 -13318135.773 7 -10566087.44829  21530727.927
  -4006470.814 5  -1983998.02325  24497266.605
   9838257.436 6   7192896.50226  23790919.599
  -4351824.930 6  -3682785.11526  23753001.100
 92  8 26 21 47  0.0020000  0  6G20G 3G17G26G16G23
   5526711.515 6   4645827.41725  24169986.477
  -6150342.153 7  -5540928.44729  21384815.790
 -13345468.787 7 -10587385.86729  21525524.999
  -4060588.603 5  -2026167.62525  24486969.274
   9934251.938 6   7267697.39526  23809183.225
  -4439170.560 6  -3750846.56126  23736370.473
 92  8 26 21 47 30.0020000  0  6G20G 3G17G26G16G23
   5646147.141 6   4738894.03525  24192708.017
  -6154387.157 7  -5544080.38229  21384044.814
 -13372475.615 7 -10608430.13729  21520388.685
  -4114406.625 5  -2068103.68325  24476735.289
  10030551.241 6   7342735.78026  23827503.573
  -4526306.771 6  -3818744.79726  23719796.537
 92  8 26 21 48  0.0020000  0  6G20G 3G17G26G16G23
   5765721.099 6   4832068.45625  24215460.675
  -6158090.558 7  -5546966.13429  21383338.263
 -13399142.372 7 -10629209.41529  21515313.019
  -4167913.749 5  -2109797.44225  24466538.538
  10127150.072 6   7418007.56326  23845895.600
  -4613217.572 6  -3886467.41426  23703253.479
 92  8 26 21 48 30.0020000  0  6G20G 3G17G26G16G23
   5885432.370 6   4925349.90725  24238243.193
  -6161449.272 7  -5549583.31929  21382703.123
 -13425470.681 8 -10649724.95129  21510303.487
  -4221108.547 5  -2151247.81925  24456419.133
  10224042.019 6   7493507.73826  23864334.305
  -4699886.467 6  -3954001.53426  23686756.949
 92  8 26 21 49  0.0020000  0  6G20G 3G17G26G16G23
   6005283.470 5   5018740.26225  24261044.958
  -6164456.036 8  -5551926.23829  21382133.217
 -13451475.810 8 -10669988.67529  21505357.541
  -4273978.706 5  -2192445.25725  24446356.390
  10321238.092 6   7569244.88926  23882821.547
  -4786314.260 6  -4021347.78726  23670317.050
 92  8 26 21 49 30.0020000  0  6G20G 3G17G26G16G23
   6125271.121 5   5112237.05725  24283888.544
  -6167109.918 8  -5553994.19629  21381626.598
 -13477170.814 8 -10690010.74429  21500465.707
  -4326534.927 5  -2233398.06525  24436348.748
  10418718.186 6   7645203.35525  23901373.693
  -4872507.350 6  -4088511.17726  23653913.936
 92  8 26 21 50  0.0030000  0  6G20G 3G17G26G16G23
   6245403.191 5   5205846.34425  24306739.085
  -6169402.447 7  -5555780.56429  21381187.162
 -13502558.316 8 -10709793.19629  21495635.601
  -4378791.502 5  -2274117.34825  24426411.257
  10516491.694 6   7721390.49125  23919985.019
  -4958447.196 6  -4155477.20026  23637556.150
 92  8 26 21 50 30.0030000  0  6G20G 3G17G26G16G23
   6365665.647 6   5299557.21725  24329635.854
  -6171335.513 7  -5557286.84429  21380819.287
 -13527640.605 8 -10729337.81429  21490860.147
  -4430730.813 5  -2314589.41925  24416527.130
  10614555.435 6   7797803.78125  23938632.560
  -5044127.575 6  -4222241.01926  23621245.792
 92  8 26 21 51  0.0030000  0  6G20G 3G17G26G16G23
   6486064.054 5   5393374.09325  24352546.083
  -6172903.103 7  -5558508.33729  21380519.854
 -13552410.206 8 -10748638.79029  21486146.210
  -4482339.493 5  -2354803.86925  24406708.357
  10712918.255 6   7874450.08625  23957363.412
  -5129554.383 6  -4288807.29926  23604997.011
 92  8 26 21 51 30.0030000  0  6G20G 3G17G26G16G23
   6606592.304 5   5487292.07725  24375481.435
  -6174106.996 7  -5559446.43029  21380294.920
 -13576838.469 8 -10767673.78129  21481499.158
  -4533615.582 5  -2394759.16025  24396942.588
  10811576.043 6   7951326.26525  23976125.594
  -5214713.822 6  -4355165.25226  23588794.367
 92  8 26 21 52  0.0030000  0  6G20G 3G17G26G16G23
   6727244.804 5   5581306.91125  24398423.233
  -6174948.196 7  -5560101.91829  21380133.122
 -13600916.967 8 -10786436.22529  21476919.528
  -4584545.725 5  -2434444.89525  24387264.328
  10910544.587 6   8028444.55825  23994966.530
  -5299594.078 6  -4421305.63226  23572643.289
 92  8 26 21 52 30.0030000  0  6G20G 3G17G26G16G23
   6848015.586 5   5675413.92225  24421414.497
  -6175428.723 7  -5560476.32729  21380039.467
 -13624644.514 8 -10804925.21229  21472401.086
  -4635121.108 5  -2473854.18125  24377626.960
  11009820.012 6   8105802.01625  24013858.192
  -5384210.016 6  -4487240.03826  23556535.830
 92  8 26 21 53  0.0030000  0  6G20G 3G17G26G16G23
   6968897.978 6   5769607.87225  24444434.720
  -6175550.477 7  -5560571.21829  21380016.443
 -13648017.552 8 -10823137.96029  21467952.975
  -4685348.394 5  -2512992.21225  24368083.307
  11109390.587 6   8183389.43125  24032805.135
  -5468568.380 6  -4552973.75926  23540477.806
 92  8 26 21 53 30.0030000  0  6G20G 3G17G26G16G23
   7089896.106 5   5863892.03125  24467434.887
  -6175304.974 7  -5560379.89629  21380064.709
 -13671026.561 8 -10841067.04729  21463575.526
  -4735223.791 5  -2551856.07625  24358586.451
  11209264.150 6   8261212.96025  24051811.318
  -5552663.848 6  -4618502.63726  23524481.540
 92  8 26 21 54  0.0030000  0  6G20G 3G17G26G16G23
   7211004.481 6   5958262.07325  24490495.403
  -6174693.242 7  -5559903.24529  21380182.348
 -13693700.658 8 -10858735.16829  21459259.953
  -4784758.575 5  -2590454.48725  24349160.977
  11309435.670 6   8339268.64725  24070878.328
  -5636514.818 6  -4683840.96626  23508528.534
 92  8 26 21 54 30.0030000  0  6G20G 3G17G26G16G23
   7332221.219 5   6052716.57725  24513556.218
  -6173712.842 7  -5559139.28529  21380369.658
 -13716057.405 8 -10876155.98529  21455004.819
  -4833953.045 5  -2628787.75325  24339799.507
  11409890.941 6   8417545.45925  24089985.720
  -5720127.463 6  -4748993.60726  23492614.741
 92  8 26 21 55  0.0030000  0  6G20G 3G17G26G16G23
   7453539.289 5   6147250.00125  24536649.711
  -6172366.609 7  -5558090.25729  21380622.053
 -13738104.497 8 -10893335.51829  21450813.031
  -4882811.078 5  -2666858.84925  24330508.459
  11510619.333 6   8496035.08025  24109157.448
  -5803493.039 6  -4813953.71526  23476755.810
 92  8 26 21 55 30.0030000  0  6G20G 3G17G26G16G23
   7574950.225 5   6241855.82725  24559742.274
  -6170658.463 7  -5556759.23729  21380948.647
 -13759862.637 8 -10910289.89729  21446669.929
  -4931339.501 5  -2704673.13225  24321271.284
  11611617.050 6   8574734.58225  24128373.215
  -5886606.462 6  -4878717.35626  23460930.606
 92  8 26 21 56  0.0030000  0  6G20G 3G17G26G16G23
   7696447.752 6   6336529.10025  24582873.721
  -6168590.581 7  -5555147.90429  21381345.513
 -13781348.514 8 -10927032.12129  21442581.330
  -4979540.641 5  -2742232.38025  24312096.946
  11712864.831 6   8653628.89925  24147641.236
  -5969457.773 6  -4943276.72826  23445170.156
 92  8 26 21 56 30.0030000  0  6G20G 3G17G26G16G23
   7818034.255 5   6431271.73625  24606005.827
  -6166155.927 7  -5553250.74829  21381807.643
 -13802538.434 8 -10943543.73529  21438549.331
  -5027397.884 5  -2779523.65725  24302991.979
  11814358.667 6   8732714.99125  24166956.204
  -6052031.209 6  -5007619.59426  23429459.083
 92  8 26 21 57  0.0030000  0  6G20G 3G17G26G16G23
   7939704.412 5   6526079.51325  24629160.297
  -6163355.561 7  -5551068.64929  21382339.085
 -13823415.571 8 -10959811.61529  21434578.310
  -5074912.201 5  -2816547.72925  24293946.941
  11916099.211 6   8811993.29725  24186314.913
  -6134324.296 6  -5071743.99226  23413802.512
 92  8 26 21 57 30.0030000  0  6G20G 3G17G26G16G23
   8061453.071 5   6620948.47725  24652333.445
  -6160190.139 7  -5548602.08829  21382942.357
 -13843991.145 8 -10975844.50929  21430661.792
  -5122082.081 5  -2853303.38825  24284966.118
  12018081.339 6   8891459.82825  24205721.618
  -6216338.353 6  -5135650.97926  23398184.014
 92  8 26 21 58  0.0030000  0  6G20G 3G17G26G16G23
   8183276.126 5   6715875.39425  24675510.639
  -6156659.728 7  -5545851.10529  21383611.164
 -13864248.438 8 -10991629.40729  21426809.189
  -5168902.331 5  -2889786.63725  24276061.053
  12120302.147 6   8971112.39825  24225173.022
  -6298085.132 6  -5199349.70226  23382636.028
 92  8 26 21 58 30.0030000  0  6G20G 3G17G26G16G23
   8305166.124 5   6810854.51825  24698716.015
  -6152767.423 7  -5542818.12429  21384352.761
 -13884176.816 8 -11007157.99829  21423011.927
  -5215362.832 5  -2925989.57625  24267222.811
  12222768.088 6   9050955.93225  24244669.125
  -6379577.621 6  -5262850.25626  23367126.655
 92  8 26 21 59  0.0030000  0  6G20G 3G17G26G16G23
   8427115.971 5   6905880.22225  24721909.009
  -6148516.193 7  -5539505.47629  21385162.560
 -13903790.997 8 -11022441.75629  21419277.563
  -5261459.296 6  -2961908.84325  24258452.233
  12325471.791 6   9130984.75125  24264215.203
  -6460833.002 6  -5326166.04626  23351661.291
 92  8 26 21 59 30.0030000  0  6G20G 3G17G26G16G23
   8549124.042 5   7000951.29925  24745138.967
  -6143903.221 7  -5535910.94429  21386040.262
 -13923091.431 8 -11037481.05429  21415610.202
  -5307183.411 6  -2997537.95225  24249752.406
  12428423.006 6   9211206.45725  24283808.050
  -6541855.493 6  -5389300.38026  23336250.490
 92  8 26 22  0  0.0030000  0  6G20G 3G17G26G16G23
   8671190.766 5   7096068.11525  24768338.346
  -6138923.772 7  -5532030.82829  21386987.367
 -13942057.671 8 -11052259.91929  21412001.480
  -5352523.624 5  -3032867.94925  24241113.346
  12531627.091 6   9291625.21125  24303451.171
  -6622644.160 6  -5452252.54426  23320868.199
 92  8 26 22  0 30.0030000  0  6G20G 3G17G26G16G23
   8793314.657 5   7191229.47425  24791592.048
  -6133574.862 7  -5527862.85529  21388003.483
 -13960699.952 8 -11066786.36129  21408451.188
  -5397483.198 6  -3067901.28025  24232563.026
  12635086.573 6   9372242.92825  24323137.462
  -6703185.321 6  -5515011.81926  23305541.729
 92  8 26 22  1  0.0030000  0  6G20G 3G17G26G16G23
   8915491.974 5   7286432.46425  24814852.885
  -6127856.196 7  -5523406.72629  21389096.497
 -13979022.138 8 -11081063.38229  21404968.469
  -5442085.203 6  -3102656.05025  24224078.240
  12738803.944 6   9453061.65425  24342870.611
  -6783462.436 6  -5577565.32826  23290269.192
 92  8 26 22  1 30.0030000  0  6G20G 3G17G26G16G23
   9037715.758 5   7381671.63625  24838097.773
  -6121770.713 7  -5518664.79429  21390251.417
 -13997026.688 8 -11095092.89029  21401540.222
  -5486339.972 5  -3137140.20825  24215655.690
  12842774.179 6   9534077.39625  24362657.813
  -6863448.089 6  -5639891.73826  23275049.778
 92  8 26 22  2  0.0030000  0  6G20G 3G17G26G16G23
   9159979.484 5   7476941.93925  24861378.936
  -6115320.157 7  -5513638.37129  21391479.367
 -14014725.782 8 -11108884.36829  21398170.525
  -5530261.605 6  -3171364.81325  24207297.357
  12946964.507 6   9615264.61525  24382486.836
  -6943133.610 6  -5701984.28226  23259885.197
 92  8 26 22  2 30.0030000  0  6G20G 3G17G26G16G23
   9282286.675 5   7572246.10725  24884656.051
  -6108497.099 7  -5508321.69729  21392779.507
 -14032129.487 8 -11122445.69029  21394860.306
  -5573844.953 6  -3205325.72825  24199001.140
  13051367.265 6   9696617.36825  24402352.913
  -7022512.612 6  -5763837.98626  23244780.633
 92  8 26 22  3  0.0030000  0  6G20G 3G17G26G16G23
   9404642.988 5   7667588.57125  24907922.314
  -6101291.717 7  -5502707.10129  21394149.079
 -14049231.453 8 -11135771.88629  21391607.528
  -5617061.734 6  -3239001.11925  24190769.769
  13155963.958 6   9778121.24825  24422260.751
  -7101578.940 6  -5825448.03026  23229736.448
 92  8 26 22  3 30.0030000  0  6G20G 3G17G26G16G23
   9527036.011 5   7762959.61825  24931224.462
  -6093711.961 7  -5496800.78229  21395588.982
 -14066050.474 8 -11148877.61129  21388401.488
  -5659896.826 6  -3272379.02625  24182624.767
  13260721.135 6   9859750.18125  24442187.596
  -7180358.583 6  -5886834.71526  23214742.508
 92  8 26 22  4  0.0030000  0  6G20G 3G17G26G16G23
   9649467.147 5   7858360.36625  24954517.677
  -6085751.963 7  -5490598.17729  21397108.780
 -14082575.314 8 -11161754.09129  21385258.763
  -5702338.043 5  -3305450.01725  24174547.759
  13365657.110 5   9941518.46025  24462155.662
  -7258871.476 6  -5948013.51426  23199800.282
 92  8 26 22  4 30.0030000  0  6G20G 3G17G26G16G23
     -4079.94015     32624.66831  24977831.367
  -6077399.121 7  -5484089.46529  21398696.361
 -14098786.326 8 -11174386.02229  21382176.807
  -5744356.952 5  -3338191.93225  24166546.778
  13470806.540 5  10023453.03525  24482165.340
  -7337110.260 6  -6008978.73626  23184907.582
 92  8 26 22  5  0.0030000  0  6G20G 3G17G26G16G23
    118448.153 5    128101.91022  25001140.561
  -6068645.851 7  -5477268.71829  21400364.226
 -14114666.061 8 -11186759.83829  21379153.940
  -5785956.438 6  -3370607.06625  24158638.133
  13576184.298 5  10105565.53425  24502223.644
  -7415064.514 6  -6069722.24626  23170075.411
 92  8 26 22  5 30.0030000  0  6G20G 3G17G26G16G23
    241028.337 5    223618.76424  25024454.011
  -6059485.953 7  -5470131.13729  21402103.472
 -14130199.163 8 -11198863.55229  21376198.975
  -5827150.910 6  -3402706.57825  24150801.258
  13681826.956 6  10187884.44025  24522325.417
  -7492723.452 6  -6130235.65526  23155301.368
 92  8 26 22  6  0.0030000  0  6G20G 3G17G26G16G23
    363655.284 5    319172.08025  25047807.274
  -6049920.902 7  -5462677.84029  21403924.711
 -14145383.758 8 -11210695.69029  21373307.477
  -5867955.866 6  -3434502.57026  24143038.882
  13787742.306 6  10270415.87225  24542479.235
  -7570068.548 6  -6190504.48426  23140580.120
 92  8 26 22  6 30.0030000  0  6G20G 3G17G26G16G23
   -396322.40715     42556.31231  25071147.945
  -6039949.861 7  -5454908.18929  21405821.588
 -14160238.505 7 -11222270.80429  21370482.953
   4406803.46316    -13010.76331  24135342.430
  13893900.274 6  10353136.32625  24562680.720
   7948235.47916    -26966.65131  23125929.922
 92  8 26 22  7  0.0030000  0  6G20G 3G17G26G16G23
   -273622.564 5    138166.88223  25094495.812
  -6029582.219 7  -5446829.51929  21407793.833
 -14174777.173 7 -11233599.62529  21367716.767
   4366755.798 6    -44215.81522  24127724.434
  14000282.789 6  10436031.76825  24582926.814
   7871568.844 6    -86703.31021  23111339.203
 92  8 26 22  7 30.0030000  0  6G20G 3G17G26G16G23
   -150905.600 5    233790.35125  25117841.011
  -6018826.071 7  -5438448.09129  21409838.957
 -14189012.391 8 -11244691.98729  21365005.145
   4327095.821 6    -75119.57425  24120174.820
  14106873.212 6  10519089.21225  24603202.018
   7795236.298 6   -146183.30725  23096809.641
 92  8 26 22  8  0.0030000  0  6G20G 3G17G26G16G23
    -28179.759 5    329420.72925  25141202.967
  -6007685.980 7  -5429767.50128  21411967.064
 -14202962.560 8 -11255562.23529  21362351.052
   4287836.076 6   -105711.50225  24112706.870
  14213639.896 6  10602283.95025  24623522.820
   7719222.302 6   -205414.93725  23082342.887
 92  8 26 22  8 30.0030000  0  6G20G 3G17G26G16G23
     94545.174 5    425050.37125  25164554.461
  -5996167.716 7  -5420792.22528  21414157.707
 -14216624.382 7 -11266207.80629  21359750.412
   4248987.878 6   -135982.72825  24105311.680
  14320566.192 6  10685603.09925  24643867.126
   7643495.894 6   -264422.48126  23067941.127
 92  8 26 22  9  0.0030000  0  6G20G 3G17G26G16G23
    217263.867 5    520675.18925  25187907.245
  -5984272.038 7  -5411522.86228  21416414.575
 -14229982.444 7 -11276616.65529  21357206.883
   4210558.806 6   -165927.38925  24097999.532
  14427661.963 6  10769054.33925  24664248.906
   7568033.534 6   -323224.25126  23053584.605
 92  8 26 22  9 30.0030000  0  6G20G 3G17G26G16G23
    339973.813 5    616293.17625  25211260.807
  -5971997.554 7  -5401958.33328  21418756.014
 -14243044.746 8 -11286795.06829  21354722.533
   4172541.667 6   -195551.04625  24090764.431
  14534917.883 6  10852630.28325  24684663.843
   7492826.935 6   -381826.74126  23039271.614
 92  8 26 22 10  0.0030000  0  6G20G 3G17G26G16G23
    462674.383 5    711903.86925  25234597.282
  -5959340.979 7  -5392096.05328  21421161.848
 -14255808.291 7 -11296740.67029  21352290.317
   4134929.055 6   -224859.51725  24083610.543
  14642330.057 6  10936328.04325  24705106.810
   7417877.039 6   -440229.18726  23025009.498
 92  8 26 22 10 30.0030000  0  6G20G 3G17G26G16G23
    585365.350 5    807507.06125  25257953.183
  -5946297.987 7  -5381932.68228  21423642.091
 -14268263.943 7 -11306446.35629  21349926.993
   4097716.078 5   -253856.55525  24076521.081
  14749920.086 6  11020164.43625  24725577.899
   7343207.354 6   -498413.30026  23010790.701
 92  8 26 22 11  0.0030000  0  6G20G 3G17G26G16G23
    708037.140 5    903095.32125  25281311.542
  -5932874.725 7  -5371472.99728  21426200.730
 -14280434.168 7 -11315929.64829  21347607.559
   4060881.655 5   -282558.65325  24069513.762
  14857695.617 6  11104145.27625  24746084.572
   7268833.340 6   -556367.02026  22996635.790
 92  8 26 22 11 30.0030000  0  6G20G 3G17G26G16G23
    830688.046 5    998667.25325  25304638.873
  -5919068.328 7  -5360714.77728  21428823.134
 -14292317.130 7 -11325189.07729  21345348.743
   4024424.907 6   -310966.41126  24062579.803
  14965649.382 6  11188265.06625  24766629.829
   7194768.230 6   -614080.04027  22982550.431
 92  8 26 22 12  0.0030000  0  6G20G 3G17G26G16G23
    953327.100 5   1094230.00725  25327979.215
  -5904865.996 7  -5349648.01828  21431526.963
 -14303886.046 7 -11334203.79129  21343145.448
   3988363.547 6   -339066.09026  24055714.645
  15073793.364 6  11272533.05725  24787202.007
   7121044.354 6   -671527.13227  22968518.945
 92  8 26 22 12 30.0030000  0  6G20G 3G17G26G16G23
   1075950.994 5   1189780.92425  25351308.105
  -5890267.032 7  -5338272.19328  21434306.788
 -14315133.849 7 -11342968.30829  21341005.829
   3952696.501 6   -366858.55426  24048926.595
  15182133.625 5  11356953.96225  24807826.799
   7047658.713 6   -728710.71027  22954551.675
 92  8 26 22 13  0.0030000  0  6G20G 3G17G26G16G23
   1198551.391 5   1285313.53525  25374654.502
  -5875275.717 7  -5326590.65728  21437162.311
 -14326060.380 7 -11351482.49329  21338922.751
   3917423.432 6   -394344.01025  24042215.650
  15290640.852 5  11441504.98925  24828460.554
   6974595.190 6   -785643.27027  22940655.844
 92  8 26 22 13 30.0030000  0  6G20G 3G17G26G16G23
   1321123.102 5   1380823.74725  25397973.679
  -5859893.344 7  -5314604.37928  21440087.626
 -14336660.763 7 -11359742.50829  21336906.317
   3882561.043 5   -421509.44725  24035576.567
  15399283.663 5  11526161.68925  24849138.979
   6901842.800 6   -842333.37927  22926809.060
 92  8 26 22 14  0.0030000  0  5G 3G17G26G16G23
  -5844119.010 7  -5302312.68328  21443086.630
 -14346939.026 7 -11367751.51429  21334954.338
   3848119.104 6   -448347.22826  24029025.532
  15508064.706 5  11610926.09525  24869846.304
   6829395.770 6   -898785.55227  22913020.916
 92  8 26 22 14 30.0030000  0  5G 3G17G26G16G23
  -5827945.419 7  -5289709.88728  21446164.809
 -14356910.945 7 -11375521.83329  21333054.104
   3814117.578 6   -474841.88525  24022559.968
  15616989.335 5  11695802.34525  24890578.271
   6757242.829 7   -955008.56827  22899289.911
 92  8 26 22 15  0.0030000  0  6G20G 3G17G26G16G23
    118398.57915    112933.36831  25467912.081
  -5811368.859 7  -5276793.08428  21449317.277
 -14366596.377 7 -11383068.91029  21331211.999
   3780566.490 6   -500985.53725  24016170.881
  15726040.640 5  11780777.34025  24911313.836
   6685395.515 6  -1010993.42727  22885615.538
 92  8 26 22 15 30.0030000  0  6G20G 3G17G26G16G23
    240845.808 5    208346.73422  25491203.167
  -5794391.733 7  -5263564.14528  21452554.106
 -14376010.872 7 -11390404.87029  21329417.022
   3747471.407 6   -526773.85825  24009870.622
  15835234.888 5  11865863.74425  24932104.413
   6613851.346 6  -1066742.06327  22872000.793
 92  8 26 22 16  0.0030000  0  6G20G 3G17G26G16G23
    363259.539 5    303733.92122  25514504.236
  -5777008.436 7  -5250018.70728  21455856.200
 -14385160.441 7 -11397534.39529  21327678.465
   3714818.785 6   -552217.39225  24003662.280
  15944603.110 5  11951085.66025  24952912.318
   6542627.183 6  -1122241.33927  22858450.024
 92  8 26 22 16 30.0030000  0  6G20G 3G17G26G16G23
    485649.416 5    399102.50023  25537797.211
  -5759205.388 7  -5236146.21028  21459243.045
 -14394043.987 7 -11404456.62529  21325991.263
   3682610.567 6   -577314.66626  23997530.056
  16054151.559 5  12036448.03225  24973771.188
   6471743.486 6  -1177475.33827  22844958.314
 92  8 26 22 17  0.0030000  0  6G20G 3G17G26G16G23
    608015.988 5    494452.90223  25561078.913
  -5740978.073 7  -5221943.11128  21462715.002
 -14402644.484 7 -11411158.30529  21324353.797
   3650841.363 6   -602069.83825  23991487.439
  16163880.812 5  12121951.28025  24994640.580
   6401214.379 6  -1232433.04227  22831532.049
 92  8 26 22 17 30.0030000  0  6G20G 3G17G26G16G23
    730359.730 5    589785.51223  25584362.265
  -5722322.442 7  -5207406.25328  21466266.373
 -14410937.375 7 -11417620.28629  21322774.850
   3619512.273 6   -626482.04325  23985523.967
  16273810.273 5  12207610.55525  25015568.073
   6331035.688 7  -1287117.67027  22818185.619
 92  8 26 22 18  0.0030000  0  6G20G 3G17G26G16G23
    852678.886 5    685098.98824  25607632.755
  -5703236.120 7  -5192533.77928  21469897.639
 -14418908.031 7 -11423831.16629  21321256.012
   3588624.904 6   -650550.10725  23979643.059
  16383910.779 5  12293403.17825  25036515.801
   6261208.384 6  -1341528.48827  22804895.250
 92  8 26 22 18 30.0030000  0  6G20G 3G17G26G16G23
    974969.630 5    780390.28224  25630904.174
  -5683719.398 7  -5177325.94128  21473610.629
 -14426531.460 7 -11429771.49329  21319810.712
   3558203.792 6   -674254.78725  23973857.904
  16494155.532 5  12379308.12325  25057492.849
   6191725.475 6  -1395670.96827  22791674.462
 92  8 26 22 19  0.0030000  0  6G20G 3G17G26G16G23
   1097226.262 5    875654.96225  25654169.868
  -5663774.183 7  -5161784.22128  21477405.941
 -14433793.828 7 -11435430.47729  21318421.834
   3528256.158 6   -697590.58825  23968158.159
  16604543.948 6  12465324.95425  25078502.634
   6122579.951 7  -1449550.54327  22778518.700
 92  8 26 22 19 30.0030000  0  6G20G 3G17G26G16G23
   1219447.310 5    970891.94325  25677428.606
  -5643397.434 7  -5145906.22028  21481283.967
 -14440698.562 7 -11440810.78329  21317110.811
   3498789.326 6   -720551.73525  23962555.968
  16715072.340 6  12551450.94925  25099533.015
   6053774.960 7  -1503164.77327  22765423.315
 92  8 26 22 20  0.0030000  0  6G20G 3G17G26G16G23
   1341620.752 5   1066091.84125  25700681.109
  -5622597.907 7  -5129698.80528  21485239.818
 -14447260.171 7 -11445923.71729  21315865.204
   3469796.778 6   -743143.27825  23957035.080
  16825716.062 6  12637666.78825  25120587.349
   5985325.165 7  -1556502.19227  22752399.701
 92  8 26 22 20 30.0030000  0  6G20G 3G17G26G16G23
   1463746.145 5   1161254.27225  25723922.309
  -5601372.185 7  -5113159.26128  21489279.821
 -14453490.806 7 -11450778.73229  21314678.055
   3441267.845 6   -765373.54925  23951605.838
  16936492.343 6  12723985.87625  25141670.913
   5917247.055 7  -1609550.01427  22739444.050
 92  8 26 22 21  0.0030000  0  6G20G 3G17G26G16G23
   1585831.802 5   1256385.73925  25747145.192
  -5579707.981 7  -5096278.07028  21493401.488
 -14459405.427 8 -11455387.52429  21313553.324
   3413191.171 6   -787251.44725  23946263.717
  17047418.135 6  12810421.54325  25162775.103
   5849558.562 7  -1662294.26427  22726563.977
 92  8 26 22 21 30.0030000  0  5G 3G17G26G16G23
  -5557598.709 7  -5079050.06028  21497609.974
 -14464998.510 7 -11459745.75729  21312485.913
   3385561.907 6   -808780.68925  23941010.243
  17158495.256 6  12896975.06025  25183914.639
   5782266.856 7  -1714729.30227  22713755.794
 92  8 26 22 22  0.0030000  0  5G 3G17G26G16G23
  -5535046.452 7  -5061476.86428  21501899.465
 -14470268.766 7 -11463852.44129  21311485.116
   3358375.442 6   -829964.91625  23935826.622
  17269724.329 6  12983647.00125  25205087.961
   5715351.285 7  -1766871.23927  22701024.688
 92  8 26 22 22 30.0030000  0  5G 3G17G26G16G23
  -5512048.078 7  -5043556.07128  21506280.062
 -14475216.355 7 -11467707.70121  21310541.639
   3331641.939 6   -850796.15725  23930746.159
  17381115.003 6  13070444.84125  25226281.848
   5648785.028 7  -1818740.99227  22688358.097
 92  8 26 22 23  0.0030000  0  5G 3G17G26G16G23
  -5488611.734 7  -5025293.96928  21510740.314
 -14479838.407 7 -11471309.29721  21309663.517
   3305368.627 6   -871268.81725  23925748.619
  17492654.028 5  13157358.30025  25247507.874
   5582541.586 7  -1870359.20227  22675750.924
 92  8 26 22 23 30.0030000  0  5G 3G17G26G16G23
  -5464735.278 7  -5006688.93128  21515282.440
 -14484119.636 7 -11474645.30722  21308848.291
   3279580.149 6   -891363.71225  23920840.687
  17604342.091 5  13244387.88025  25268747.240
   5516619.220 7  -1921727.23027  22663209.586
 92  8 26 22 24  0.0030000  0  5G 3G17G26G16G23
  -5440418.025 7  -4987740.43928  21519909.437
 -14488072.368 7 -11477725.34423  21308095.932
   3254290.044 6   -911070.26925  23916027.818
  17716170.623 5  13331526.94525  25290024.470
   5451037.751 7  -1972829.62327  22650725.299
 92  8 26 22 24 30.0030000  0  5G 3G17G26G16G23
  -5415655.638 7  -4968445.05528  21524618.757
 -14491699.442 8 -11480551.62924  21307405.990
   3229496.497 6   -930389.83825  23911308.785
  17828133.380 5  13418770.59025  25311333.149
   5385834.926 7  -2023636.95527  22638317.909
 92  8 26 22 25  0.0030000  0  5G 3G17G26G16G23
  -5390450.282 7  -4948804.52628  21529416.635
 -14495003.044 7 -11483125.85424  21306778.434
   3205189.335 6   -949330.43125  23906680.829
  17940222.429 5  13506112.58125  25332671.417
   5321026.439 7  -2074137.02827  22625988.584
 92  8 26 22 25 30.0030000  0  5G 3G17G26G16G23
  -5364798.586 7  -4928816.17328  21534296.777
 -14497996.702 7 -11485458.56625  21306205.621
   3181370.251 6   -967890.73025  23902144.310
  18052426.694 5  13593544.42625  25354038.404
   5256626.496 7  -2124318.75427  22613733.308
 92  8 26 22 26  0.0030000  0  5G 3G17G26G16G23
  -5338697.966 7  -4908478.04928  21539262.509
 -14500688.390 7 -11487555.97125  21305695.644
   3158037.442 6   -986072.07425  23897702.285
  18164742.631 5  13681063.26025  25375400.806
   5192636.109 7  -2174181.34328  22601553.190
 92  8 26 22 26 30.0030000  0  5G 3G17G26G16G23
  -5312150.531 7  -4887791.72828  21544316.530
 -14503070.431 7 -11489412.08425  21305242.238
   3135191.530 6  -1003874.05425  23893361.890
  18277170.453 5  13768669.25025  25396762.157
   5129027.597 7  -2223746.35928  22589446.492
 92  8 26 22 27  0.0030000  0  5G 3G17G26G16G23
  -5285155.326 7  -4866756.49328  21549453.834
 -14505134.307 7 -11491020.29725  21304850.469
   3112850.507 6  -1021282.60326  23889104.117
  18389717.190 5  13856367.91225  25418197.198
   5065778.914 7  -2273030.99628  22577413.302
 92  8 26 22 27 30.0030000  0  5G 3G17G26G16G23
  -5257710.897 7  -4845371.22628  21554678.017
 -14506884.965 7 -11492384.43125  21304515.901
   3091027.365 6  -1038287.60925  23884952.292
  18502385.067 5  13944160.99525  25439652.895
   5002883.722 7  -2322040.20628  22565441.330
 92  8 26 22 28  0.0030000  0  5G 3G17G26G16G23
  -5229809.742 7  -4823630.07228  21559982.964
 -14508302.318 7 -11493488.86525  21304250.524
   3069725.681 6  -1054886.28726  23880903.085
  18615197.186 5  14032066.45325  25461114.497
   4940347.813 7  -2370769.40328  22553542.687
 92  8 26 22 28 30.0030000  0  5G 3G17G26G16G23
  -5201452.444 7  -4801533.47528  21565383.965
 -14509379.791 7 -11494328.43825  21304039.770
   3048936.752 6  -1071085.41226  23876946.214
  18728163.411 5  14120092.03825  25482612.464
   4878175.687 7  -2419215.18728  22541714.406
 92  8 26 22 29  0.0030000  0  5G 3G17G26G16G23
  -5172643.048 7  -4779084.59728  21570866.780
 -14510135.866 7 -11494917.57225  21303894.341
   3028653.461 6  -1086890.52526  23873080.780
  18841279.961 5  14208234.70125  25504129.858
   4816377.848 7  -2467369.29728  22529949.800
 92  8 26 22 29 30.0030000  0  5G 3G17G26G16G23
  -5143386.341 7  -4756287.15728  21576435.544
 -14510585.780 7 -11495268.14825  21303813.457
   3008858.005 6  -1102315.51726  23869325.520
  18954525.024 6  14296477.50925  25525688.743
   4754961.619 7  -2515226.04428  22518265.179
 92  8 26 22 30  0.0030000  0  5G 3G17G26G16G23
  -5113678.726 7  -4733138.37528  21582082.195
 -14510718.015 7 -11495371.16625  21303786.625
   2989541.331 6  -1117367.42426  23865643.229
  19067892.714 5  14384815.97225  25547263.817
   4693942.259 7  -2562773.54028  22506652.599
 92  8 26 22 30 30.0030000  0  5G 3G17G26G16G23
  -5083526.152 7  -4709642.87228  21587819.264
 -14510545.098 7 -11495236.44125  21303816.275
   2970701.176 6  -1132048.04226  23862060.709
  19181355.865 5  14473228.67925  25568857.568
   4633312.103 7  -2610017.79128  22495116.825
 92  8 26 22 31  0.0030000  0  5G 3G17G26G16G23
  -5052932.011 7  -4685803.27128  21593640.574
 -14510077.444 7 -11494872.01425  21303909.690
   2952334.926 6  -1146359.37426  23858564.649
  19294886.850 6  14561694.33725  25590455.127
   4573060.121 7  -2656967.33428  22483653.211
 92  8 26 22 31 30.0030000  0  5G 3G17G26G16G23
  -5021902.296 7  -4661624.29728  21599552.601
 -14509311.989 7 -11494275.54725  21304054.850
   2934437.664 6  -1160305.26126  23855154.570
 -18651582.35616     60110.87931  25612067.315
   4513163.637 7  -2703639.86728  22472256.750
 92  8 26 22 32  0.0030000  0  5G 3G17G26G16G23
  -4990429.126 7  -4637099.73428  21605541.105
 -14508232.873 8 -11493434.67425  21304259.218
   2917027.874 6  -1173871.26126  23851845.791
 -18537930.731 6    148669.32121  25633709.003
   4453626.601 7  -2750032.30728  22460923.216
 92  8 26 22 32 30.0030000  0  5G 3G17G26G16G23
  -4958506.030 7  -4612224.59828  21611614.211
 -14506838.525 7 -11492348.15825  21304526.843
   2900125.770 6  -1187041.71726  23848626.619
 -18424204.540 6    237287.10922  25655339.238
   4394455.815 7  -2796139.37628  22449665.080
 92  8 26 22 33  0.0030000  0  5G 3G17G26G16G23
  -4926128.888 7  -4586995.66528  21617772.847
 -14505118.577 7 -11491007.92825  21304853.257
   2883738.383 6  -1199811.11426  23845508.598
 -18310394.692 5    325969.96922  25677002.091
   4335665.050 7  -2841950.31028  22438476.646
 92  8 26 22 33 30.0030000  0  5G 3G17G26G16G23
  -4893299.918 7  -4561414.63928  21624017.554
 -14503070.498 8 -11489411.99625  21305241.338
   2867873.640 6  -1212173.15426  23842490.407
 -18196497.804 5    414720.76923  25698676.966
   4277268.088 7  -2887454.39528  22427362.650
 92  8 26 22 34  0.0030000  0  5G 3G17G26G16G23
  -4860012.919 7  -4535476.73028  21630356.036
 -14500692.647 7 -11487559.14025  21305694.085
   2852543.129 6  -1224118.97726  23839572.797
 -18082515.427 5    503538.13723  25720365.302
   4219298.172 7  -2932625.70829  22416332.686
 92  8 26 22 34 30.0030000  0  5G 3G17G26G16G23
  -4826265.781 7  -4509180.26428  21636776.571
 -14497995.957 8 -11485457.80925  21306210.328
   2837741.647 6  -1235652.59426  23836764.042
 -17968451.018 5    592419.39624  25742058.524
   4161753.743 7  -2977465.47329  22405380.548
 92  8 26 22 35  0.0030000  0  5G 3G17G26G16G23
  -4792061.788 7  -4482527.80628  21643289.203
 -14494992.434 8 -11483117.39125  21306783.651
   2823457.154 6  -1246783.31926  23834038.598
 -17854310.019 5    681360.36325  25763791.408
   4104628.417 7  -3021978.67529  22394513.131
 92  8 26 22 35 30.0030000  0  4G 3G17G26G23
  -4757401.140 7  -4455519.51928  21649880.020
 -14491700.721 8 -11480552.42025  21307405.150
   2809688.936 6  -1257511.76226  23831420.631
   4047919.123 7  -3066167.68629  22383718.924
 92  8 26 22 36  0.0030000  0  4G 3G17G26G23
  -4722274.806 7  -4428148.36128  21656567.280
 -14488118.373 8 -11477760.96925  21308085.379
   2796422.377 6  -1267849.29826  23828891.102
   3991618.907 7  -3110037.92529  22373008.449
 92  8 26 22 36 30.0030000  0  5G 3G17G26G21G23
  -4686682.321 7  -4400413.95528  21663337.733
 -14484241.433 8 -11474739.96325  21308826.646
   2783647.869 6  -1277803.44326  23826465.271
   1464317.19415   -232593.91531  25393349.620
   3935706.934 7  -3153605.67429  22362368.005
 92  8 26 22 37  0.0030000  0  5G 3G17G26G21G23
  -4650618.954 7  -4372312.63128  21670203.580
 -14480055.787 8 -11471478.41625  21309621.156
   2771379.808 6  -1287362.94926  23824135.164
   1367242.049 5   -308236.53422  25374890.829
   3880184.355 7  -3196869.96729  22351800.710
 92  8 26 22 37 30.0030000  0  5G 3G17G26G21G23
  -4614085.275 7  -4343844.83928  21677155.018
 -14475548.060 8 -11467965.89625  21310478.383
   2759614.275 6  -1296530.86726  23821888.340
   1270288.576 5   -383784.51023  25356425.862
   3825028.930 7  -3239848.16929  22341307.465
 92  8 26 22 38  0.0030000  0  5G 3G17G26G21G23
  -4577080.742 7  -4315010.13628  21684197.203
 -14470699.027 7 -11464187.41425  21311398.686
   2748361.010 6  -1305299.61126  23819744.644
   1173466.854 5   -459229.83524  25338003.975
   3770238.488 7  -3282541.97629  22330879.754
 92  8 26 22 38 30.0030000  0  5G 3G17G26G21G23
  -4539602.382 7  -4285806.22528  21691327.436
 -14465501.246 8 -11460137.19625  21312391.059
   2737661.078 6  -1313637.19426  23817714.839
   1076779.907 5   -534570.18025  25319618.063
   3715836.570 7  -3324933.05929  22320526.091
 92  8 26 22 39  0.0030000  0  5G 3G17G26G21G23
  -4501652.538 7  -4256234.92727  21698550.156
 -14459960.972 8 -11455820.08425  21313443.750
   2727524.543 6  -1321535.75226  23815785.435
    980226.578 5   -609806.37125  25301236.828
   3661837.556 7  -3367010.17229  22310250.645
 92  8 26 22 39 30.0030000  0  5G 3G17G26G21G23
  -4463227.759 7  -4226293.54827  21705865.332
 -14454081.939 8 -11451239.01025  21314565.723
   2717952.374 6  -1328994.56926  23813962.157
    883811.770 5   -684934.63125  25282900.532
   3608262.516 7  -3408756.90529  22300053.504
 92  8 26 22 40  0.0030000  0  5G 3G17G26G28G23
  -4424321.764 7  -4195977.19627  21713264.480
 -14447865.365 8 -11446394.91425  21315746.366
   2708966.039 6  -1335996.91026  23812250.852
    -52836.62815    -51464.36831  25737916.651
   3555149.427 7  -3450143.68929  22289946.241
 92  8 26 22 40 30.0030000  0  5G 3G17G26G28G23
  -4384930.620 7  -4165282.79227  21720761.180
 -14441316.001 8 -11441291.50225  21316995.361
   2700555.088 6  -1342550.85626  23810649.480
   -151866.111 5   -128630.22023  25719063.003
   3502494.859 7  -3491173.18829  22279927.057
 92  8 26 22 41  0.0030000  0  4G 3G17G26G23
  -4345064.431 7  -4134218.24527  21728352.555
 -14434449.086 7 -11435940.66025  21318297.360
   2692677.013 6  -1348689.62126  23809156.634
   3450265.607 7  -3531871.28129  22269992.055
 92  8 26 22 41 30.0030000  0  4G 3G17G26G23
  -4304724.015 7  -4102784.16427  21736021.366
 -14427265.597 7 -11430343.12225  21319664.593
   2685312.946 6  -1354427.80126  23807754.654
   3398449.393 7  -3572247.50429  22260130.292
 92  8 26 22 42  0.0030000  0  5G 3G17G26G28G23
  -4263924.529 7  -4070992.35927  21743789.498
 -14419778.258 7 -11424508.82825  21321090.256
   2678438.181 6  -1359784.74526  23806443.692
     44523.93515    -24407.91431  25662573.350
   3347020.711 7  -3612321.77429  22250342.758
 92  8 26 22 42 30.0030000  0  4G 3G17G26G23
  -4222669.270 7  -4038845.40727  21751639.293
 -14411998.112 7 -11418446.35525  21322571.621
   2672030.941 6  -1364777.36226  23805223.027
   3295961.702 7  -3652107.95229  22240626.695
 92  8 26 22 43  0.0030000  0  4G 3G17G26G23
  -4180960.160 7  -4006344.82127  21759574.680
 -14403932.413 7 -11412161.38725  21324107.158
   2666097.086 6  -1369401.14526  23804091.310
   3245278.971 7  -3691600.96429  22230982.341
 92  8 26 22 43 30.0030000  0  6G 3G17G26G28G21G23
  -4138800.834 7  -3973493.39627  21767599.225
 -14395580.398 7 -11405653.32825  21325696.807
   2660655.678 6  -1373641.17726  23803053.009
    -83996.13315    -78281.16831  25606139.848
    -49322.37415    -47118.03631  25136940.069
   3194980.459 7  -3730794.55329  22221408.379
 92  8 26 22 44  0.0030000  0  5G 3G17G26G21G23
  -4096194.331 7  -3940293.52927  21775710.170
 -14386940.957 7 -11398921.28025  21327340.180
   2655726.107 6  -1377482.38126  23802124.462
   -144703.438 5   -121440.80322  25118802.715
   3145072.365 7  -3769683.96829  22211911.793
 92  8 26 22 44 30.0030000  0  5G 3G17G26G21G23
  -4053132.718 7  -3906739.04227  21783901.819
 -14378000.268 8 -11391954.49725  21329044.410
   2651338.643 6  -1380901.18426  23801280.816
   -239959.008 5   -195665.80023  25100670.697
   3095567.487 7  -3808259.15329  22202492.194
 92  8 26 22 45  0.0030000  0  5G 3G17G26G21G23
  -4009607.790 7  -3872823.52527  21792184.305
 -14368739.590 8 -11384738.37625  21330805.720
   2647520.056 6  -1383876.67426  23800552.800
   -335082.336 5   -269787.71525  25082565.062
   3046480.936 7  -3846508.37329  22193151.111
 92  8 26 22 45 30.0030000  0  5G 3G17G26G21G23
  -3965622.908 7  -3838549.59827  21800554.480
 -14359157.742 7 -11377271.99925  21332625.221
   2644265.071 6  -1386413.00826  23799941.343
   -430072.574 5   -343805.89525  25064482.510
   2997816.780 7  -3884428.45429  22183894.330
 92  8 26 22 46  0.0030000  0  5G 3G17G26G21G23
  -3921173.734 7  -3803913.89627  21809012.735
 -14349255.989 8 -11369556.34925  21334511.635
   2641562.922 6  -1388518.56926  23799422.193
   -524935.142 5   -417724.61125  25046439.051
   2949582.420 7  -3922013.63829  22174713.335
 92  8 26 22 46 30.0030000  0  5G 3G17G26G21G23
  -3876252.875 7  -3768910.64327  21817560.027
 -14339036.170 8 -11361592.84525  21336456.658
   2639395.710 6  -1390207.27326  23799020.021
   -619656.421 5   -491533.26425  25028405.126
   2901777.969 7  -3959263.81629  22165618.771
 92  8 26 22 47  0.0030000  0  5G 3G17G26G21G23
  -3830863.081 7  -3733541.97927  21826197.888
 -14328507.034 7 -11353388.31725  21338457.983
   2637741.522 6  -1391496.23826  23798701.222
   -714237.764 5   -565232.84025  25010416.589
   2854395.951 7  -3996184.83729  22156596.997
 92  8 26 22 47 30.0030000  0  5G 3G17G26G21G23
  -3785011.392 7  -3697813.40027  21834923.797
 -14317673.648 7 -11344946.69725  21340519.806
   2636585.473 6  -1392397.04926  23798478.026
   -808693.838 5   -638834.81925  24992442.592
   2807421.485 7  -4032788.28129  22147663.572
 92  8 26 22 48  0.0030000  0  5G 3G17G26G21G23
  -3738698.996 7  -3661725.80727  21843734.307
 -14306544.316 8 -11336274.48525  21342642.456
   2635931.733 6  -1392906.41626  23798351.664
   -903023.100 5   -712338.00025  24974483.465
   2760840.203 7  -4069085.34729  22138797.060
 92  8 26 22 48 30.0030000  0  5G 3G17G26G21G23
  -3691924.254 7  -3625277.97527  21852633.347
 -14295124.435 8 -11327375.87625  21344813.073
   2635794.561 6  -1393013.28426  23798326.421
   -997222.657 5   -785740.05925  24956553.238
   2714648.227 7  -4105079.06329  22130006.845
 92  8 26 22 49  0.0030000  0  5G 3G17G26G21G23
  -3644685.893 7  -3588468.86327  21861625.951
 -14283407.493 8 -11318245.77825  21347043.559
   2636195.936 6  -1392700.51126  23798400.050
  -1091295.162 5   -859043.14925  24938658.356
   2668852.173 7  -4140764.25229  22121292.478
 92  8 26 22 49 30.0030000  0  6G 3G17G26G28G21G23
  -3596977.033 7  -3551293.12927  21870702.258
 -14271394.059 7 -11308884.66425  21349329.147
   2637147.720 6  -1391958.83926  23798585.442
     -8182.39515    -24241.70731  25381166.984
  -1185222.458 5   -932233.12025  24920793.903
   2623465.392 7  -4176130.54329  22112653.748
 92  8 26 22 50  0.0030000  0  6G 3G17G26G28G21G23
  -3548792.277 7  -3513746.58127  21879874.498
 -14259081.097 7 -11299290.12325  21351670.496
   2638660.826 6  -1390779.78126  23798873.123
   -106353.766 5   -100751.21921  25362492.162
  -1278982.532 5  -1005292.76725  24902945.789
   2578508.511 7  -4211161.84329  22104099.201
 92  8 26 22 50 30.0030000  0  6G 3G17G26G28G21G23
  -3500133.559 7  -3475830.70627  21889134.038
 -14246459.242 7 -11289454.91925  21354073.992
   2640734.124 6  -1389164.21926  23799265.491
   -204466.046 5   -177202.31023  25343833.379
  -1372581.109 5  -1078226.57125  24885131.582
   2533990.584 7  -4245851.10029  22095627.935
 92  8 26 22 51  0.0030000  0  6G 3G17G26G28G21G23
  -3451000.638 7  -3437545.32327  21898482.196
 -14233518.972 7 -11279371.57725  21356535.708
   2643358.623 6  -1387119.14526  23799765.125
   -302500.346 5   -253592.58925  25325160.236
  -1466007.985 5  -1151026.58125  24867357.277
   2489915.306 7  -4280195.42729  22087243.699
 92  8 26 22 51 30.0030000  0  6G 3G17G26G28G21G23
  -3401401.896 7  -3398896.94527  21907919.633
 -14220282.444 7 -11269057.39825  21359051.716
   2646523.591 6  -1384652.92726  23800362.882
   -400458.140 5   -329923.30525  25306525.467
  -1559263.555 5  -1223693.09025  24849607.195
   2446274.758 7  -4314201.04029  22078936.570
 92  8 26 22 52  0.0030000  0  6G 3G17G26G28G21G23
  -3351343.972 7  -3359890.78627  21917445.718
 -14206759.178 8 -11258519.77825  21361628.163
   2650224.323 6  -1381769.21426  23801073.690
   -498350.616 5   -406203.05425  25287897.053
  -1652363.023 5  -1296237.97625  24831891.619
   2403055.623 7  -4347878.23729  22070715.062
 92  8 26 22 52 30.0030000  0  6G 3G17G26G28G21G23
  -3300820.081 7  -3320521.52427  21927061.651
 -14192952.386 7 -11247761.22825  21364252.366
   2654456.711 6  -1378471.22826  23801879.292
   -596169.174 5   -482425.25225  25269266.331
  -1745302.370 5  -1368658.18125  24814205.093
   2360252.678 7  -4381231.14629  22062567.183
 92  8 26 22 53  0.0030000  0  6G 3G17G26G28G21G23
  -3249822.885 7  -3280783.47627  21936765.034
 -14178857.292 7 -11236778.02625  21366932.480
   2659225.783 6  -1374755.06226  23802783.616
   -693901.037 5   -558579.91225  25250682.526
  -1838067.496 5  -1440942.53825  24796543.210
   2317874.634 7  -4414252.96129  22054502.316
 92  8 26 22 53 30.0030000  0  6G 3G17G26G28G21G23
  -3198351.607 7  -3240675.98327  21946560.662
 -14164472.277 7 -11225568.92825  21369674.023
   2664545.183 6  -1370610.04926  23803802.191
    703733.05415    -37873.25031  25232096.503
  -1930668.508 5  -1513098.99925  24778932.352
   2275931.513 7  -4446935.88929  22046521.721
 92  8 26 22 54  0.0030000  0  6G 3G17G26G28G21G23
  -3146402.691 7  -3200196.32927  21956443.980
 -14149782.025 7 -11214121.97924  21372468.358
   2670411.283 6  -1366039.05526  23804914.750
    606180.755 5   -113898.68621  25213541.478
  -2023117.036 5  -1585136.63825  24761331.957
   2234427.127 7  -4479276.94529  22038622.519
 92  8 26 22 54 30.0030000  0  6G 3G17G26G28G21G23
  -3093976.365 7  -3159344.64727  21966421.163
 -14134775.098 7 -11202428.25824  21375326.160
   2676822.112 6  -1361043.60026  23806131.938
    508744.427 5   -189823.09522  25194992.719
  -2115415.537 5  -1657057.42625  24743763.579
   2193361.405 7  -4511276.17229  22030807.409
 92  8 26 22 55  0.0030000  0  6G 3G17G26G28G21G23
  -3041073.146 7  -3118121.37727  21976489.753
 -14119452.219 7 -11190488.34723  21378240.232
   2683786.029 6  -1355617.15126  23807465.565
    411418.138 5   -265661.67323  25176473.970
  -2207571.945 5  -1728867.46325  24726236.603
   2152729.479 7  -4542937.38329  22023080.858
 92  8 26 22 55 30.0030000  0  6G 3G17G26G28G21G23
  -2987696.150 7  -3076528.92527  21986645.192
 -14103827.532 7 -11178313.25123  21381216.182
   2691296.595 6  -1349764.75226  23808886.281
    314195.703 6   -341419.30624  25157983.191
  -2299593.208 5  -1800572.21325  24708725.275
   2112515.239 7  -4574273.12429  22015424.069
 92  8 26 22 56  0.0030000  0  6G 3G17G26G28G21G23
  -2933846.117 7  -3034567.88127  21996891.259
 -14087898.745 7 -11165901.22022  21384248.013
   2699342.138 6  -1343495.49626  23810421.818
    217072.799 5   -417099.42525  25139490.043
  -2391464.158 5  -1872159.81825  24691241.259
   2072704.799 7  -4605294.21629  22007845.975
 92  8 26 22 56 30.0030000  0  6G 3G17G26G28G21G23
  -2879516.422 7  -2992233.06727  22007234.908
 -14071656.080 7 -11153244.57022  21387338.783
   2707934.046 6  -1336800.50726  23812061.593
    120039.015 5   -492710.15025  25121032.751
  -2483157.296 5  -1943608.84725  24673794.807
   2033309.096 7  -4635992.11929  22000348.765
 92  8 26 22 57  0.0030000  0  6G 3G17G26G28G21G23
  -2824706.266 7  -2949523.86427  22017663.489
 -14055102.524 8 -11140345.69922  21390488.013
   2717077.195 6  -1329675.94726  23813798.171
     23099.221 5   -568247.60925  25102576.328
  -2574673.038 5  -2014919.71625  24656382.142
   1994333.931 7  -4666362.36829  21992933.879
 92  8 26 22 57 30.0030000  0  6G 3G17G26G28G21G23
  -2769418.125 7  -2906442.20127  22028185.604
 -14038228.112 7 -11127196.80921  21393697.951
   2726762.195 6  -1322129.19526  23815635.449
    -73720.019 5   -643691.03725  25084160.647
  -2666002.568 5  -2086085.45325  24639005.272
   1955793.475 7  -4696393.87029  21985599.276
 92  8 26 22 58  0.0030000  0  6G 3G17G26G28G21G23
  -2713650.841 7  -2862987.19627  22038796.069
 -14021025.583 7 -11113792.22521  21396970.905
   2736993.616 6  -1314156.66826  23817581.851
   -170404.238 5   -719029.31825  25065759.026
  -2757141.524 5  -2157102.69225  24621664.077
   1917700.590 7  -4726076.60429  21978351.884
 92  8 26 22 58 30.0030000  0  6G 3G17G26G28G21G23
  -2657404.003 7  -2819158.50227  22049503.336
 -14003496.698 7 -11100133.33921  21400307.925
   2747784.964 6  -1305747.81126  23819640.256
   -266941.149 5   -794252.88825  25047377.431
  -2848095.806 6  -2227975.99625  24604357.328
   1880046.890 7  -4755417.12129  21971186.034
 92  8 26 22 59  0.0030000  0  5G 3G17G26G21G23
  -2600668.707 7  -2774949.20327  22060295.115
 -13985635.226 7 -11086215.32121  21403704.544
   2759150.587 6  -1296891.47526  23821805.267
  -2938867.374 6  -2298706.94625  24587079.419
   1842834.383 7  -4784413.84029  21964106.436
 92  8 26 22 59 30.0030000  0  5G 3G17G26G21G23
  -2543443.973 7  -2730358.50127  22071187.445
 -13967437.852 7 -11072035.53829  21407166.487
   2771081.200 6  -1287594.89526  23824075.925
  -3029439.708 5  -2369282.66425  24569839.794
   1806061.562 7  -4813067.97329  21957109.190
 92  8 26 23  0  0.0030000  0  6G 3G17G26G28G21G23
  -2485730.073 7  -2685386.65227  22082170.551
 -13948913.759 7 -11057601.17129  21410693.815
   2783586.386 6  -1277850.60626  23826449.592
    -67271.56415    -64793.92931  24992441.453
  -3119821.253 5  -2439709.70625  24552636.384
   1769713.848 7  -4841390.82629  21950191.119
 92  8 26 23  0 30.0030000  0  6G 3G17G26G28G21G23
  -2427524.129 7  -2640031.37827  22093245.035
 -13930058.964 7 -11042909.10929  21414283.710
   2796661.973 6  -1267661.82326  23828939.039
   -163287.505 5   -139611.56224  24974170.751
  -3210012.010 5  -2509988.09225  24535482.079
   1733791.117 7  -4869382.54929  21943354.082
 92  8 26 23  1  0.0030000  0  6G 3G17G26G28G21G23
  -2368835.519 7  -2594300.00927  22104406.608
 -13910894.818 7 -11027976.01029  21417929.696
   2810284.692 6  -1257046.71626  23831538.479
   -259206.174 5   -214353.30625  24955918.997
  -3300017.005 5  -2580121.70425  24518352.688
   1698308.904 7  -4897031.00829  21936604.705
 92  8 26 23  1 30.0030000  0  6G 3G17G26G28G21G23
  -2309665.794 7  -2548193.75027  22115670.980
 -13891437.936 7 -11012814.80829  21421631.833
   2824451.746 6  -1246007.43526  23834227.498
   -355022.064 5   -289014.94425  24937685.709
  -3389826.409 5  -2650102.92025  24501257.712
   1663269.537 7  -4924334.38229  21929936.391
 92  8 26 23  2  0.0030000  0  6G 3G17G26G28G21G23
  -2250021.081 7  -2501717.35727  22127021.782
 -13871705.080 7 -10997438.55229  21425386.554
   2839171.562 6  -1234537.45226  23837028.039
   -450728.150 5   -363591.08625  24919473.557
  -3479460.334 5  -2719947.43925  24484202.579
   1628666.531 7  -4951297.73229  21923351.450
 92  8 26 23  2 30.0030000  0  6G 3G17G26G28G21G23
  -2189900.870 7  -2454870.45627  22138460.123
 -13851696.469 7 -10981847.42829  21429191.939
   2854445.927 6  -1222635.33526  23839936.445
   -546301.639 5   -438063.88625  24901279.513
  -3568917.298 5  -2789654.08325  24467176.496
   1594514.652 7  -4977909.58129  21916852.369
 92  8 26 23  3  0.0030000  0  6G 3G17G26G28G21G23
  -2129347.481 7  -2407686.00627  22149986.873
 -13831461.079 7 -10966079.58429  21433046.221
   2870245.778 6  -1210323.75626  23842944.233
   -641771.764 5   -512456.10325  24883113.649
  -3658225.354 5  -2859244.63025  24450179.373
   1560775.961 7  -5004199.43029  21910433.872
 92  8 26 23  3 30.0030000  0  6G 3G17G26G28G21G23
  -2068333.137 7  -2360142.39927  22161591.839
 -13810961.564 7 -10950105.96229  21436945.921
   2886608.616 6  -1197573.51526  23846052.571
   -737114.333 6   -586749.00325  24864975.246
  -3747356.231 5  -2928697.12425  24433218.495
   1527479.952 7  -5030144.37529  21904096.410
 92  8 26 23  4  0.0030000  0  6G 3G17G26G28G21G23
  -2006899.900 7  -2312272.31927  22173286.983
 -13790223.432 7 -10933946.35829  21440888.522
   2903483.706 6  -1184424.03826  23849269.374
   -832365.904 6   -660970.89425  24846848.115
  -3836352.970 5  -2998045.11125  24416288.255
   1494591.481 7  -5055771.70529  21897838.602
 92  8 26 23  4 30.0030000  0  6G 3G17G26G28G21G23
  -1945023.082 7  -2264056.64427  22185059.713
 -13769206.959 7 -10917569.87929  21444891.201
   2920887.584 6  -1170862.56626  23852579.533
   -927500.573 6   -735101.75425  24828746.437
  -3925167.251 5  -3067250.93925  24399388.475
   1462139.082 7  -5081059.26729  21891661.228
 92  8 26 23  5  0.0030000  0  6G 3G17G26G28G21G23
  -1882708.681 7  -2215499.98827  22196920.851
 -13747909.065 7 -10900974.11129  21448945.024
   2938800.943 6  -1156904.10026  23855985.415
    992524.57415    -13579.83131  24810655.011
  -4013798.033 5  -3136313.78325  24382510.369
   1430112.376 7  -5106015.11729  21885563.690
 92  8 26 23  5 30.0030000  0  6G 3G17G26G28G21G23
  -1819953.252 7  -2166599.64027  22208861.765
 -13726313.820 7 -10884146.63629  21453054.310
   2957212.573 6  -1142557.36526  23859492.447
    897594.980 6    -87562.99821  24792595.184
  -4102260.890 6  -3205245.79825  24365680.830
   1398505.992 7  -5130643.42929  21879554.620
 92  8 26 23  6  0.0030000  0  6G 3G17G26G28G21G23
  -1756697.283 7  -2117309.31026  22220895.974
 -13704349.052 7 -10867031.22929  21457235.755
   2976184.312 6  -1127774.19426  23863097.182
    802839.755 5   -161401.78221  24774564.796
  -4190498.243 5  -3274002.06625  24348895.001
   1367359.523 7  -5154913.39329  21873622.356
 92  8 26 23  6 30.0030000  0  6G 3G17G26G28G21G23
  -1692904.259 7  -2067600.47226  22233036.699
 -13681984.302 7 -10849604.15029  21461490.859
   2995754.768 6  -1112524.47826  23866823.062
    708296.468 6   -235068.84522  24756571.102
  -4278482.577 6  -3342561.18225  24332156.599
   1336692.365 7  -5178809.86029  21867788.575
 92  8 26 23  7  0.0030000  0  6G 3G17G26G28G21G23
  -1628560.286 7  -2017462.32626  22245280.283
 -13659221.566 7 -10831866.95329  21465820.372
   3015944.985 6  -1096791.84426  23870670.419
    613992.285 5   -308552.57025  24738627.774
  -4366222.353 6  -3410929.72625  24315453.842
   1306522.204 7  -5202319.04529  21862047.070
 92  8 26 23  7 30.0030000  0  6G 3G17G26G28G21G23
  -1563665.779 7  -1966895.17226  22257631.642
 -13636072.166 7 -10813828.44629  21470224.173
   3036766.070 6  -1080567.60426  23874624.831
    519942.298 5   -381838.20125  24720726.507
  -4453711.856 6  -3479103.28425  24298806.546
   1276840.941 7  -5225447.27529  21856397.691
 92  8 26 23  8  0.0030000  0  6G 3G17G26G28G21G23
  -1498217.812 7  -1915896.78426  22270083.552
 -13612548.008 7 -10795497.94429  21474702.443
   3058217.451 6  -1063852.23726  23878717.988
    426151.476 5   -454921.88925  24702882.260
  -4540934.793 6  -3547069.11525  24282213.363
   1247654.202 7  -5248190.16229  21850844.095
 92  8 26 23  8 30.0030000  0  6G 3G17G26G28G21G23
  -1432211.722 7  -1864463.48326  22282646.805
 -13588658.299 7 -10776882.57129  21479249.575
   3080294.511 6  -1046649.35526  23882916.161
    332622.246 5   -527801.73825  24685088.469
  -4627871.354 6  -3614811.82725  24265666.229
   1218982.967 7  -5270531.36329  21845392.669
 92  8 26 23  9  0.0030000  0  6G 3G17G26G28G21G23
  -1365650.719 7  -1812597.78526  22295310.308
 -13564402.449 7 -10757981.89829  21483865.210
   3103005.763 6  -1028952.24926  23887237.550
    239347.981 5   -600482.98125  24667329.933
  -4714500.608 6  -3682315.02525  24249183.430
   1190838.576 7  -5292462.03829  21840034.299
 92  8 26 23  9 30.0040000  0  6G 3G17G26G28G21G23
  -1298531.910 7  -1760297.43026  22308085.064
 -13539758.209 7 -10738778.60529  21488553.484
   3126342.869 6  -1010767.49526  23891674.388
    146313.620 5   -672977.20525  24649634.023
  -4800801.282 6  -3749562.20925  24232755.313
   1163210.163 7  -5313990.65629  21834773.721
 92  8 26 23 10  0.0040000  0  6G 3G17G26G28G21G23
  -1230860.737 7  -1707566.66226  22320962.919
 -13514721.891 7 -10719269.77929  21493320.124
   3150307.175 6   -992094.01126  23896241.216
     53516.430 5   -745286.67825  24631962.157
  -4886766.304 6  -3816547.82825  24216406.730
   1136119.208 7  -5335100.46329  21829621.428
 92  8 26 23 10 30.0040000  0  6G 3G17G26G28G21G23
  -1162642.667 7  -1654409.75326  22333946.181
 -13489288.133 7 -10699451.27029  21498158.535
   3174919.694 6   -972915.40526  23900924.005
    -39055.253 5   -817420.35025  24614355.077
  -4972412.885 6  -3883285.38925  24200100.929
   1109562.124 7  -5355794.27829  21824569.085
 92  8 26 23 11  0.0040000  0  6G 3G17G26G28G21G23
  -1093881.586 7  -1600829.70126  22347028.614
 -13463458.058 7 -10679323.93529  21503073.872
   3200187.672 6   -953226.08326  23905724.491
   -131407.964 5   -889383.49925  24596782.682
  -5057765.173 6  -3949793.55025  24183857.304
   1083535.407 7  -5376074.80729  21819617.623
 92  8 26 23 11 30.0040000  0  6G 3G17G26G28G21G23
  -1024577.419 7  -1546826.46826  22360207.341
 -13437241.398 7 -10658895.36729  21508062.508
   3226102.610 6   -933032.60126  23910663.932
   -223537.747 5   -961172.86225  24579248.660
  -5142846.944 6  -4016090.95225  24167673.548
   1058038.252 7  -5395942.71229  21814762.274
 92  8 26 23 12  0.0040000  0  6G 3G17G26G28G21G23
   -954737.113 7  -1492405.46526  22373505.654
 -13410664.430 7 -10638186.04229  21513117.639
   3252673.643 6   -912327.90026  23915716.964
   -315437.356 5  -1032782.89825  24561762.845
  -5227671.674 6  -4082188.04625  24151524.058
   1033073.243 7  -5415395.94229  21810014.041
 92  8 26 23 12 30.0040000  0  6G 3G17G26G28G21G23
   -884363.184 7  -1437568.66126  22386901.461
 -13383733.341 7 -10617200.77829  21518248.167
   3279883.803 6   -891125.20126  23920891.861
   -407094.527 5  -1104204.01825  24544316.873
  -5312233.410 6  -4148080.20625  24135432.368
   1008619.171 7  -5434451.04129  21805359.674
 92  8 26 23 13  0.0040000  0  6G 3G17G26G28G21G23
   -813461.198 7  -1382320.37626  22400388.194
 -13356461.279 7 -10595949.81729  21523432.957
   3307696.427 6   -869453.01626  23926182.059
   -498492.192 6  -1175422.96525  24526924.444
  -5396512.086 6  -4213751.83725  24119401.596
    984662.552 7  -5453118.52029  21800801.449
 92  8 26 23 13 30.0040000  0  6G 3G17G26G28G21G23
   -742032.140 7  -1326661.39426  22413985.191
 -13328858.375 7 -10574441.07829  21528685.291
   3336096.865 6   -847322.79226  23931590.824
   -589609.598 6  -1246423.51225  24509583.968
  -5480487.050 6  -4279186.79225  24103423.407
    961194.633 7  -5471405.18829  21796334.602
 92  8 26 23 14  0.0040000  0  6G 3G17G26G28G21G23
   -670085.096 7  -1270598.77826  22427674.914
 -13300918.007 7 -10552669.34729  21534003.430
   3365070.231 6   -824746.14126  23937104.038
   -680445.514 6  -1317204.66925  24492309.807
  -5564156.736 6  -4344383.86725  24087501.370
    938207.571 7  -5489317.15229  21791959.730
 92  8 26 23 14 30.0040000  0  6G 3G17G26G28G21G23
   -597617.847 7  -1214130.81426  22441465.487
 -13272633.712 7 -10530629.64829  21539387.432
   3394597.834 6   -801737.62526  23942717.831
   -771000.184 6  -1387766.70425  24475070.421
  -5647534.382 6  -4409353.38925  24071635.064
    915701.206 7  -5506854.56929  21787681.122
 92  8 26 23 15  0.0040000  0  6G 3G17G26G28G21G23
   -524635.795 7  -1157261.69726  22455348.726
 -13244008.659 7 -10508324.42029  21544832.533
   3424679.594 6   -778297.27426  23948446.775
   -861287.986 6  -1458120.78925  24457890.874
  -5730650.935 6  -4474119.43525  24055814.536
    893688.551 7  -5524007.28229  21783487.415
 92  8 26 23 15 30.0040000  0  6G 3G17G26G28G21G23
   -451139.997 7  -1099992.23826  22469336.562
 -13215034.087 7 -10485746.82229  21550346.406
   3455328.112 6   -754415.31026  23954279.118
   -951329.368 6  -1528282.85525  24440754.108
  -5813533.157 6  -4538702.90725  24040034.540
    872187.818 7  -5540761.07829  21779395.968
 92  8 26 23 16  0.0040000  0  6G 3G17G26G28G21G23
   -377134.079 7  -1042325.33126  22483420.092
 -13185704.006 7 -10462892.22929  21555926.892
   3486542.733 6   -730092.21926  23960218.006
  -1041150.953 6  -1598273.65925  24423663.330
  -5896195.800 6  -4603115.30625  24024306.978
    851205.083 7  -5557111.24129  21775404.501
 92  8 26 23 16 30.0040000  0  6G 3G17G26G28G21G23
   -302621.300 7   -984263.45626  22497603.093
 -13156032.239 7 -10439771.38229  21561572.674
   3518326.638 6   -705325.56826  23966269.587
  -1130765.097 6  -1668102.82225  24406603.820
  -5978641.178 6  -4667358.39225  24008624.115
    830732.235 7  -5573064.09729  21771506.779
 92  8 26 23 17  0.0040000  0  6G 3G17G26G28G21G23
   -227603.174 7   -925807.76626  22511880.979
 -13126018.210 7 -10416383.81429  21567285.639
   3550694.713 6   -680103.68326  23972433.020
  -1220179.890 6  -1737776.64025  24389598.752
  -6060846.311 6  -4731414.20925  23992974.499
    810759.269 7  -5588627.41729  21767711.317
 92  8 26 23 17 30.0040000  0  6G 3G17G26G28G21G23
   -152081.335 7   -866959.62326  22526244.875
 -13095663.148 7 -10392730.53929  21573064.618
   3583659.049 6   -654417.18126  23978698.772
  -1309393.096 6  -1807293.41025  24372620.126
  -6142780.945 6  -4795259.33125  23977386.191
    791255.204 7  -5603825.39629  21763993.980
 92  8 26 23 18  0.0040000  0  6G 3G17G26G28G21G23
    -76057.519 7   -807720.33126  22540716.277
 -13064977.328 7 -10368819.50029  21578900.078
   3617226.202 6   -628260.95826  23985092.686
  -1398392.657 6  -1876643.66426  24355683.411
  -6224426.573 6  -4858879.26225  23961857.391
    772188.241 7  -5618682.74029  21760367.601
 92  8 26 23 18 30.0040000  0  6G 3G17G26G28G21G23
       471.657 7   -748087.19926  22555278.965
 -13033959.670 7 -10344649.89929  21584804.041
   3651414.050 6   -601621.06926  23991590.268
  -1487143.396 6  -1945800.00926  24338793.944
  -6305768.893 6  -4922262.80725  23946372.301
    753552.713 7  -5633203.93229  21756823.814
 92  8 26 23 19  0.0040000  0  6G 3G17G26G28G21G23
     77513.617 7   -688054.51826  22569941.185
 -13002596.412 7 -10320210.99229  21590773.059
   3686235.074 6   -574487.80826  23998223.026
  -1575619.040 6  -2014742.04326  24321954.511
  -6386795.116 6  -4985400.05025  23930951.847
    735366.301 7  -5647375.13429  21753356.715
 92  8 26 23 19 30.0040000  0  6G 3G17G26G28G21G23
    155062.813 7   -627626.61126  22584695.261
 -12970890.703 7 -10295505.25929  21596807.221
   3721677.189 6   -546870.59126  24004959.992
  -1663799.571 6  -2083454.10426  24305184.421
  -6467516.960 6  -5048300.10125  23915595.608
    717642.902 7  -5661185.57229  21749984.799
 92  8 26 23 20  0.0040000  0  6G 3G17G26G28G21G23
    233119.445 7   -566803.28526  22599543.622
 -12938842.442 7 -10270532.58429  21602902.242
   3757724.434 6   -518781.83526  24011824.010
  -1751670.577 5  -2151924.95926  24288450.276
  -6547949.997 6  -5110975.14425  23900289.104
    700415.505 7  -5674609.48929  21746711.005
 92  8 26 23 20 30.0040000  0  6G 3G17G26G28G21G23
    311677.061 6   -505589.57826  22614492.293
 -12906456.431 7 -10245296.73129  21609070.742
   3794356.121 6   -490237.66726  24018795.774
  -1839234.132 6  -2220156.27726  24271797.254
  -6628104.122 6  -5173432.85625  23885042.349
    683698.785 7  -5687635.49229  21743529.218
 92  8 26 23 21  0.0040000  0  6G 3G17G26G28G21G23
    390729.111 6   -443990.62126  22629539.866
 -12873731.148 7 -10219796.51129  21615295.812
   3831544.455 6   -461259.73126  24025869.916
  -1926501.292 6  -2288156.57026  24255188.752
  -6707982.453 6  -5235675.64025  23869832.769
    667490.720 7  -5700265.15129  21740441.236
 92  8 26 23 21 30.0040000  0  6G 3G17G26G28G21G23
    470271.662 6   -382009.44026  22644675.248
 -12840677.384 7 -10194040.34029  21621586.627
   3869276.407 6   -431858.22426  24033051.145
  -2013489.884 6  -2355939.89126  24238634.992
  -6787584.626 6  -5297703.23225  23854684.046
    651784.685 7  -5712503.59929  21737457.072
 92  8 26 23 22  0.0040000  0  6G 3G17G26G28G21G23
    550310.304 6   -319641.69026  22659906.413
 -12807282.266 7 -10168018.16129  21627939.289
   3907555.638 6   -402030.26926  24040338.200
  -2100210.322 6  -2423514.17826  24222136.094
  -6866907.138 6  -5359512.93425  23839589.256
    636585.684 7  -5724346.97429  21734562.545
 92  8 26 23 22 30.0040000  0  6G 3G17G26G28G21G23
    630841.481 6   -256890.15726  22675229.615
 -12773541.296 7 -10141726.52529  21634360.424
   3946384.024 6   -371774.38226  24047731.112
  -2186677.854 6  -2490891.43026  24205677.368
  -6945941.211 6  -5421097.87225  23824554.754
    621883.530 7  -5735803.17329  21731766.921
 92  8 26 23 23  0.0040000  0  6G 3G17G26G28G21G23
    711875.884 7   -193746.50226  22690652.348
 -12739441.068 7 -10115154.90829  21640851.560
   3985778.808 6   -341077.15126  24055217.589
  -2272893.395 6  -2558072.34326  24189273.175
  -7024675.895 6  -5482449.51725  23809563.662
    607699.370 7  -5746855.75329  21729065.701
 92  8 26 23 23 30.0040000  0  6G 3G17G26G28G21G23
    793410.649 6   -130212.95026  22706168.527
 -12704982.375 7 -10088303.97629  21647408.891
   4025759.973 6   -309923.02726  24062838.194
  -2358866.152 6  -2625064.07926  24172911.252
  -7103121.150 5  -5543575.58425  23794652.855
    594026.387 7  -5757510.00929  21726464.552
 92  8 26 23 24  0.0040000  0  6G 3G17G26G28G21G23
    875436.326 7    -66296.86526  22721775.872
 -12670171.328 7 -10061178.49829  21654028.398
   4066329.136 6   -278310.70626  24070557.130
  -2444585.320 6  -2691858.20126  24156599.754
  -7181282.935 6  -5604480.83025  23779772.296
    580846.829 7  -5767779.79929  21723956.968
 92  8 26 23 24 30.0040000  0  6G 3G17G26G28G21G23
    957951.174 7     -1999.59826  22737484.757
 -12635029.118 7 -10033794.94929  21660719.256
   4107487.767 6   -246239.03026  24078375.448
  -2530041.341 6  -2758447.25426  24140338.861
  -7259156.309 6  -5665161.34225  23764948.489
    568150.267 7  -5777673.20829  21721541.959
 92  8 26 23 25  0.0040000  0  6G 3G17G26G28G21G23
   1040948.179 6     62673.34726  22753269.070
 -12599571.964 7 -10006166.00829  21667467.045
   4149225.803 6   -213715.89226  24086323.006
  -2615223.812 6  -2824823.18626  24124126.864
  -7336752.853 6  -5725626.11126  23750183.830
    555921.157 7  -5787202.37629  21719215.270
 92  8 26 23 25 30.0040000  0  6G 3G17G26G28G21G23
   1124419.685 7    127716.04826  22769156.601
 -12563806.059 7  -9978296.47429  21674274.582
   4191523.613 6   -180756.59626  24094375.491
  -2700124.888 6  -2890979.83026  24107974.527
  -7414071.419 6  -5785874.27126  23735472.534
    544133.829 7  -5796387.31129  21716967.426
 92  8 26 23 26  0.0040000  0  6G 3G17G26G28G21G23
   1208358.133 7    193122.60226  22785133.051
 -12527742.577 7  -9950195.05829  21681136.412
   4234352.378 6   -147383.53026  24102521.542
  -2784750.163 6  -2956921.54226  24091870.845
  -7491109.600 6  -5845903.96926  23720802.790
    532791.108 7  -5805225.78329  21714812.938
 92  8 26 23 26 30.0040000  0  6G 3G17G26G28G21G23
   1292763.204 6    258892.75426  22801191.104
 -12491382.366 7  -9921862.44129  21688052.264
   4277702.704 6   -113604.06626  24110772.579
  -2869100.465 6  -3022649.06426  24075815.370
  -7567876.251 6  -5905722.09226  23706203.797
    521894.426 7  -5813716.70729  21712736.515
 92  8 26 23 27  0.0040000  0  6G 3G17G26G28G21G23
   1377637.856 6    325028.80126  22817338.975
 -12454702.373 7  -9893280.62329  21695035.629
   4321580.294 6    -79413.75026  24119125.457
  -2953163.670 6  -3088152.80026  24059816.256
  -7644365.328 6  -5965323.90626  23691645.605
    511436.792 7  -5821865.49629  21710751.709
 92  8 26 23 27 30.0040000  0  6G 3G17G26G28G21G23
   1462990.360 6    391537.22126  22833583.169
 -12417698.316 7  -9864446.29429  21702075.116
   4366013.509 6    -44790.49226  24127579.005
  -3036926.020 6  -3153422.11526  24043880.578
  -7720570.980 6  -6024704.87026  23677139.098
    501432.227 7  -5829661.25329  21708845.809
 92  8 26 23 28  0.0040000  0  6G 3G17G26G28G21G23
   1548828.072 6    458423.69326  22849918.051
 -12380375.174 7  -9835363.34229  21709176.240
   4411027.594 6     -9714.58526  24136142.996
  -3120363.785 6  -3218438.51326  24027996.464
  -7796495.754 6  -6083866.97026  23662698.095
    491893.328 7  -5837094.15729  21707031.855
 92  8 26 23 28 30.0040000  0  6G 3G17G26G28G21G23
   1635145.291 6    525683.82026  22866347.487
 -12342738.561 7  -9806036.09429  21716339.511
   4456626.907 6     25817.35626  24144816.411
  -3203466.322 6  -3283193.73826  24012181.243
  -7872148.470 6  -6142817.09626  23648301.552
    482802.751 7  -5844177.71229  21705300.163
 92  8 26 23 29  0.0040000  0  6G 3G17G26G28G21G23
   1721937.242 6    593313.88026  22882861.195
 -12304784.391 7  -9776461.44129  21723562.201
   4502804.789 6     61800.08426  24153609.414
  -3286242.495 6  -3347694.57626  23996434.614
  -7947528.060 6  -6201554.38726  23633951.476
    474166.463 7  -5850907.28929  21703658.650
 92  8 26 23 29 30.0040000  0  6G 3G17G26G28G21G23
   1809214.080 6    661321.79226  22899468.618
 -12266509.917 7  -9746637.16829  21730847.008
   4549555.622 6     98229.30426  24162503.297
  -3368693.273 6  -3411941.90326  23980747.134
  -8022623.352 6  -6260070.12626  23619665.766
    466008.692 7  -5857263.98129  21702103.866
 92  8 26 23 30  0.0040000  0  6G 3G17G26G28G21G23
   1896977.103 6    729708.50526  22916167.238
 -12227885.890 8  -9716540.54229  21738197.409
   4596858.853 6    135088.94126  24171508.253
  -3450823.732 6  -3475939.66026  23965119.463
  -8097427.492 6  -6318359.03626  23605428.412
    458333.564 7  -5863244.58729  21700642.138
 92  8 26 23 30 30.0040000  0  6G 3G17G26G28G21G23
   1985221.719 6    798470.52226  22932962.570
 -12188889.721 8  -9686153.91729  21745618.502
   4644701.092 6    172368.59026  24180611.631
  -3532660.819 6  -3539708.74626  23949546.354
  -8171940.268 6  -6376420.88726  23591249.698
    451141.875 7  -5868848.51229  21699274.035
 92  8 26 23 31  0.0040000  0  6G 3G17G26G28G21G23
   2073944.783 6    867605.32126  22949847.721
 -12149534.773 7  -9655487.72429  21753103.930
   4693075.500 6    210062.92826  24189815.319
  -3614210.762 6  -3603254.12026  23934022.081
  -8246160.875 6  -6434255.06426  23577124.916
    444434.339 7  -5874075.14829  21697998.029
 92  8 26 23 31 30.0040000  0  6G 3G17G26G28G21G23
   2163144.588 6    937111.63026  22966820.861
 -12109827.940 7  -9624547.34529  21760659.659
   4741987.952 6    248176.50726  24199125.224
  -3695470.797 6  -3666573.62126  23918560.585
  -8320079.062 6  -6491853.60526  23563059.943
    438209.318 7  -5878925.79929  21696809.831
 92  8 26 23 32  0.0040000  0  6G 3G17G26G28G21G23
   2252820.879 6   1006989.22026  22983887.836
 -12069769.138 8  -9593332.69129  21768287.458
   4791447.417 6    286716.33826  24208537.928
  -3776431.376 6  -3729659.74026  23903154.730
  -8393688.669 6  -6549211.69026  23549052.950
    432467.463 7  -5883399.96929  21695720.985
 92  8 26 23 32 30.0040000  0  6G 3G17G26G28G21G23
   2342977.100 6   1077240.78526  23001042.530
 -12029388.736 7  -9561867.44929  21775967.332
   4841462.318 6    325688.97426  24218055.169
  -3857079.005 6  -3792502.00526  23887809.164
  -8466975.342 6  -6606318.13526  23535105.136
    427218.134 7  -5887490.36229  21694721.867
 92  8 26 23 33  0.0040000  0  6G 3G17G26G28G21G23
   2433605.529 6   1147860.28926  23018288.870
 -11988712.505 7  -9530171.70029  21783707.793
   4892031.429 6    365093.46626  24227677.248
  -3937391.798 6  -3855083.37126  23872527.183
  -8539937.452 6  -6663171.67426  23521220.728
    422458.133 7  -5891199.45629  21693816.463
 92  8 26 23 33 30.0040000  0  6G 3G17G26G28G21G23
   2524703.975 6   1218846.03526  23035623.650
 -11947721.525 7  -9498230.68229  21791507.613
   4943157.863 6    404932.24426  24237404.794
  -4017365.851 6  -3917400.77726  23857306.510
  -8612578.058 6  -6719774.70226  23507401.974
    418198.298 7  -5894518.79129  21693004.146
 92  8 26 23 34  0.0040000  0  6G 3G17G26G28G21G23
   2616266.067 6   1290193.10126  23053046.058
 -11906429.542 7  -9466055.11629  21799368.351
   4994834.576 6    445199.78726  24247239.126
  -4096996.300 6  -3979450.46726  23842152.871
  -8684916.253 6  -6776142.08926  23493637.843
    414417.882 7  -5897464.57429  21692286.772
 92  8 26 23 34 30.0040000  0  6G 3G17G26G28G21G23
   2708288.089 6   1361898.52026  23070557.745
 -11864835.757 7  -9433644.38829  21807281.463
   5047061.752 6    485896.25826  24257173.049
  -4176273.396 6  -4041224.77926  23827069.503
  -8756956.502 6  -6832277.31326  23479925.486
    411104.065 7  -5900046.76029  21691655.949
 92  8 26 23 35  0.0040000  0  6G 3G17G26G28G21G23
   2800769.374 6   1433961.80126  23088157.211
 -11822917.778 7  -9400981.03629  21815258.221
   5099834.726 6    527018.06126  24267217.085
  -4255208.595 6  -4102732.69526  23812047.622
  -8828699.510 6  -6888180.89426  23466275.126
    408244.848 7  -5902274.71629  21691111.766
 92  8 26 23 35 30.0040000  0  6G 3G17G26G28G21G23
   2893708.242 6   1506381.66826  23105841.669
 -11780665.144 7  -9368056.91629  21823299.524
   5153137.954 6    568553.01026  24277360.503
  -4333816.886 6  -4163985.87326  23797086.210
  -8900145.727 6  -6943853.23126  23452681.037
    405820.247 7  -5904164.01429  21690650.175
 92  8 26 23 36  0.0040000  0  6G 3G17G26G28G21G23
   2987106.146 6   1579159.22426  23123616.693
 -11738083.666 7  -9334876.55929  21831401.445
   5206964.202 6    610495.53726  24287605.431
  -4412092.718 6  -4224980.01026  23782187.574
  -8971292.291 6  -6999292.08626  23439139.831
    403820.126 7  -5905722.54629  21690267.580
 92  8 26 23 36 30.0040000  0  6G 3G17G26G28G21G23
   3080959.240 6   1652291.46626  23141472.992
 -11695158.584 7  -9301428.44429  21839570.760
   5261303.088 6    652837.52926  24297944.313
  -4490037.426 6  -4285716.12526  23767360.139
  -9042131.928 6  -7054491.73226  23425660.053
    402263.559 7  -5906935.45729  21689971.235
 92  8 26 23 37  0.0040000  0  6G 3G17G26G28G21G23
   3175268.690 6   1725779.27226  23159420.637
 -11651893.112 7  -9267715.10029  21847801.832
   5316149.479 6    695574.94826  24308385.035
  -4567653.106 6  -4346195.82726  23752593.442
  -9112669.675 6  -7109456.16726  23412238.135
    401157.706 7  -5907797.15029  21689763.419
 92  8 26 23 37 30.0040000  0  6G 3G17G26G28G21G23
   3270026.240 6   1799616.30326  23177456.511
 -11608300.501 7  -9233746.83929  21856099.307
   5371502.245 6    738706.94926  24318916.714
  -4644923.780 6  -4406406.71926  23737892.849
  -9182915.941 6  -7164193.49026  23398867.151
    400493.683 7  -5908314.57329  21689636.847
 92  8 26 23 38  0.0040000  0  6G 3G17G26G28G21G23
   3365226.720 6   1873798.45126  23195564.125
 -11564406.466 7  -9199543.70829  21864451.495
   5427373.616 6    782243.06626  24329547.205
  -4721859.041 6  -4466356.23626  23723248.107
  -9252878.475 6  -7218709.72526  23385550.670
    400295.056 7  -5908469.35329  21689591.398
 92  8 26 23 38 30.0040000  0  6G 3G17G26G28G21G23
   3460873.585 6   1948328.41426  23213767.973
 -11520214.811 7  -9165108.66429  21872863.432
   5483780.219 6    826196.26826  24340276.327
  -4798461.175 6  -4526046.18526  23708672.438
  -9322541.961 6  -7272992.89626  23372300.263
    400570.992 7  -5908254.32529  21689649.708
 92  8 26 23 39  0.0040000  0  6G 3G17G26G28G21G23
   3556959.874 6   2023200.79726  23232054.983
 -11475741.364 7  -9130454.04129  21881325.404
   5540715.582 6    870561.47226  24351112.086
  -4874743.513 6  -4585486.95826  23694147.133
  -9391914.048 6  -7327049.03726  23359095.425
    401300.819 7  -5907685.63329  21689790.970
 92  8 26 23 39 30.0040000  0  6G 3G17G26G28G21G23
   3653483.893 6   2098414.27526  23250421.078
 -11430990.238 7  -9095583.03629  21889839.120
   5598188.301 6    915345.38626  24362057.089
  -4950709.817 6  -4644681.44026  23679700.255
  -9460990.849 6  -7380875.07726  23345952.254
    402494.043 7  -5906755.84929  21690014.166
 92  8 26 23 40  0.0040000  0  6G 3G17G26G28G21G23
   3750447.583 6   2173970.34225  23268874.833
 -11385956.707 7  -9060491.98529  21898409.287
   5656200.603 6    960549.76726  24373088.342
  -5026360.320 6  -4703629.86926  23665302.572
  -9529765.193 6  -7434465.46026  23332861.456
    404166.111 7  -5905452.93929  21690334.494
 92  8 26 23 40 30.0040000  0  6G 3G17G26G28G21G23
   3847852.174 6   2249870.01325  23287412.560
 -11340611.544 7  -9025158.09429  21907038.363
   5714749.423 6   1006172.19926  24384230.878
  -5101669.313 6  -4762312.15426  23650971.323
  -9598231.524 6  -7487815.80026  23319837.183
    406295.134 7  -5903793.95829  21690735.196
 92  8 26 23 41  0.0040000  0  6G 3G17G26G28G21G23
   3945690.422 6   2326107.53525  23306028.412
 -11294947.701 7  -8989575.88429  21915726.468
   5773820.998 6   1052201.96925  24395468.299
  -5176622.963 6  -4820717.58426  23636706.359
  -9666401.366 6  -7540935.12226  23306869.180
    408875.740 7  -5901783.09529  21691229.734
 92  8 26 23 41 30.0040000  0  6G 3G17G26G28G21G23
   4043962.874 6   2402683.43025  23324734.173
 -11248955.970 7  -8953738.19429  21924478.010
   5833423.373 6   1098645.36325  24406810.137
  -5251204.238 6  -4878832.85026  23622516.672
  -9734263.654 6  -7593814.80626  23293949.924
    411908.974 7  -5899419.53729  21691806.925
 92  8 26 23 42  0.0040000  0  6G 3G17G26G28G21G23
   4142671.158 6   2479598.90825  23343517.969
 -11202627.117 7  -8917637.79129  21933293.677
   5893546.044 6   1145494.20125  24418260.200
  -5325392.671 6  -4936641.97826  23608395.848
  -9801800.978 6  -7646441.24826  23281101.899
    415382.707 7  -5896712.72729  21692471.624
 92  8 26 23 42 30.0040000  0  6G 3G17G26G28G21G23
   4241810.447 6   2556850.27525  23362378.512
 -11155960.108 7  -8881273.90929  21942176.257
   5954181.642 6   1192742.70425  24429792.587
  -5399190.884 6  -4994147.05526  23594353.779
  -9869015.660 6  -7698816.30626  23268305.977
    419287.290 7  -5893670.20529  21693211.003
 92  8 26 23 43  0.0040000  0  6G 3G17G26G28G21G23
   4341387.296 6   2634442.57725  23381328.093
 -11108961.400 7  -8844651.53329  21951119.246
   6015328.060 6   1240389.22625  24441424.174
  -5472602.501 6  -5051350.89726  23580384.200
  -9935899.599 6  -7750933.62026  23255578.348
    423637.121 7  -5890280.72129  21694038.490
 92  8 26 23 43 30.0040000  0  6G 3G17G26G28G21G23
   4441400.606 6   2712374.95725  23400359.758
 -11061640.307 7  -8807777.96129  21960126.121
   6076987.296 6   1288435.37725  24453164.646
  -5545629.600 6  -5108255.07526  23566489.659
 -10002442.863 6  -7802785.47426  23242915.714
    428430.958 7  -5886545.25829  21694952.227
 92  8 26 23 44  0.0040000  0  6G 3G17G26G28G21G23
   4541846.793 6   2790644.65625  23419470.658
 -11014004.327 7  -8770659.03229  21969192.774
   6139147.800 6   1336872.09725  24464989.960
  -5618278.688 6  -5164864.73826  23552663.860
 -10068663.016 6  -7854385.55627  23230315.827
    433678.803 7  -5882456.02729  21695948.407
 92  8 26 23 44 30.0040000  0  6G 3G17G26G28G21G23
   4642722.507 6   2869249.04125  23438669.847
 -10966056.103 7  -8733296.79429  21978314.410
   6201808.296 6   1385698.45125  24476913.995
  -5690557.637 6  -5221185.97326  23538908.842
 -10134577.601 6  -7905747.55027  23217774.429
    439384.733 7  -5878009.84829  21697037.613
 92  8 26 23 45  0.0040000  0  6G 3G17G26G28G21G23
   4744027.238 6   2948187.74025  23457946.262
 -10917805.254 7  -8695698.73829  21987495.434
   6264963.218 6   1434910.04025  24488939.060
  -5762450.088 6  -5277206.03727  23525229.163
 -10200182.560 6  -7956868.25927  23205290.202
    445552.222 7  -5873204.00929  21698210.312
 92  8 26 23 45 30.0040000  0  6G 3G17G26G28G21G23
   4845758.933 6   3027459.13225  23477304.220
 -10869256.330 7  -8657868.41929  21996739.444
   6328605.748 6   1484501.61325  24501038.804
  -5833947.144 6  -5332918.00126  23511623.861
 -10265473.730 6  -8007744.46427  23192868.541
    452181.847 7  -5868038.05429  21699471.149
 92  8 26 23 46  0.0040000  0  6G 3G17G26G28G21G23
   4947913.967 6   3107060.43125  23496744.083
 -10820418.988 7  -8619813.34829  22006027.614
   6392724.252 6   1534464.06025  24513242.036
  -5905060.152 6  -5388330.70526  23498087.273
 -10330462.953 6  -8058385.39227  23180493.468
    459264.322 7  -5862519.26029  21700821.324
 92  8 26 23 46 30.0040000  0  6G 3G17G26G28G21G23
   5050490.581 6   3186990.18325  23516267.767
 -10771293.884 7  -8581534.07629  22015372.805
   6457323.952 6   1584801.45025  24525541.771
  -5975781.093 6  -5443437.92126  23484630.399
 -10395129.603 6  -8108774.94727  23168190.945
    466778.939 7  -5856663.71129  21702246.627
 92  8 26 23 47  0.0040000  0  6G 3G17G26G28G21G23
   5153483.541 6   3267244.39425  23535865.379
 -10721888.477 7  -8543036.37429  22024781.221
   6522398.429 6   1635508.79625  24537919.632
  -6046112.443 6  -5498241.55626  23471251.950
 -10459465.282 6  -8158906.62827  23155947.031
    474717.046 7  -5850478.16429  21703763.877
 92  8 26 23 47 30.0040000  0  6G 3G17G26G28G21G23
   5256890.490 6   3347821.15225  23555543.187
 -10672196.612 7  -8504315.44629  22034231.189
   6587951.014 6   1686588.74625  24550395.975
  -6116072.224 6  -5552755.65326  23457936.219
 -10523472.331 6  -8208782.21327  23143764.335
    483076.964 7  -5843963.94429  21705353.646
 92  8 26 23 48  0.0040000  0  6G 3G17G26G28G21G23
   5360707.836 6   3428717.71525  23575297.621
 -10622210.090 7  -8465364.93229  22043746.632
   6653980.009 6   1738039.88725  24562964.504
  -6185654.301 7  -5606975.42426  23444695.165
 -10587161.182 6  -8258409.85927  23131644.895
    491859.271 7  -5837120.60029  21707024.300
 92  8 26 23 48 30.0040000  0  6G 3G17G26G28G21G23
   5464931.998 6   3509931.34125  23595131.950
 -10571909.489 7  -8426169.66829  22053316.277
   6720481.196 6   1789858.92825  24575616.735
  -6254846.417 7  -5660891.32026  23431530.919
 -10650526.034 7  -8307785.02527  23119592.519
    501074.274 7  -5829940.07729  21708778.116
 92  8 26 23 49  0.0040000  0  6G 3G17G26G28G21G23
   5569562.851 6   3591461.82725  23615040.867
 -10521298.000 7  -8386732.16329  22062950.167
   6787448.270 6   1842041.05325  24588363.190
  -6323652.509 6  -5714506.44327  23418434.875
 -10713576.283 7  -8356915.07027  23107590.658
    510734.450 7  -5822412.64829  21710613.745
 92  8 26 23 49 30.0040000  0  6G 3G17G26G28G21G23
   5674607.173 6   3673314.48225  23635031.058
 -10470359.553 7  -8347039.87429  22072641.258
   6854896.083 6   1894597.75925  24601195.267
  -6392053.964 6  -5767806.28326  23405418.366
 -10776314.878 6  -8405802.25427  23095653.492
    520846.026 7  -5814533.51029  21712539.642
 92  8 26 23 50  0.0040000  0  6G 3G17G26G28G21G23
   5780064.935 6   3755489.26325  23655099.405
 -10419084.737 7  -8307085.48629  22082401.272
   6922832.729 6   1947535.39825  24614127.294
  -6460030.782 6  -5820775.20827  23392481.842
 -10838742.705 7  -8454447.29427  23083772.297
    531391.326 7  -5806316.38929  21714544.833
 92  8 26 23 50 30.0040000  0  6G 3G17G26G28G21G23
   5885937.918 6   3837987.63625  23675246.748
 -10367475.227 7  -8266870.30529  22092216.837
   6991275.993 6   2000867.75025  24627144.103
  -6527582.351 7  -5873412.78727  23379629.739
 -10900853.780 7  -8502845.50227  23071951.330
    542354.703 7  -5797773.50729  21716632.318
 92  8 26 23 51  0.0040000  0  6G 3G17G26G28G21G23
   5992224.021 6   3920807.91625  23695474.944
 -10315541.761 7  -8226402.67829  22102103.872
   7060227.589 6   2054596.25425  24640272.644
  -6594702.931 7  -5925714.50627  23366857.321
 -10962657.201 7  -8551003.99227  23060190.412
    553733.462 7  -5788906.94929  21718800.957
 92  8 26 23 51 30.0040000  0  6G 3G17G26G28G21G23
   6098913.393 6   4003942.45025  23715775.990
 -10263282.968 7  -8185681.54229  22112045.380
   7129676.053 6   2108711.91325  24653482.879
  -6661392.039 6  -5977680.02627  23354161.440
 -11024167.012 7  -8598933.68427  23048488.703
    565523.069 7  -5779720.22329  21721044.064
 92  8 26 23 52  0.0040000  0  6G 3G17G26G28G21G23
   6205996.191 6   4087383.51725  23736156.421
 -10210716.148 7  -8144720.41629  22122050.473
   7199600.415 6   2163198.40825  24666793.844
  -6727663.577 6  -6029320.16227  23341553.219
 -11085383.394 7  -8646634.71627  23036838.948
    577722.512 7  -5770214.16029  21723362.179
 92  8 26 23 52 30.0040000  0  6G 3G17G26G28G21G23
   6313470.556 6   4171129.70625  23756605.504
 -10157858.956 7  -8103532.99129  22132110.609
   7269988.311 6   2218046.09125  24680185.483
  -6793521.645 6  -6080638.11227  23329023.303
 -11146294.945 7  -8694098.23427  23025249.751
    590359.401 7  -5760367.23329  21725767.354
 92  8 26 23 53  0.0040000  0  6G 3G17G26G28G21G23
   6421336.408 6   4255180.96625  23777126.538
 -10104708.675 7  -8062117.20029  22142221.559
   7340830.081 6   2273247.46325  24693669.488
  -6858968.622 7  -6131635.73727  23316571.753
 -11206891.341 7  -8741316.17927  23013720.693
    603446.225 7  -5750169.72329  21728255.062
 92  8 26 23 53 30.0040000  0  6G 3G17G26G28G21G23
   6529590.400 6   4339534.66125  23797730.044
 -10051264.191 7  -8020472.17029  22152390.579
   7412126.576 6   2328803.13025  24707237.435
  -6924016.740 6  -6182322.55427  23304190.864
 -11267154.641 7  -8788274.56327  23002246.646
    616968.218 7  -5739633.09529  21730830.399
 92  8 26 23 54  0.0040000  0  6G 3G17G26G28G21G23
   6638229.089 6   4424188.10725  23818401.244
  -9997536.700 7  -7978606.60129  22162614.431
   7483877.794 6   2384713.13025  24720889.414
  -6988668.954 6  -6232700.89227  23291886.303
 -11327064.486 7  -8834957.53127  22990849.916
    630914.270 7  -5728766.03129  21733481.554
 92  8 26 23 54 30.0040000  0  6G 3G17G26G28G21G23
   6747260.478 6   4509147.57725  23839146.432
  -9943509.700 7  -7936507.63929  22172897.492
   7556094.922 6   2440986.20925  24734629.412
  -7052915.121 6  -6282762.81527  23279660.706
 -11386604.015 7  -8881351.92927  22979519.110
    645284.574 7  -5717568.40029  21736217.939
 92  8 26 23 55  0.0040000  0  6G 3G17G26G28G21G23
   6856687.397 6   4594415.21925  23859979.100
  -9889161.549 7  -7894158.45129  22183244.739
   7628781.925 6   2497625.40725  24748461.567
  -7116756.173 6  -6332509.06627  23267512.696
 -11445767.250 7  -8927453.12827  22968259.835
    660073.279 7  -5706044.74029  21739035.959
 92  8 26 23 55 30.0040000  0  6G 3G17G26G28G21G23
   6966506.157 6   4679988.21325  23880876.493
  -9834498.707 7  -7851564.02729  22193642.471
   7701931.815 6   2554625.29325  24762381.950
  -7180185.177 6  -6381934.24027  23255442.092
 -11504563.046 7  -8973267.98327  22957072.240
    675291.145 7  -5694186.65129  21741929.705
 92  8 26 23 56  0.0040000  0  6G 3G17G26G28G21G23
   7076708.994 6   4765860.50525  23901839.661
  -9779534.852 7  -7808735.08129  22204102.680
   7775526.663 6   2611971.89725  24776388.493
  -7243188.256 6  -6431027.54027  23243452.493
 -11563014.979 7  -9018814.92927  22945952.068
    690945.123 7  -5681988.74829  21744910.782
 92  8 26 23 56 30.0040000  0  6G 3G17G26G28G21G23
   7187291.794 6   4852028.83925  23922891.657
  -9724273.884 7  -7765674.58229  22214618.769
   7849558.934 6   2669659.36625  24790475.501
  -7305755.815 6  -6479781.44727  23231550.013
 -11621139.211 7  -9064106.50727  22934884.030
    707045.584 7  -5669442.93929  21747970.643
 92  8 26 23 57  0.0040000  0  6G 3G17G26G28G21G23
   7298251.507 6   4938490.83425  23944002.202
  -9668733.934 7  -7722396.71529  22225185.854
   7924026.809 6   2727686.24725  24804648.969
  -7367869.396 6  -6528181.61727  23219728.746
 -11678953.807 7  -9109156.81727  22923888.992
    723599.116 7  -5656544.07229  21751121.312
 92  8 26 23 57 30.0040000  0  6G 3G17G26G28G21G23
   7409593.161 6   5025250.51925  23965193.122
  -9612924.730 7  -7678909.04529  22235805.762
   7998930.544 6   2786052.73525  24818894.897
  -7429499.045 6  -6576204.69827  23208000.056
 -11736465.842 7  -9153971.35927  22912940.781
    740611.082 7  -5643287.99629  21754359.131
 92  8 26 23 58  0.0040000  0  6G 3G17G26G28G21G23
   7521308.339 6   5112301.22425  23986451.435
  -9556846.908 7  -7635212.04029  22246478.164
   8074262.489 6   2844752.92425  24833232.351
  -7490652.843 7  -6623856.99127  23196361.393
 -11793676.321 7  -9198550.91927  22902055.197
    758052.923 7  -5629696.95729  21757678.613
 92  8 26 23 58 30.0040000  0  6G 3G17G26G28G21G23
   7633398.529 6   5199644.14825  24007776.842
  -9500482.966 7  -7591292.09229  22257204.228
   8150034.812 6   2903796.27725  24847652.818
  -7551343.411 6  -6671148.31527  23184811.829
 -11850579.201 7  -9242890.81027  22891227.203
    775915.526 7  -5615778.04629  21761075.351
 92  8 26 23 59  0.0040000  0  6G 3G17G26G28G21G23
   7745863.690 6   5287279.28525  24029175.128
  -9443814.265 7  -7547134.69029  22267990.581
   8226253.229 6   2963187.22925  24862158.006
  -7611575.719 7  -6718082.57027  23173352.262
 -11907170.881 7  -9286988.19527  22880460.607
    794189.679 7  -5601538.44829  21764549.856
 92  8 26 23 59 30.0040000  0  6G 3G17G26G28G21G23
   7858699.325 6   5375203.03325  24050658.016
  -9386824.367 7  -7502726.99529  22278833.205
   8302915.794 6   3022924.27225  24876742.939
  -7671367.670 7  -6764673.66927  23161978.076
 -11963439.490 7  -9330833.83627  22869747.823
    812853.596 7  -5586995.12029  21768107.043
 92  8 27  0  0  0.0040000  0  6G 3G17G26G28G21G23
   7971902.062 6   5463412.90425  24072191.149
  -9329504.085 7  -7458061.85729  22289739.804
   8380037.322 6   3083018.93725  24891427.074
  -7730732.645 7  -6810932.06527  23150674.492
 -12019377.834 7  -9374422.12827  22859104.441
    831894.072 7  -5572158.39929  21771730.065
 92  8 27  0  0 30.0040000  0  6G 3G17G26G28G21G23
   8085473.040 6   5551909.71625  24093807.294
  -9271856.390 7  -7413141.57529  22300710.829
   8457627.077 6   3143478.45525  24906192.752
  -7789660.488 7  -6856849.83227  23139459.915
 -12074982.065 7  -9417750.06027  22848524.406
    851320.827 7  -5557020.66429  21775429.144
 92  8 27  0  1  0.0040000  0  6G 3G17G26G28G21G23
   8199412.668 6   5640693.78025  24115485.497
  -9213901.368 7  -7367981.84329  22311739.444
   8535676.883 6   3204296.40825  24921036.855
  -7848138.033 7  -6902416.73727  23128339.504
 -12130247.242 7  -9460813.81927  22838006.817
    871147.602 7  -5541571.23829  21779195.647
 92  8 27  0  1 30.0040000  0  6G 3G17G26G28G21G23
   8313718.114 6   5729762.90025  24137242.605
  -9155659.279 7  -7322598.40629  22322821.063
   8614178.830 6   3265466.77925  24935977.402
  -7906155.740 7  -6947625.30927  23117293.771
 -12185169.928 7  -9503610.68027  22827556.561
    891376.012 7  -5525808.82629  21783047.890
 92  8 27  0  2  0.0040000  0  6G 3G17G26G28G21G23
   8428389.383 6   5819117.04625  24159053.166
  -9097143.602 7  -7277001.78229  22333956.194
   8693121.885 6   3326980.84125  24951005.878
  -7963710.632 7  -6992473.26827  23106344.960
 -12239748.830 7  -9546139.67027  22817171.541
    912025.859 7  -5509718.03229  21786977.299
 92  8 27  0  2 30.0040000  0  6G 3G17G26G28G21G23
   8543425.368 6   5908755.38925  24180946.079
  -9038360.344 7  -7231196.66029  22345138.033
   8772477.530 6   3388816.34925  24966100.608
  -8020789.712 7  -7036950.46427  23095476.314
 -12293990.351 7  -9588405.75427  22806849.986
    933102.329 7  -5493294.82629  21790989.782
 92  8 27  0  3  0.0040000  0  6G 3G17G26G28G21G23
   8658821.057 6   5998674.05625  24202912.352
  -8979316.047 7  -7185188.13129  22356379.021
   8852232.146 6   3450962.77525  24981277.901
  -8077387.918 7  -7081052.92628  23084713.915
 -12347893.961 7  -9630408.53427  22796586.621
    954590.159 7  -5476551.04729  21795075.713
 92  8 27  0  3 30.0040000  0  6G 3G17G26G28G21G23
   8774575.652 6   6088872.36125  24224935.286
  -8919987.791 7  -7138958.32929  22367671.753
   8932389.438 6   3513422.96825  24996528.314
  -8133503.193 7  -7124779.10928  23074034.109
 -12401448.206 7  -9672139.08027  22786404.740
    976463.298 7  -5459507.05129  21799239.081
 92  8 27  0  4  0.0040000  0  6G 3G17G26G28G21G23
   8890684.795 6   6179346.92725  24247038.654
  -8860361.084 7  -7092495.97429  22379019.737
   9012945.394 5   3576193.79525  25011856.702
  -8189134.381 7  -7168128.08328  23063445.589
 -12454652.082 7  -9713596.62127  22776275.922
    998706.570 7  -5442174.61529  21803470.861
 92  8 27  0  4 30.0040000  0  6G 3G17G26G28G21G23
   9007149.304 6   6270098.42625  24269199.583
  -8800427.477 7  -7045794.47429  22390422.973
   9093919.348 6   3639290.37925  25027264.355
  -8244266.522 7  -7211088.16428  23052953.812
 -12507498.121 7  -9754775.32627  22766219.804
   1021314.056 7  -5424558.40129  21807771.804
 92  8 27  0  5  0.0040000  0  6G 3G17G26G28G21G23
   9123969.670 6   6361127.19725  24291424.996
  -8740170.658 7  -6998841.14129  22401890.334
   9175329.215 6   3702726.60125  25042761.947
  -8298910.342 7  -7253667.73428  23042555.061
 -12559975.936 7  -9795667.08027  22756232.818
   1044299.980 7  -5406647.28329  21812150.722
 92  8 27  0  5 30.0040000  0  6G 3G17G26G28G21G23
   9241143.322 6   6452431.23425  24313716.604
  -8679576.679 7  -6951625.05129  22413415.825
   9257177.068 6   3766504.11125  25058338.114
  -8353078.247 7  -7295876.49028  23032251.524
 -12612098.883 7  -9836282.35127  22746312.146
   1067688.377 7  -5388422.56129  21816598.533
 92  8 27  0  6  0.0040000  0  6G 3G17G26G28G21G23
   9358666.272 6   6544007.49325  24336085.349
  -8618654.679 7  -6904153.37629  22425007.061
   9339461.806 5   3830622.02825  25073991.867
  -8406760.708 7  -7337706.95628  23022034.987
 -12663878.688 7  -9876630.21427  22736461.745
   1091513.235 7  -5369857.72929  21821134.303
 92  8 27  0  6 30.0040000  0  6G 3G17G26G28G21G23
   9476534.503 6   6635852.80325  24358511.863
  -8557415.295 7  -6856434.39529  22436665.180
   9422187.021 5   3895083.23525  25089737.596
  -8459963.761 7  -7379163.86628  23011910.306
 -12715329.352 7  -9916721.63328  22726669.534
   1115783.036 7  -5350946.20129  21825751.077
 92  8 27  0  7  0.0040000  0  6G 3G17G26G28G21G23
   9594745.221 6   6727964.95325  24381006.550
  -8495854.297 7  -6808464.79429  22448379.180
   9505341.560 6   3959878.93925  25105558.334
  -8512691.681 7  -7420250.54628  23001872.835
 -12766451.541 7  -9956557.05028  22716944.387
   1140497.423 7  -5331688.22829  21830455.630
 92  8 27  0  7 30.0040000  0  6G 3G17G26G28G21G23
   9713300.921 5   6820345.96925  24403569.920
  -8433986.094 7  -6760255.81529  22460147.683
   9588925.735 6   4025009.40525  25121457.707
  -8564924.128 7  -7460951.12328  22991934.175
 -12817232.033 7  -9996126.24728  22707278.148
   1165648.103 7  -5312090.30129  21835242.296
 92  8 27  0  8  0.0040000  0  6G 3G17G26G28G21G23
   9832195.536 5   6912991.00625  24426198.585
  -8371832.272 7  -6711824.29129  22471976.504
   9672928.717 5   4090466.26725  25137454.392
  -8616658.199 7  -7501263.37128  22982086.503
 -12867662.536 7 -10035422.70828  22697677.925
   1191214.107 7  -5292168.73729  21840107.148
 92  8 27  0  8 30.0040000  0  6G 3G17G26G28G21G23
   9951424.977 5   7005896.96725  24448885.019
  -8309406.129 7  -6663180.56128  22483855.691
   9757335.945 5   4156238.10425  25153507.769
  -8667911.468 7  -7541200.97628  22972333.175
 -12917739.245 7 -10074443.49828  22688150.850
   1217171.707 7  -5271942.05029  21845046.559
 92  8 27  0  9  0.0040000  0  6G 3G17G26G28G21G23
  10070982.214 6   7099058.33725  24471630.303
  -8246711.444 7  -6614327.57729  22495788.959
   9842119.352 5   4222303.02825  25169646.047
  -8718688.651 7  -7580767.59328  22962675.720
 -12967461.156 7 -10113187.81828  22678690.689
   1243522.083 7  -5251409.28129  21850062.237
 92  8 27  0  9 30.0040000  0  6G 3G17G26G28G21G23
  10190873.613 6   7192480.11525  24494450.565
  -8183743.268 7  -6565261.46328  22507771.664
   9927280.474 5   4288662.34025  25185853.127
  -8768972.728 7  -7619949.97328  22953104.277
 -13016823.944 7 -10151652.29028  22669300.680
   1270273.882 7  -5230563.72029  21855149.205
 92  8 27  0 10  0.0040000  0  7G 3G11G17G26G28G21G23
  10311099.454 5   7286162.54125  24517333.783
    -14709.28715    -21654.14831  26471423.805
  -8120482.535 7  -6515967.40028  22519809.171
  10012813.691 5   4355311.57925  25202127.960
  -8818748.591 7  -7658736.33128  22943632.154
 -13065831.985 7 -10189840.34328  22659971.558
   1297431.144 7  -5209402.22229  21860319.666
 92  8 27  0 10 30.0040000  0  7G 3G11G17G26G28G21G23
  10431658.416 6   7380104.48225  24540284.485
   -112766.760 5    -98063.57021  26452760.285
  -8056922.425 7  -6466440.06928  22531904.237
  10098719.455 5   4422251.09625  25218476.962
  -8868004.809 7  -7697117.79528  22934258.303
 -13114486.099 7 -10227752.61928  22650714.627
   1324988.541 7  -5187928.91929  21865561.657
 92  8 27  0 11  0.0040000  0  7G 3G11G17G26G28G21G23
  10552545.961 5   7474302.44325  24563271.401
   -210826.285 5   -174473.49121  26434103.001
  -7993050.763 7  -6416669.94528  22544055.545
  10185004.329 5   4489486.02325  25234893.237
  -8916729.711 7  -7735085.23628  22924989.950
 -13162793.070 7 -10265394.38828  22641520.921
   1352936.126 7  -5166151.58729  21870882.283
 92  8 27  0 11 30.0040000  0  6G 3G17G26G28G21G23
  10673762.545 5   7568756.85925  24586340.401
  -7928862.843 7  -6366653.41128  22556272.418
  10271680.971 6   4557026.20725  25251397.441
  -8964904.329 7  -7772623.88428  22915821.277
 -13210751.298 7 -10302764.40628  22632398.686
   1381262.506 7  -5144079.07529  21876267.425
 92  8 27  0 12  0.0040000  0  7G 3G11G17G26G28G21G23
  10795308.771 6   7663468.11325  24609475.145
    178147.51715    -90286.22031  26396782.648
  -7864358.115 7  -6316389.99628  22568544.722
  10358750.883 6   4624872.86625  25267960.195
  -9012533.141 7  -7809737.23128  22906761.879
 -13258369.915 7 -10339869.79928  22623332.753
   1409962.026 7  -5121715.80829  21881731.473
 92  8 27  0 12 30.0040000  0  7G 3G11G17G26G28G21G23
  10917178.576 6   7758431.50925  24632661.813
     80104.316 6   -166683.01921  26378123.085
  -7799544.036 7  -6265885.53028  22580886.008
  10446212.784 5   4693024.97025  25284593.850
  -9059648.008 7  -7846450.07728  22897792.928
 -13305658.097 7 -10376717.70028  22614331.874
   1439036.472 7  -5099060.39029  21887265.371
 92  8 27  0 13  0.0040000  0  7G 3G11G17G26G28G21G23
  11039368.250 5   7853644.16425  24655917.703
    -17932.653 6   -243075.46221  26359476.774
  -7734410.656 7  -6215132.25828  22593275.171
  10534060.556 5   4761477.70725  25301316.633
  -9106242.376 7  -7882757.36228  22888927.076
 -13352616.842 7 -10413308.89928  22605401.116
   1468500.356 7  -5076101.53229  21892874.039
 92  8 27  0 13 30.0040000  0  7G 3G11G17G26G28G21G23
  11161873.840 5   7949102.93925  24679226.237
   -115962.625 6   -319462.36722  26340818.351
  -7668975.297 7  -6164143.67928  22605728.520
  10622282.999 6   4830222.44825  25318107.799
  -9152319.900 7  -7918661.91728  22880156.707
 -13399236.443 7 -10449635.83928  22596528.759
   1498358.517 7  -5052835.42829  21898552.857
 92  8 27  0 14  0.0040000  0  7G 3G11G17G26G28G21G23
  11284691.171 5   8044804.69825  24702605.582
   -213985.859 6   -395843.99223  26322165.954
  -7603258.429 7  -6112935.75028  22618235.951
  10710878.554 6   4899257.89925  25334970.825
  -9197900.771 7  -7954179.45228  22871486.260
 -13445508.162 7 -10485691.70328  22587723.524
   1528613.694 7  -5029259.96129  21904311.571
 92  8 27  0 14 30.0040000  0  7G 3G11G17G26G28G21G23
  11407821.382 5   8140750.23225  24726022.851
   -311996.295 5   -472215.66623  26303509.419
  -7537257.143 7  -6061506.18928  22630792.878
  10799845.332 6   4968582.64025  25351900.105
  -9242967.738 7  -7989296.55928  22862908.118
 -13491412.097 7 -10521460.99128  22578990.270
   1559271.306 7  -5005370.91829  21910146.611
 92  8 27  0 15  0.0040000  0  7G 3G11G17G26G28G21G23
  11531266.527 5   8236941.10425  24749513.508
   -409988.031 6   -548572.82522  26284864.937
  -7470985.225 7  -6009865.75228  22643405.537
  10889185.225 6   5038198.12525  25368896.988
  -9287487.163 7  -8023987.00928  22854433.945
 -13536931.215 7 -10556930.39428  22570326.448
   1590322.935 7  -4981174.83329  21916050.454
 92  8 27  0 15 30.0040000  0  7G 3G11G17G26G28G21G23
  11655024.162 5   8333375.57825  24773060.737
   -507958.743 5   -624913.63823  26266217.906
  -7404460.243 7  -5958028.11928  22656064.663
  10978897.150 6   5108103.46725  25385974.486
  -9331472.863 7  -8058261.56728  22846068.596
 -13582071.487 7 -10592104.60728  22561733.737
   1621755.532 7  -4956681.90629  21922033.322
 92  8 27  0 16  0.0040000  0  7G 3G11G17G26G28G21G23
  11779252.163 5   8430176.53325  24796713.462
   -605746.301 5   -701111.63924  26247615.934
  -7337504.620 7  -5905854.92428  22668807.911
  11069143.788 6   5178425.46725  25403141.531
  -9374748.820 7  -8091983.07028  22837831.678
 -13626682.419 7 -10626866.34728  22553241.846
   1653728.802 7  -4931767.65829  21928119.499
 92  8 27  0 16 30.0040000  0  7G 3G11G17G26G28G21G23
  11903844.402 5   8527261.27725  24820412.656
   -703451.865 5   -777245.78424  26229021.007
  -7270200.976 7  -5853410.54128  22681614.175
  11159819.191 6   5249081.57925  25420395.576
  -9417393.590 7  -8125212.76128  22829716.386
 -13670874.526 7 -10661301.73228  22544833.507
   1686130.969 7  -4906519.22129  21934285.240
 92  8 27  0 17  0.0040000  0  7G 3G11G17G26G28G21G23
  12028729.946 5   8624574.62925  24844185.628
   -801142.653 5   -853368.48025  26210426.619
  -7202612.449 7  -5800744.17228  22694475.212
  11250858.109 6   5320020.93625  25437718.994
  -9459485.422 7  -8158011.57728  22821708.150
 -13714714.905 7 -10695463.04928  22536495.739
   1718887.721 7  -4880994.47329  21940517.266
 92  8 27  0 17 30.0040000  0  7G 3G11G17G26G28G21G23
  12153906.055 5   8722114.33025  24868013.043
   -898816.539 5   -929477.89025  26191848.631
  -7134714.191 7  -5747836.46028  22707393.509
  11342256.070 5   5391240.08425  25455110.704
  -9501045.217 7  -8190395.82728  22813799.026
 -13758206.768 7 -10729352.77328  22528216.131
   1751990.978 7  -4855199.72529  21946817.524
 92  8 27  0 18  0.0040000  0  7G 3G11G17G26G28G21G23
  12279377.773 5   8819884.38325  24891880.390
   -996464.015 5  -1005566.72225  26173264.106
  -7066494.486 7  -5694678.27028  22720377.580
  11434024.757 6   5462748.12625  25472576.522
  -9542063.159 7  -8222357.83228  22805992.250
 -13801326.147 7 -10762952.27028  22520009.702
   1785447.212 7  -4829129.92629  21953182.568
 92  8 27  0 18 30.0040000  0  7G 3G11G17G26G28G21G23
  12405145.708 5   8917885.30625  24915817.498
  -1094079.934 5  -1081631.02325  26154679.072
  -6997967.640 7  -5641280.74228  22733414.625
  11526154.270 5   5534537.32425  25490108.625
  -9582554.652 7  -8253909.64228  22798285.605
 -13844068.747 7 -10796258.17528  22511876.362
   1819257.273 7  -4802784.43229  21959618.363
 92  8 27  0 19  0.0040000  0  7G 3G11G17G26G28G21G23
  12531205.001 5   9016113.19625  24939799.816
  -1191664.295 5  -1157670.71725  26136112.866
  -6929155.635 7  -5587661.01328  22746510.968
  11618638.366 5   5606602.79325  25507706.922
  -9622529.960 7  -8285059.22028  22790677.862
 -13886432.943 7 -10829269.21628  22503819.620
   1853427.444 7  -4776158.32629  21966121.940
 92  8 27  0 19 30.0040000  0  7G 3G11G17G26G28G21G23
  12657553.718 5   9114566.62925  24963839.064
  -1289214.910 5  -1233684.12825  26117552.025
  -6860070.251 7  -5533828.25628  22759660.645
  11711460.110 5   5678931.40025  25525381.966
  -9661973.546 7  -8315794.45128  22783173.847
 -13928430.192 7 -10861994.31128  22495826.763
   1887973.585 7  -4749239.25929  21972695.639
 92  8 27  0 20  0.0050000  0  7G 3G11G17G26G28G21G23
  12784192.993 5   9213246.46125  24987947.804
  -1386733.481 5  -1309672.52525  26099004.555
  -6790718.908 7  -5479788.26828  22772857.389
  11804623.338 5   5751526.06625  25543099.820
  -9700856.075 7  -8346092.50628  22775772.901
 -13970068.111 7 -10894439.40928  22487900.011
   1922914.430 7  -4722012.62629  21979345.186
 92  8 27  0 20 30.0050000  0  7G 3G11G17G26G28G21G23
  12911115.430 5   9312146.96625  25012100.973
  -1484207.479 5  -1385626.19925  26080451.719
  -6721095.270 7  -5425536.08527  22786106.597
  11898123.505 5   5824383.28125  25560896.250
  -9739155.989 7  -8375936.58028  22768484.676
 -14011361.023 7 -10926615.68028  22480043.170
   1958250.968 7  -4694477.67229  21986066.983
 92  8 27  0 21  0.0050000  0  7G 3G11G17G26G28G21G23
  13038326.149 5   9411272.07825  25036306.366
  -1581634.995 5  -1461543.68625  26061913.453
  -6651175.685 7  -5371053.32727  22799408.298
  11991981.163 5   5897519.04225  25578748.951
  -9776859.970 7  -8405316.29129  22761307.405
 -14052304.299 7 -10958519.50428  22472251.204
   1993987.573 7  -4666630.96629  21992868.404
 92  8 27  0 21 30.0050000  0  7G 3G11G17G26G28G21G23
  13165819.231 5   9510617.25725  25060579.752
  -1679017.210 5  -1537425.81525  26043373.897
  -6580947.543 7  -5316330.11227  22812773.376
  12086201.000 5   5970937.09125  25596686.043
  -9813978.624 7  -8434239.89829  22754246.273
 -14092907.575 7 -10990158.40228  22464526.332
   2030114.777 7  -4638479.89829  21999744.024
 92  8 27  0 22  0.0050000  0  7G 3G11G17G26G28G21G23
  13293593.464 5   9610181.52425  25084882.997
  -1776350.477 5  -1613269.87325  26024852.599
  -6510413.800 7  -5261368.74527  22826193.585
  12180802.503 5   6044652.52525  25614680.905
  -9850524.035 7  -8462716.82729  22747292.917
 -14133159.139 7 -11021523.22729  22456864.206
   2066612.200 7  -4610040.34029  22006686.708
 92  8 27  0 22 30.0050000  0  7G 3G11G17G26G28G21G23
  13421644.185 5   9709961.16325  25109236.457
  -1873635.079 5  -1689075.97925  26006343.623
  -6439582.849 7  -5206175.82727  22839677.920
  12275772.866 5   6118655.31625  25632759.140
  -9886527.417 7  -8490771.38229  22740442.959
 -14173057.933 7 -11052613.17529  22449278.048
   2103460.443 7  -4581327.43629  22013700.772
 92  8 27  0 23  0.0050000  0  7G 3G11G17G26G28G21G23
  13549965.636 5   9809951.78425  25133658.900
  -1970871.837 5  -1764844.78625  25987840.133
  -6368472.048 7  -5150764.82927  22853206.145
  12371084.480 5   6192924.09025  25650887.620
  -9921999.716 7  -8518412.11729  22733695.560
 -14212596.239 7 -11083422.21529  22441754.667
   2140656.868 7  -4552343.20929  22020779.232
 92  8 27  0 23 30.0050000  0  7G 3G11G17G26G28G21G23
  13678554.323 5   9910150.69425  25158137.973
   2243809.39915    -32818.05431  25969333.914
  -6297096.410 7  -5095147.47327  22866789.831
  12466710.402 5   6267437.76125  25669092.697
  -9956935.252 7  -8545634.61829  22727042.206
 -14251782.840 7 -11113957.20129  22434294.631
   2178198.214 7  -4523090.20829  22027922.986
 92  8 27  0 24  0.0050000  0  6G 3G17G26G28G21G23
  13807405.401 5  10010554.01725  25182655.780
  -6225461.050 7  -5039327.72027  22880418.816
  12562630.439 5   6342180.55425  25687345.351
  -9991319.507 7  -8572427.51729  22720502.833
 -14290624.919 7 -11144223.74229  22426899.950
   2216083.981 7  -4493568.83529  22035134.884
 92  8 27  0 24 30.0050000  0  7G 3G11G17G26G28G21G23
  13936515.420 5  10111159.08825  25207227.160
     22730.75315    -85736.81131  25932385.753
  -6153545.072 7  -4983289.30927  22894110.277
  12658829.404 5   6417140.75525  25705642.884
 -10025142.398 7  -8598783.00929  22714063.861
 -14329132.788 7 -11174229.84429  22419572.813
   2254334.441 7  -4463763.29329  22042410.337
 92  8 27  0 25  0.0050000  0  7G 3G11G17G26G28G21G23
  14065885.177 5  10211966.54625  25231843.298
    -74301.958 5   -161343.39621  25913907.325
  -6081347.553 7  -4927031.53127  22907839.872
  12755317.334 5   6492326.11525  25724016.804
 -10058384.971 7  -8624686.30229  22707736.741
 -14367306.820 7 -11203975.82629  22412310.730
   2292968.235 7  -4433659.03029  22049761.937
 92  8 27  0 25 30.0050000  0  7G 3G11G17G26G28G21G23
  14195516.516 5  10312977.89625  25256509.083
   -171272.655 5   -236904.98324  25895465.892
  -6008853.451 7  -4870542.63727  22921637.101
  12852126.939 5   6567762.16725  25742439.830
 -10091045.561 7  -8650136.10329  22701524.442
 -14405137.001 7 -11233453.85429  22405109.655
   2331987.487 7  -4403254.43029  22057190.225
 92  8 27  0 26  0.0050000  0  7G 3G11G17G26G28G21G23
  14325409.069 5  10414192.76525  25281225.532
   -268176.548 5   -312414.49625  25877016.125
  -5936055.942 7  -4813817.32927  22935490.630
  12949280.070 5   6643465.83025  25760920.686
 -10123138.091 7  -8675143.24529  22695416.680
 -14442607.386 7 -11262651.54329  22397977.173
   2371392.538 7  -4372549.19329  22064684.976
 92  8 27  0 26 30.0050000  0  7G 3G11G17G26G28G21G23
  14455567.070 5  10515614.44925  25306003.678
   -365004.436 5   -387864.68625  25858596.126
  -5862957.100 7  -4756857.21827  22949399.831
  13046794.248 5   6719450.86425  25779479.338
 -10154666.784 7  -8699711.05729  22689416.394
 -14479693.539 7 -11291549.81829  22390926.024
   2411179.207 7  -4341546.60029  22072257.284
 92  8 27  0 27  0.0050000  0  7G 3G11G17G26G28G21G23
  14585984.606 5  10617238.37225  25330817.650
   -461757.544 5   -463256.62725  25840188.030
  -5789572.446 7  -4699674.38127  22963363.144
  13144668.675 5   6795716.64225  25798107.842
 -10185628.992 7  -8723837.44829  22683527.840
 -14516393.470 7 -11320147.14329  22383939.601
   2451313.675 7  -4310272.98029  22079897.315
 92  8 27  0 27 30.0050000  0  7G 3G11G17G26G28G21G23
  14716662.159 5  10719064.93625  25355684.985
   -558430.348 5   -538586.04425  25821788.148
  -5715888.457 7  -4642258.30827  22977390.104
  13242897.338 6   6872258.41025  25816804.818
 -10216012.139 7  -8747512.60129  22677743.225
 -14552697.982 7 -11348436.34729  22377024.828
   2491783.674 7  -4278737.91429  22087596.255
 92  8 27  0 28  0.0050000  0  7G 3G11G17G26G28G21G23
  14847588.064 5  10821085.02525  25380596.269
   -655029.919 5   -613858.39425  25803412.429
  -5641919.564 7  -4584620.24527  22991464.970
  13341441.943 5   6949046.37525  25835554.947
 -10245804.873 7  -8770727.71929  22672071.991
 -14588618.361 7 -11376426.23229  22370193.817
   2532578.760 7  -4246949.54429  22095356.473
 92  8 27  0 28 30.0050000  0  7G 3G11G17G26G28G21G23
  14978762.580 5  10923298.78825  25405557.978
   -751550.642 5   -689069.31025  25785040.638
  -5567658.716 7  -4526754.65527  23005597.276
  13440282.997 5   7026065.31225  25854360.479
 -10274971.827 7  -8793455.21129  22666524.572
 -14624163.749 7 -11404123.91729  22363429.390
   2573703.947 7  -4214903.95729  22103181.956
 92  8 27  0 29  0.0050000  0  7G 3G11G17G26G28G21G23
  15110180.875 5  11025702.58125  25430572.601
   -847993.069 5   -764219.09025  25766685.815
  -5493107.798 7  -4468663.05727  23019781.657
  13539399.304 5   7103298.75625  25873216.315
 -10303503.299 7  -8815687.50329  22661093.711
 -14659344.113 7 -11431537.16929  22356737.213
   2615167.217 7  -4182594.90429  22111075.521
 92  8 27  0 29 30.0050000  0  7G 3G11G17G26G28G21G23
  15241842.098 5  11128295.58425  25455619.062
   -944352.716 5   -839304.45325  25748358.213
  -5418269.298 7  -4410347.36427  23034023.148
  13638786.752 6   7180743.48725  25892129.562
 -10331401.454 7  -8837426.30729  22655788.434
 -14694141.830 7 -11458652.25129  22350114.947
   2656993.250 7  -4150003.19829  22119034.651
 92  8 27  0 30  0.0050000  0  7G 3G11G17G26G28G21G23
  15373742.559 5  11231075.08625  25480731.716
  -1040628.529 5   -914324.50625  25730038.165
  -5343154.510 7  -4351816.37227  23048318.391
  13738449.784 6   7258402.95325  25911092.994
 -10358682.884 7  -8858684.55929  22650591.112
 -14728557.335 7 -11485469.48729  22343567.810
   2699182.688 7  -4117128.29729  22127063.243
 92  8 27  0 30 30.0050000  0  7G 3G11G17G26G28G21G23
  15505884.407 5  11334042.65024  25505861.190
  -1136813.219 5   -989273.58125  25711732.358
  -5267757.240 7  -4293065.26927  23062663.101
  13838403.385 6   7336288.82825  25930112.786
 -10385362.601 7  -8879473.93329  22645520.542
 -14762597.416 7 -11511994.20629  22337089.775
   2741722.283 7  -4083980.58329  22135159.018
 92  8 27  0 31  0.0050000  0  7G 3G11G17G26G28G21G23
  15638260.487 5  11437192.68625  25531057.667
  -1232908.777 5  -1064153.12925  25693434.555
  -5192085.249 7  -4234100.11227  23077069.627
  13938657.864 5   7414409.15125  25949197.065
 -10411465.159 7  -8899813.57529  22640549.114
 -14796254.941 7 -11538220.84929  22330687.797
   2784597.115 7  -4050571.60129  22143317.750
 92  8 27  0 31 30.0050000  0  7G 3G11G17G26G28G21G23
  15770865.061 5  11540520.82525  25556296.894
  -1328916.422 5  -1138964.23725  25675169.040
  -5116141.998 7  -4174923.55327  23091518.454
  14039213.089 5   7492763.81825  25968324.333
 -10437008.860 7  -8919717.74429  22635692.206
 -14829537.988 7 -11564155.66429  22324350.604
   2827788.621 7  -4016915.90029  22151537.220
 92  8 27  0 32  0.0050000  0  7G 3G11G17G26G28G21G23
  15903690.794 5  11644021.26625  25581579.141
  -1424837.949 5  -1213708.21325  25656913.898
  -5039938.877 6  -4115544.51827  23106014.949
  14140062.463 5   7571347.68625  25987514.768
 -10461997.436 7  -8939189.34929  22630933.091
 -14862479.085 7 -11589824.02229  22318082.453
   2871269.779 7  -3983034.47629  22159811.672
 92  8 27  0 32 30.0050000  0  7G 3G11G17G26G28G21G23
  16036741.121 5  11747696.70425  25606885.762
  -1520665.208 5  -1288378.76425  25638686.067
  -4963465.145 7  -4055954.64927  23120568.793
  14241200.840 5   7650156.77825  26006759.345
 -10486416.427 7  -8958217.13629  22626287.627
 -14895077.707 7 -11615225.54129  22311875.670
   2915056.717 7  -3948914.78129  22168143.863
 92  8 27  0 33  0.0050000  0  7G 3G11G17G26G28G21G23
  16170014.161 5  11851545.71225  25632246.555
  -1616395.263 5  -1362973.55125  25620464.561
  -4886725.633 7  -3996157.62927  23135172.883
  14342624.605 5   7729188.22825  26026066.429
 -10510265.647 7  -8976800.92029  22621751.467
 -14927326.715 7 -11640354.61329  22305738.618
   2959176.735 7  -3914535.55229  22176535.564
 92  8 27  0 33 30.0050000  0  7G 3G11G17G26G28G21G23
  16303504.742 5  11955564.20125  25657649.439
  -1712027.730 6  -1437492.30925  25602270.967
  -4809722.788 6  -3936155.42827  23149827.098
  14444323.268 5   7808433.90425  26045418.482
 -10533544.147 7  -8994939.99629  22617319.905
 -14959238.361 7 -11665220.80229  22299667.222
   3003635.020 7  -3879892.72929  22184997.446
 92  8 27  0 34  0.0050000  0  7G 3G11G17G26G28G21G23
  16437208.775 5  12059749.06425  25683100.170
  -1807561.928 5  -1511934.52625  25584088.284
  -4732445.081 7  -3875939.06927  23164534.646
  14546300.340 5   7887896.45025  26064823.958
 -10556236.209 7  -9012622.11129  22613000.795
 -14990824.838 7 -11689833.61729  22293659.171
   3048441.328 7  -3844978.73229  22193524.952
 92  8 27  0 34 30.0050000  0  6G 3G11G17G28G21G23
  16571124.594 5  12164098.90025  25708583.338
   1917807.42015    -43052.91331  25565928.386
  -4654876.373 7  -3815495.94727  23179294.598
 -10578333.498 7  -9029840.77729  22608796.266
 -15022073.488 7 -11714183.19829  22287713.387
   3093614.546 7  -3809778.82629  22202121.651
 92  8 27  0 35  0.0050000  0  7G 3G11G17G26G28G21G23
  16705248.461 5  12268610.95125  25734093.338
   1822477.948 6   -117336.49121  25547788.304
  -4577022.431 7  -3754830.54127  23194105.905
      3420.49915     11994.15431  26103800.185
 -10599821.879 7  -9046584.95729  22604703.350
 -15052977.456 7 -11738264.18729  22281830.260
   3139133.066 7  -3774309.84829  22210781.996
 92  8 27  0 35 30.0050000  0  6G 3G11G17G28G21G23
  16839577.532 5  12373282.73625  25759668.513
   1727253.896 6   -191538.93821  25529668.908
  -4498885.787 7  -3693944.88227  23208977.259
 -10620679.420 7  -9062837.57729  22600742.342
 -15083533.948 7 -11762074.41629  22276013.777
   3184974.839 7  -3738588.99229  22219507.905
 92  8 27  0 36  0.0050000  0  6G 3G11G17G28G21G23
  16974109.840 5  12478112.97725  25785279.572
   1632138.451 6   -265646.05321  25511570.317
  -4420468.063 7  -3632840.16327  23223900.658
 -10640900.134 7  -9078593.97029  22596892.557
 -15113728.586 7 -11785602.69129  22270271.042
   3231130.430 7  -3702623.60029  22228290.235
 92  8 27  0 36 30.0050000  0  6G 3G11G17G28G21G23
  17108841.479 5  12583098.50425  25810893.180
   1537132.616 5   -339676.56424  25493489.864
  -4341791.516 7  -3571533.79627  23238870.345
 -10660493.898 7  -9093861.81229  22593160.740
 -15143530.377 7 -11808824.84329  22264596.271
   3277587.007 7  -3666423.66929  22237133.003
 92  8 27  0 37  0.0050000  0  7G 3G11G17G26G28G21G23
  17243771.642 5  12688238.78825  25836583.386
   1442241.117 5   -413617.94425  25475427.998
  -4262863.627 7  -3510031.57227  23253893.005
      8667.92515     26906.12131  26182295.894
 -10679460.856 7  -9108641.25629  22589552.228
 -15172929.121 7 -11831732.94029  22259007.240
   3324329.339 7  -3630001.10529  22246023.289
 92  8 27  0 37 30.0050000  0  7G 3G11G17G26G28G21G23
  17378902.163 5  12793535.14725  25862302.101
   1347470.516 5   -487465.12225  25457394.822
  -4183673.976 6  -3448325.36527  23268958.745
    112430.186 5    107759.54721  26202037.827
 -10697807.119 7  -9122937.03329  22586057.068
 -15201931.279 7 -11854332.00129  22253489.410
   3371372.635 7  -3593343.97329  22254977.759
 92  8 27  0 38  0.0050000  0  7G 3G11G17G26G28G21G23
  17514226.896 5  12898982.85225  25888043.331
   1252819.994 5   -561218.73325  25439380.234
  -4104223.322 6  -3386415.78527  23284079.617
    216455.987 5    188820.99122  26221835.251
 -10715543.006 7  -9136757.18729  22582687.701
 -15230544.379 7 -11876627.91429  22248044.609
   3418733.247 7  -3556439.62029  22263988.292
 92  8 27  0 38 30.0050000  0  7G 3G11G17G26G28G21G23
  17649743.307 5  13004579.93425  25913839.092
   1158292.492 5   -634876.45625  25421392.386
  -4024508.912 6  -3324300.68527  23299246.058
    320765.965 5    270101.55223  26241685.619
 -10732665.626 7  -9150099.48429  22579422.181
 -15258787.995 7 -11898635.91029  22242666.452
   3466430.294 7  -3519273.07929  22273064.478
 92  8 27  0 39  0.0050000  0  7G 3G11G17G26G28G21G23
  17785445.015 5  13110321.34525  25939657.159
   1063886.593 5   -708439.42825  25403432.989
  -3944523.647 6  -3261974.52427  23314466.910
    425350.943 5    351596.33924  26261586.322
 -10749172.813 7  -9162962.21629  22576287.192
 -15286702.962 7 -11920387.81229  22237354.550
   3514468.362 7  -3481840.82929  22282207.579
 92  8 27  0 39 30.0050000  0  6G11G17G26G28G21G23
    969611.032 6   -781900.85525  25385491.460
  -3864261.542 6  -3199432.63227  23329741.606
    530199.554 5    433296.43224  26281544.405
 -10765066.559 7  -9175346.92129  22573261.386
 -15314293.286 7 -11941886.75329  22232105.454
   3562863.803 7  -3444130.09429  22291415.374
 92  8 27  0 40  0.0050000  0  6G11G17G26G28G21G23
    875472.285 5   -855255.68425  25367578.441
  -3783714.600 6  -3136668.83927  23345068.525
    635303.033 5    515195.20124  26301545.299
 -10780350.989 7  -9187256.85729  22570354.119
 -15341543.623 7 -11963120.76729  22226917.755
   3611608.952 7  -3406146.87329  22300693.231
 92  8 27  0 40 30.0050000  0  7G 3G11G17G26G28G21G23
 -16880362.80915     95584.33031  26017341.150
    781477.828 6   -928498.07725  25349693.003
  -3702882.186 6  -3073682.53527  23360451.986
    740657.344 5    597289.49725  26321593.200
 -10795029.057 7  -9198694.29929  22567557.685
 -15368451.900 7 -11984088.24129  22221796.101
   3660682.066 7  -3367908.07929  22310033.625
 92  8 27  0 41  0.0050000  0  7G 3G11G17G26G28G21G23
 -16743904.957 5    201915.17721  26043307.583
    687625.872 6  -1001629.39725  25331831.338
  -3621774.271 6  -3010481.57427  23375886.740
    846240.861 5    679562.36124  26341678.755
 -10809106.347 7  -9209663.60629  22564880.149
 -15395004.003 7 -12004778.16829  22216744.778
   3710050.495 7  -3329439.17129  22319428.041
 92  8 27  0 41 30.0050000  0  7G 3G11G17G26G28G21G23
 -16607261.018 5    308391.24321  26069320.275
    593922.527 6  -1074644.92825  25314006.968
  -3540388.262 6  -2947063.93427  23391372.670
    952058.444 5    762017.49324  26361818.183
 -10822578.745 7  -9220161.56329  22562318.812
 -15421175.557 7 -12025171.57829  22211766.664
   3759705.360 7  -3290747.07229  22328876.211
 92  8 27  0 42  0.0050000  0  7G 3G11G17G26G28G21G23
   -295581.60515     67240.75331  26095353.473
    500370.199 6  -1147542.79425  25296199.745
  -3458728.746 6  -2883433.16727  23406916.249
   1058099.999 5    844647.30525  26381990.948
 -10835423.250 7  -9230170.27329  22559872.715
 -15446961.677 7 -12045264.63729  22206857.862
   3809649.560 7  -3251829.51729  22338377.203
 92  8 27  0 42 30.0050000  0  7G 3G11G17G26G28G21G23
   -158572.418 5    174002.44621  26121429.421
    406973.437 6  -1220319.45125  25278424.481
  -3376812.482 6  -2819602.33227  23422503.388
   1164370.268 5    927455.33325  26402218.185
 -10847620.629 7  -9239674.71529  22557552.831
 -15472361.463 7 -12065056.67029  22202021.221
   3859892.097 7  -3212679.47529  22347939.953
 92  8 27  0 43  0.0050000  0  7G 3G11G17G26G28G21G23
    -21386.601 5    280900.69021  26147523.296
    313731.846 6  -1292975.15325  25260686.301
  -3294637.799 6  -2755570.13326  23438139.184
   1270865.460 5   1010438.53825  26422479.538
 -10859165.168 7  -9248670.45229  22555353.434
 -15497365.852 7 -12084540.58829  22197268.281
   3910440.561 7  -3173291.07129  22357556.306
 92  8 27  0 43 30.0050000  0  7G 3G11G17G26G28G21G23
    115972.093 5    387933.94921  26173675.152
    220647.163 6  -1365508.65825  25242965.868
  -3212207.304 6  -2691338.60626  23453821.657
   1377589.255 5   1093599.81925  26442792.785
 -10870052.933 7  -9257154.41329  22553282.917
 -15521977.087 7 -12103718.14929  22192580.096
   3961315.858 7  -3133647.98429  22367241.131
 92  8 27  0 44  0.0050000  0  7G 3G11G17G26G28G21G23
    253498.793 5    495097.58122  26199837.950
    127719.823 6  -1437919.54525  25225282.340
  -3129528.142 6  -2626913.32226  23469562.110
   1484541.133 5   1176939.00825  26463143.297
 -10880295.950 7  -9265135.98929  22551332.797
 -15546200.372 7 -12122593.42429  22187974.295
   4012519.670 7  -3093748.92229  22376984.116
 92  8 27  0 44 30.0050000  0  7G 3G11G17G26G28G21G23
    391190.721 5    602389.85522  26226032.915
     34952.567 6  -1510205.61425  25207629.331
  -3046589.673 6  -2562285.94326  23485335.301
   1591738.140 5   1260469.16325  26483544.714
 -10889916.329 7  -9272632.36829  22549504.693
 -15570039.528 7 -12141169.36129  22183437.836
   4064034.109 7  -3053607.78429  22386789.398
 92  8 27  0 45  0.0050000  0  7G 3G11G17G26G28G21G23
    529044.767 5    709808.36423  26252272.550
    -57653.096 6  -1582365.83525  25190014.186
  -2963370.419 6  -2497439.79426  23501172.107
   1699169.939 5   1344182.12325  26503990.349
 -10898922.533 7  -9279650.18829  22547790.479
 -15593503.000 7 -12159452.58029  22178974.645
   4115858.430 7  -3013225.20329  22396648.313
 92  8 27  0 45 30.0050000  0  6G11G17G26G28G21G23
   -150091.367 6  -1654395.62625  25172422.275
  -2879863.425 6  -2432369.44926  23517068.692
   1806836.354 5   1428077.95625  26524470.281
 -10907314.510 7  -9286189.39329  22546195.434
 -15616599.955 7 -12177450.19529  22174571.144
   4167995.055 7  -2972599.26629  22406571.174
 92  8 27  0 46  0.0050000  0  6G11G17G26G28G21G23
   -242361.640 6  -1726294.46525  25154865.199
  -2796070.489 6  -2367076.26026  23533018.460
   1914740.191 5   1512158.82725  26544991.195
 -10915100.016 7  -9292256.00329  22544706.964
 -15639340.035 7 -12195169.71529  22170252.574
   4220420.513 7  -2931748.26029  22416546.768
 92  8 27  0 46 30.0050000  0  5G11G17G28G21G23
   -334464.759 6  -1798063.06725  25137337.473
  -2711997.252 6  -2301564.67926  23549009.180
 -10922265.278 7  -9297839.31629  22543348.575
 -15661732.586 7 -12212618.43929  22165984.638
   4273126.763 7  -2890678.45229  22426573.326
 92  8 27  0 47  0.0050000  0  5G11G17G28G21G23
   -426393.449 6  -1869695.76125  25119843.114
  -2627649.699 6  -2235839.31826  23565062.796
 -10928787.734 7  -9302921.74029  22542107.464
 -15683768.947 7 -12229789.61929  22161792.550
   4326124.741 7  -2849381.32429  22436661.193
 92  8 27  0 47 30.0050000  0  5G11G17G28G21G23
   -518144.264 6  -1941189.84525  25102379.185
  -2543052.763 6  -2169919.65826  23581154.247
 -10934664.258 7  -9307500.81929  22540986.630
 -15705441.528 7 -12246677.31029  22157671.393
   4379404.909 7  -2807864.31529  22446799.424
 92  8 27  0 48  0.0050000  0  5G11G17G28G21G23
   -609716.427 6  -2012544.68425  25084959.714
  -2458219.748 6  -2103816.04026  23597308.233
 -10939888.177 7  -9311571.42029  22539987.301
 -15726746.197 7 -12263278.33129  22153618.589
   4432953.855 7  -2766137.86329  22456990.269
 92  8 27  0 48 30.0050000  0  5G11G17G28G21G23
   -701106.159 6  -2083757.46225  25067563.627
  -2373145.925 6  -2037524.75426  23613496.457
 -10944455.850 7  -9315130.64129  22539126.507
 -15747677.815 7 -12279588.66429  22149632.908
   4486779.474 7  -2724195.84329  22467234.537
 92  8 27  0 49  0.0050000  0  5G11G17G28G21G23
   -792309.309 6  -2154824.76925  25050208.432
  -2287827.067 6  -1971042.55826  23629730.338
 -10948386.235 7  -9318193.26129  22538376.007
 -15768231.386 7 -12295604.42329  22145722.565
   4540882.712 7  -2682037.48129  22477529.860
 92  8 27  0 49 30.0050000  0  5G11G17G28G21G23
   -883328.265 6  -2225748.55825  25032896.946
  -2202255.742 6  -1904363.63326  23646014.075
 -10951698.372 7  -9320774.14729  22537745.873
 -15788422.205 7 -12311337.51229  22141880.125
   4595255.222 7  -2639669.29929  22487871.920
 92  8 27  0 50  0.0050000  0  5G11G17G28G21G23
   -974159.336 6  -2296525.97425  25015610.133
  -2116412.010 6  -1837472.44926  23662347.098
 -10954395.205 7  -9322875.57329  22537232.149
 -15808260.165 7 -12326795.63729  22138101.541
   4649904.083 7  -2597085.76829  22498274.719
 92  8 27  0 50 30.0050000  0  5G11G17G28G21G23
  -1064798.563 6  -2367153.88725  24998353.090
  -2030275.184 6  -1770352.86626  23678739.330
 -10956477.701 7  -9324498.28229  22536838.611
 -15827750.395 7 -12341982.81829  22134392.329
   4704851.632 7  -2554269.50529  22508732.049
 92  8 27  0 51  0.0050000  0  5G11G17G28G21G23
  -1155240.341 6  -2437627.99425  24981144.194
  -1943843.944 6  -1703003.85526  23695190.441
 -10957928.955 7  -9325629.12229  22536560.404
 -15846895.251 7 -12356900.85929  22130753.208
   4760108.975 7  -2511211.83229  22519243.462
 92  8 27  0 51 30.0050000  0  5G11G17G28G21G23
  -1245483.835 6  -2507947.53025  24963971.662
  -1857128.062 6  -1635433.06626  23711690.089
 -10958723.564 7  -9326248.30329  22536413.026
 -15865694.534 7 -12371549.63929  22127172.397
   4815674.010 7  -2467914.40929  22529817.622
 92  8 27  0 52  0.0050000  0  5G11G17G28G21G23
  -1335528.105 6  -2578111.84825  24946838.583
  -1770147.220 6  -1567655.81626  23728238.422
 -10958848.446 7  -9326345.61129  22536383.676
 -15884140.590 7 -12385923.17929  22123664.915
   4871551.235 7  -2424373.72029  22540450.751
 92  8 27  0 52 30.0050000  0  5G11G17G28G21G23
  -1425365.208 6  -2648114.74625  24929744.507
  -1682909.205 6  -1499678.14526  23744843.147
 -10958291.775 7  -9325911.82629  22536490.073
 -15902218.814 7 -12400010.08229  22120226.896
   4927735.866 7  -2380593.49329  22551145.697
 92  8 27  0 53  0.0050000  0  5G11G17G28G21G23
  -1514989.694 6  -2717951.97425  24912683.468
  -1595432.635 6  -1431514.62126  23761487.295
 -10957058.395 7  -9324950.75729  22536727.538
 -15919921.361 7 -12413804.26129  22116859.057
   4984204.141 7  -2336592.24629  22561888.400
 92  8 27  0 53 30.0050000  0  5G11G17G28G21G23
  -1604402.264 6  -2787624.04425  24895675.582
  -1507720.715 6  -1363167.68726  23778177.820
 -10955169.094 7  -9323478.56529  22537086.869
 -15937250.765 7 -12427307.66729  22113559.631
   5040940.139 7  -2292382.38729  22572683.986
 92  8 27  0 54  0.0050000  0  5G11G17G28G21G23
  -1693599.448 6  -2857128.31025  24878697.946
  -1419768.432 6  -1294633.46926  23794915.623
 -10952640.833 7  -9321508.47829  22537568.726
 -15954197.841 7 -12440513.17929  22110334.014
   5097947.868 7  -2247960.77729  22583534.824
 92  8 27  0 54 30.0050000  0  5G11G17G28G21G23
  -1782572.665 6  -2926458.06225  24861765.068
  -1331564.443 6  -1225903.13326  23811697.135
 -10949479.388 7  -9319045.02329  22538169.360
 -15970764.091 7 -12453421.92029  22107184.665
   5155224.252 7  -2203329.83929  22594431.201
 92  8 27  0 55  0.0050000  0  5G11G17G28G21G23
  -1871323.542 6  -2995614.54025  24844876.380
  -1243118.454 6  -1156984.19726  23828529.612
 -10945688.196 7  -9316090.82729  22538891.410
 -15986954.105 7 -12466037.49129  22104101.629
   5212772.581 7  -2158486.99429  22605383.579
 92  8 27  0 55 30.0050000  0  5G11G17G28G21G23
  -1959852.460 6  -3064598.08525  24828033.290
  -1154436.069 6  -1087881.04226  23845401.842
 -10941258.867 7  -9312639.39929  22539735.985
 -16002770.635 7 -12478362.04529  22101088.265
   5270605.052 7  -2113422.73429  22616392.677
 92  8 27  0 56  0.0050000  0  5G11G17G28G21G23
  -2048156.636 6  -3133406.50425  24811230.133
  -1065527.880 6  -1018601.96126  23862323.207
 -10936193.506 7  -9308692.36229  22540695.831
 -16018219.048 7 -12490399.75429  22098152.847
   5328718.560 7  -2068139.49129  22627447.254
 92  8 27  0 56 30.0050000  0  5G11G17G28G21G23
  -2136233.799 6  -3202038.00725  24794471.704
   -976378.181 6   -949134.69126  23879285.974
 -10930488.770 7  -9304247.09329  22541781.799
 -16033319.440 7 -12502166.27729  22095272.801
   5387108.719 7  -2022640.67629  22638558.702
 92  8 27  0 57  0.0050000  0  5G11G17G28G21G23
  -2224080.559 6  -3270489.97025  24777756.326
   -886983.466 6   -879476.50026  23896297.697
 -10924136.447 7  -9299297.22529  22542991.312
 -16048066.765 7 -12513657.69229  22092473.789
   5445778.267 7  -1976924.14529  22649725.611
 92  8 27  0 57 30.0050000  0  5G11G17G28G21G23
  -2311693.401 6  -3338759.71225  24761076.413
   -797329.811 6   -809616.52626  23913361.974
 -10917142.080 7  -9293847.07229  22544323.290
 -16062466.569 7 -12524878.31429  22089727.540
   5504721.554 7  -1930994.32229  22660938.419
 92  8 27  0 58  0.0050000  0  5G11G17G28G21G23
  -2399071.446 6  -3406846.43325  24744450.164
   -707404.774 6   -739545.10126  23930471.999
 -10909513.921 7  -9287903.05629  22545774.495
 -16076519.683 7 -12535828.77829  22087059.207
   5563929.035 7  -1884858.61129  22672207.347
 92  8 27  0 58 30.0050000  0  5G11G17G28G21G23
  -2486209.665 6  -3474746.31626  24727867.983
   -617197.646 6   -669253.87526  23947640.783
 -10901238.750 7  -9281454.87429  22547348.106
 -16090215.449 7 -12546500.78829  22084449.963
   5623406.557 7  -1838512.51329  22683525.322
 92  8 27  0 59  0.0050000  0  5G11G17G28G21G23
  -2573101.757 6  -3542454.40726  24711332.031
   -526734.684 6   -598763.27226  23964856.005
 -10892306.029 7  -9274494.30229  22549048.349
 -16103537.534 7 -12556881.62629  22081917.736
   5683145.796 7  -1791962.44229  22694894.292
 92  8 27  0 59 30.0050000  0  5G11G17G28G21G23
  -2659746.983 6  -3609970.10126  24694845.184
   -436019.419 6   -528076.08226  23982110.291
 -10882719.688 7  -9267024.43129  22550870.127
 -16116483.215 7 -12566969.15429  22079449.815
   5743139.870 7  -1745213.82929  22706312.787
 92  8 27  1  0  0.0050000  0  5G11G17G28G21G23
  -2746138.456 6  -3677288.09226  24678416.348
   -345051.381 6   -457191.91126  23999422.436
 -10872475.595 7  -9259042.01429  22552823.155
 -16129044.730 7 -12576757.33329  22077063.527
   5803388.402 7  -1698266.92429  22717772.833
 92  8 27  1  0 30.0050000  0  5G11G17G28G21G23
  -2832276.635 6  -3744408.68026  24662011.854
   -253842.934 6   -386120.42126  24016785.425
 -10861566.808 7  -9250541.66129  22554898.019
 -16141224.477 7 -12586248.03029  22074740.645
   5863877.996 7  -1651132.17928  22729285.703
 92  8 27  1  1  0.0050000  0  5G11G17G28G21G23
  -2918157.282 6  -3811328.64926  24645669.478
   -162403.293 6   -314868.77826  24034184.390
 -10849991.343 7  -9241521.82229  22557097.117
 -16153023.627 7 -12595442.16329  22072497.958
   5924608.638 7  -1603809.59728  22740841.233
 92  8 27  1  1 30.0050000  0  5G11G17G28G21G23
  -3003779.185 6  -3878046.98426  24629379.895
    -70718.019 6   -243425.73126  24051628.864
 -10837760.928 7  -9231991.63129  22559432.500
 -16164455.821 7 -12604350.35329  22070323.323
   5985591.138 7  -1556290.77628  22752444.700
 92  8 27  1  2  0.0050000  0  5G11G17G28G21G23
  -3089139.353 6  -3944561.34726  24613139.268
     21214.783 6   -171789.81426  24069121.544
 -10824880.198 7  -9221954.71429  22561880.335
 -16175532.693 7 -12612981.68429  22068212.574
   6046834.070 7  -1508569.01428  22764096.674
 92  8 27  1  2 30.0050000  0  5G11G17G28G21G23
  -3174234.187 6  -4010868.97526  24596945.289
    113390.520 6    -99964.60226  24086667.677
 -10811348.990 7  -9211410.89529  22564454.383
 -16186258.186 7 -12621339.19329  22066173.656
   6108347.812 7  -1460636.23428  22775807.107
 92  8 27  1  3  0.0050000  0  5G11G17G28G21G23
  -3259058.726 6  -4076965.98226  24580796.818
    205815.943 6    -27944.79526  24104252.333
 -10797190.795 7  -9200378.54229  22567147.359
 -16196639.058 7 -12629428.16729  22064200.212
   6170137.670 7  -1412488.31428  22787566.196
 92  8 27  1  3 30.0050000  0  5G11G17G28G21G23
  -3343606.609 6  -4142847.40926  24564711.454
    298502.521 6     44278.47426  24121891.972
 -10782405.648 7  -9188857.64429  22569965.138
 -16206663.181 7 -12637239.16729  22062290.924
   6232196.734 7  -1364130.59828  22799372.293
 92  8 27  1  4  0.0050000  0  5G11G17G28G21G23
  -3427873.509 6  -4208509.90926  24548674.926
    391442.570 6    116699.25426  24139574.990
 -10766983.210 7  -9176840.17829  22572899.327
 -16216318.898 7 -12644763.09429  22060456.074
   6294511.675 7  -1315573.50228  22811234.451
 92  8 27  1  4 30.0050000  0  5G11G17G28G21G23
  -3511854.431 6  -4273949.54726  24532693.979
    484634.968 6    189316.66126  24157309.303
 -10750909.660 7  -9164315.32629  22575957.360
 -16225591.407 7 -12651988.41429  22058688.018
   6357067.378 7  -1266828.80528  22823137.081
 92  8 27  1  5  0.0050000  0  5G11G17G28G21G23
  -3595548.502 6  -4339165.66426  24516770.353
    578083.029 6    262133.32326  24175093.111
 -10734171.826 7  -9151272.86029  22579144.034
 -16234483.361 7 -12658917.19429  22056996.619
   6419850.575 7  -1217906.84528  22835083.301
 92  8 27  1  5 30.0050000  0  5G11G17G28G21G23
  -3678947.950 6  -4404152.20426  24500898.651
    671781.755 6    335145.27526  24192927.735
 -10716740.197 7  -9137689.77429  22582457.190
 -16243002.034 7 -12665555.11829  22055377.350
   6482878.992 7  -1168793.79928  22847077.517
 92  8 27  1  6  0.0050000  0  5G11G17G28G21G23
  -3762051.718 6  -4468908.38526  24485090.325
    765726.778 6    408349.14526  24210794.316
 -10698622.887 7  -9123572.39629  22585907.951
 -16251168.587 7 -12671918.66229  22053823.346
   6546159.049 7  -1119484.67228  22859119.191
 92  8 27  1  6 30.0050000  0  5G11G17G28G21G23
  -3844861.260 6  -4533435.24126  24469329.756
    859913.441 6    481741.34226  24228726.042
 -10679837.097 7  -9108934.12129  22589480.458
 -16258992.214 7 -12678014.97629  22052331.099
   6609690.865 7  -1069979.37628  22871209.971
 92  8 27  1  7  0.0050000  0  5G11G17G28G21G23
  -3927374.620 6  -4597731.32526  24453625.367
    954331.770 6    555314.03726  24246695.122
 -10660388.611 7  -9093779.46129  22593178.218
 -16266485.659 7 -12683854.01829  22050907.534
   6673482.677 7  -1020271.47728  22883348.118
 92  8 27  1  7 30.0050000  0  5G11G17G28G21G23
  -4009590.896 6  -4661795.92926  24437979.739
   1048965.745 6    629054.73626  24264704.764
 -10640289.648 7  -9078117.93029  22597005.189
 -16273632.077 7 -12689422.63929  22049544.168
   6737524.897 7   -970368.45428  22895535.491
 92  8 27  1  8  0.0050000  0  5G11G17G28G21G23
  -4091503.643 6  -4725623.99726  24422391.730
   1143822.052 6    702968.70326  24282751.971
 -10619537.677 7  -9061947.57429  22600953.306
 -16280394.640 7 -12694692.16629  22048261.266
   6801805.248 7   -920279.88228  22907767.832
 92  8 27  1  8 30.0050000  0  5G11G17G28G21G23
  -4173104.692 6  -4789209.20126  24406865.029
   1238904.433 6    777058.85926  24300844.146
 -10598112.043 7  -9045252.27229  22605031.652
 -16286758.256 7 -12699650.81829  22047052.383
   6866329.100 7   -870001.56228  22920047.241
 92  8 27  1  9  0.0050000  0  5G11G17G28G21G23
  -4254387.326 7  -4852546.27926  24391402.304
   1334225.323 6    851334.80426  24318975.324
 -10576002.946 7  -9028024.41329  22609240.169
 -16292722.039 7 -12704297.91729  22045911.403
   6931107.247 7   -819525.09828  22932372.339
 92  8 27  1  9 30.0050000  0  5G11G17G28G21G23
  -4335352.089 6  -4915635.68526  24375990.303
   1429798.451 6    925807.35126  24337167.360
 -10553230.667 7  -9010279.78529  22613572.739
 -16298289.364 7 -12708636.08329  22044856.943
   6996143.724 7   -768847.32828  22944748.761
 92  8 27  1 10  0.0050000  0  5G11G17G28G21G23
  -4415995.365 6  -4978474.57126  24360645.216
   1525639.489 6   1000488.64126  24355407.302
 -10529807.106 7  -8992027.67129  22618033.112
 -16303488.561 7 -12712687.38829  22043864.330
   7061456.276 7   -717954.44528  22957174.049
 92  8 27  1 10 30.0050000  0  5G11G17G28G21G23
  -4496313.287 6  -5041059.91526  24345357.959
   1621756.954 6   1075385.33426  24373702.167
 -10505742.227 7  -8973275.82929  22622609.983
 -16308340.352 7 -12716468.00729  22042943.608
   7127043.198 7   -666847.76428  22969657.707
 92  8 27  1 11  0.0050000  0  5G11G17G28G21G23
  -4576304.786 6  -5103390.92926  24330138.905
   1718149.785 6   1150496.60826  24392048.266
 -10481051.053 7  -8954035.95429  22627309.919
 -16312841.216 7 -12719975.17729  22042086.411
   7192890.891 7   -615537.89628  22982189.841
 92  8 27  1 11 30.0050000  0  5G11G17G28G21G23
  -4655962.185 6  -5165461.61226  24314981.668
   1814811.719 6   1225817.52126  24410438.165
 -10455721.045 7  -8934298.30229  22632128.663
 -16316981.870 7 -12723201.65129  22041297.417
   7258987.323 7   -564034.17828  22994768.893
 92  8 27  1 12  0.0050000  0  5G11G17G28G21G23
  -4735283.995 6  -5227270.78826  24299885.259
   1911729.573 6   1301337.89826  24428878.459
 -10429731.549 7  -8914046.73729  22637076.108
 -16320752.015 7 -12726139.42429  22040580.943
   7325311.016 7   -512353.40128  23007388.057
 92  8 27  1 12 30.0050000  0  5G11G17G28G21G23
  -4814268.008 6  -5288816.75626  24284855.195
   2008898.225 6   1377053.66425  24447378.292
 -10403071.359 7  -8893272.57729  22642147.098
 -16324131.697 7 -12728772.91629  22039938.968
   7391845.589 7   -460508.28528  23020048.262
 92  8 27  1 13  0.0050000  0  5G11G17G28G21G23
  -4892915.236 6  -5350100.27126  24269892.523
   2106293.839 6   1452946.33025  24465896.922
 -10375749.747 7  -8871983.01429  22647347.687
 -16327128.686 7 -12731108.23229  22039366.634
   7458595.911 7   -408495.07428  23032752.597
 92  8 27  1 13 30.0050000  0  5G11G17G28G21G23
  -4971223.236 6  -5411119.45826  24254990.859
   2203908.996 6   1529010.08925  24484480.307
 -10347768.967 7  -8850179.82829  22652668.854
 -16329753.311 7 -12733153.39829  22038866.400
   7525568.970 7   -356308.27528  23045495.755
 92  8 27  1 14  0.0050000  0  5G11G17G28G21G23
  -5049184.455 6  -5471868.44626  24240154.850
   2301739.586 6   1605241.64425  24503095.110
 -10319138.616 7  -8827870.44029  22658118.421
 -16332004.690 7 -12734907.70529  22038441.474
   7592771.950 7   -303942.34428  23058283.163
 92  8 27  1 14 30.0050000  0  5G11G17G28G21G23
  -5126801.526 7  -5532349.24526  24225385.395
   2399766.809 6   1681626.44425  24521748.677
 -10289873.081 7  -8805066.17029  22663687.246
 -16333910.612 7 -12736392.83829  22038080.314
   7660205.298 7   -251396.88628  23071114.939
 92  8 27  1 15  0.0050000  0  5G11G17G28G21G23
  -5204073.302 7  -5592560.98026  24210679.285
   2497983.103 6   1758158.59025  24540437.019
 -10259976.128 7  -8781769.85029  22669379.105
 -16335480.216 7 -12737615.89729  22037780.312
   7727876.304 7   -198666.25028  23083991.445
 92  8 27  1 15 30.0050000  0  5G11G17G28G21G23
  -5280994.001 6  -5652499.14326  24196040.180
   2596407.071 6   1834852.56125  24559169.641
 -10229433.395 7  -8757970.30429  22675190.852
 -16336699.712 7 -12738566.14929  22037541.917
   7795777.066 7   -145756.57428  23096914.749
 92  8 27  1 16  0.0050000  0  5G11G17G28G21G23
  -5357561.158 6  -5712161.83726  24181468.708
   2695041.226 6   1911710.30225  24577946.182
 -10198240.773 7  -8733664.39829  22681125.094
 -16337563.334 7 -12739239.09429  22037382.548
   7863906.107 7    -92669.02628  23109878.884
 92  8 27  1 16 30.0050000  0  5G11G17G28G21G23
  -5433771.093 6  -5771546.17826  24166965.588
   2793906.453 6   1988748.06425  24596749.165
 -10166393.306 7  -8708848.19529  22687190.015
 -16338063.337 7 -12739628.73229  22037284.395
   7932270.180 7    -39398.34028  23122886.489
 92  8 27  1 17  0.0050000  0  5G11G17G28G21G23
  -5509619.488 7  -5830648.78326  24152535.977
   2893025.225 6   2065983.46225  24615615.584
 -10133890.181 7  -8683521.09329  22693369.937
 -16338184.545 7 -12739723.13729  22037263.110
   8000869.405 7     14055.60628  23135942.360
 92  8 27  1 17 30.0050000  0  5G11G17G28G21G23
  -5585102.397 6  -5889466.61626  24138170.282
   2992388.917 6   2143409.63525  24634510.483
 -10100734.446 7  -8657685.47429  22699682.937
 -16337932.538 7 -12739526.78329  22037308.499
   8069692.356 7     67683.85528  23149039.274
 92  8 27  1 18  0.0050000  0  5G11G17G28G21G23
  -5660216.456 7  -5947997.02326  24123877.017
   3091991.183 5   2221021.73225  24653472.476
 -10066929.311 7  -8631343.81629  22706110.457
 -16337315.250 7 -12739045.75929  22037431.684
   8138739.935 7    121487.14828  23162177.498
 92  8 27  1 18 30.0050000  0  5G11G17G28G21G23
  -5734962.461 7  -6006240.60626  24109649.077
   3191831.754 6   2298819.56425  24672474.311
 -10032475.439 7  -8604496.64529  22712668.417
 -16336339.971 7 -12738285.80029  22037614.827
   8208009.758 7    175463.62427  23175361.621
 92  8 27  1 19  0.0050000  0  5G11G17G28G21G23
  -5809339.141 7  -6064196.44626  24095500.672
   3291891.367 6   2376788.08925  24691509.664
  -9997379.958 7  -8577149.53329  22719346.174
 -16335018.689 7 -12737256.22829  22037865.123
   8277494.001 7    229607.18827  23188585.826
 92  8 27  1 19 30.0050000  0  5G11G17G28G21G23
  -5883340.485 7  -6121859.80026  24081419.540
   3392161.990 5   2454920.96325  24710597.030
  -9961645.149 7  -8549304.24529  22726146.426
 -16333345.917 7 -12735952.76429  22038183.173
   8347194.321 7    283919.10627  23201845.047
 92  8 27  1 20  0.0050000  0  5G11G17G28G21G23
  -5956962.466 7  -6179227.54626  24067404.872
   3492662.105 5   2533232.68625  24729722.230
  -9925268.423 7  -8520958.73429  22733074.990
 -16331316.600 7 -12734371.46829  22038571.015
   8417117.721 7    338404.86827  23215150.616
 92  8 27  1 20 30.0050000  0  5G11G17G28G21G23
  -6030200.079 6  -6236295.79726  24053467.461
   3593388.487 5   2611720.68925  24748891.949
  -9888257.804 7  -8492119.32129  22740112.977
 -16328927.525 7 -12732509.84829  22039024.331
   8487264.784 7    393064.89227  23228500.704
 92  8 27  1 21  0.0050000  0  5G11G17G28G21G23
  -6103049.126 7  -6293061.26826  24039607.036
   3694333.519 5   2690379.11425  24768100.341
  -9850625.649 7  -8462795.57629  22747276.128
 -16326174.943 7 -12730364.98029  22039546.030
   8557622.294 7    447888.92627  23241890.214
 92  8 27  1 21 30.0060000  0  5G11G17G28G21G23
  -6175511.211 6  -6349525.20127  24025816.853
   3795499.878 5   2769210.03325  24787345.008
  -9812367.647 7  -8432984.15029  22754553.860
 -16323059.532 7 -12727937.37829  22040144.176
   8628189.338 7    502876.21027  23255317.649
 92  8 27  1 22  0.0060000  0  5G11G17G28G21G23
  -6247577.452 6  -6405680.67727  24012102.997
   3896883.623 5   2848210.28625  24806640.400
  -9773486.180 7  -8402686.91129  22761952.708
 -16319584.949 7 -12725229.91629  22040805.038
   8698955.982 7    558019.05627  23268782.077
 92  8 27  1 22 30.0060000  0  5G11G17G28G21G23
  -6319249.957 7  -6461529.36827  23998465.168
   3998478.540 5   2927375.06125  24825968.530
  -9733988.962 7  -8371909.86629  22769471.473
 -16315745.992 7 -12722238.50629  22041533.114
   8769920.636 7    613316.17627  23282288.897
 92  8 27  1 23  0.0060000  0  5G11G17G28G21G23
  -6390528.197 7  -6517070.83027  23984900.369
   4100290.314 5   3006708.87425  24845345.465
  -9693876.668 7  -8340653.54529  22777099.302
 -16311550.790 7 -12718969.52129  22042329.033
   8841079.464 7    668764.60527  23295827.884
 92  8 27  1 23 30.0060000  0  5G11G17G28G21G23
  -6461406.724 7  -6572300.81927  23971413.426
   4202329.772 6   3086220.10925  24864765.271
  -9653134.538 7  -8308906.45529  22784857.302
 -16306997.398 7 -12715421.42629  22043200.290
   8912439.443 7    724369.75627  23309409.412
 92  8 27  1 24  0.0060000  0  5G11G17G28G21G23
  -6531881.090 7  -6627215.87727  23958002.000
   4304604.161 5   3165914.41725  24884225.339
  -9611766.751 7  -8276671.82729  22792728.952
 -16302082.283 7 -12711591.46229  22044135.013
   8984000.282 7    780131.44427  23323028.174
 92  8 27  1 24 30.0060000  0  5G11G17G28G21G23
  -6601949.072 7  -6681814.28627  23944674.217
   4407110.583 5   3245789.50525  24903726.659
  -9569761.625 7  -8243940.57029  22800721.449
 -16296813.335 7 -12707485.79629  22045133.232
   9055767.407 7    836053.86627  23336683.120
 92  8 27  1 25  0.0060000  0  5G11G17G28G21G23
  -6671606.806 7  -6736093.02027  23931415.866
   4509847.206 5   3325843.95525  24923292.823
  -9527099.168 7  -8210697.11329  22808842.767
 -16291206.099 7 -12703116.50729  22046203.071
   9127731.793 7    892130.00527  23350373.683
 92  8 27  1 25 30.0060000  0  5G11G17G28G21G23
  -6740850.508 7  -6790049.15127  23918238.158
   4612804.258 6   3406070.15625  24942879.674
  -9483763.417 7  -8176929.00929  22817086.130
 -16285257.577 7 -12698481.29929  22047333.828
   9199897.138 7    948362.72327  23364109.663
 92  8 27  1 26  0.0060000  0  5G11G17G28G21G23
  -6809696.475 7  -6843695.32327  23905140.106
   4715951.751 6   3486444.77925  24962506.187
  -9439780.798 7  -8142656.85329  22825461.912
 -16278990.330 7 -12693597.73429  22048525.174
   9272251.898 7   1004743.02727  23377878.681
 92  8 27  1 26 30.0060000  0  5G11G17G28G21G23
  -6878081.942 7  -6896982.68427  23892127.225
   4819339.644 5   3567006.75625  24982180.037
  -9395091.470 7  -8107834.01729  22833960.128
 -16272336.517 7 -12688412.93229  22049796.354
   9344859.101 7   1061320.06227  23391693.927
 92  8 27  1 27  0.0060000  0  5G11G17G28G21G23
  -6946041.409 7  -6949938.09827  23879193.638
   4922918.397 5   3647717.36125  25001894.778
  -9349760.015 7  -8072510.83129  22842585.307
 -16265331.013 7 -12682954.10229  22051128.931
   9417677.784 7   1118061.89427  23405550.305
 92  8 27  1 27 30.0060000  0  5G11G17G28G21G23
  -7013570.311 7  -7002557.99727  23866342.495
   5026680.367 6   3728570.80425  25021640.699
  -9303813.643 7  -8036708.47829  22851331.392
 -16257958.424 7 -12677209.22129  22052531.630
   9490722.373 7   1174979.73227  23419452.790
 92  8 27  1 28  0.0060000  0  5G11G17G28G21G23
  -7080665.547 7  -7054839.98127  23853578.501
   5130633.235 5   3809573.00525  25041413.150
  -9257275.454 7  -8000444.95429  22860183.784
 -16250216.335 7 -12671176.42029  22054005.080
   9563993.740 7   1232074.27727  23433391.730
 92  8 27  1 28 30.0060000  0  5G11G17G28G21G23
  -7147318.745 7  -7106777.52527  23840890.385
   5234793.316 5   3890736.67525  25061237.077
  -9210144.409 7  -7963719.48029  22869154.414
 -16242110.093 7 -12664859.86529  22055545.863
   9637490.648 7   1289344.57527  23447378.967
 92  8 27  1 29  0.0060000  0  5G11G17G28G21G23
  -7213531.806 7  -7158372.09127  23828291.937
   5339160.992 5   3972062.02425  25081090.592
  -9162423.365 7  -7926534.28628  22878235.487
 -16233660.889 7 -12658276.08329  22057155.509
   9711199.243 7   1346779.84827  23461404.847
 92  8 27  1 29 30.0060000  0  5G11G17G28G21G23
  -7279299.582 7  -7209619.68327  23815778.000
   5443762.328 5   4053569.53725  25100996.032
  -9114088.716 7  -7888870.92728  22887437.197
 -16224857.365 7 -12651416.19229  22058828.291
   9785114.289 7   1404375.96027  23475471.919
 92  8 27  1 30  0.0060000  0  5G11G17G28G21G23
  -7344617.357 7  -7260516.64527  23803343.418
   5548607.860 5   4135267.28525  25120957.743
  -9065114.971 7  -7850709.59828  22896751.809
 -16215698.213 7 -12644279.18129  22060572.094
   9859227.329 7   1462126.34727  23489577.934
 92  8 27  1 30 30.0060000  0  5G11G17G28G21G23
  -7409484.586 7  -7311062.50727  23791000.573
   5653683.214 5   4217144.14025  25140943.347
  -9015486.433 7  -7812038.02428  22906198.089
 -16206178.851 7 -12636861.49929  22062388.236
   9933521.299 7   1520017.76127  23503717.825
 92  8 27  1 31  0.0060000  0  5G11G17G28G21G23
  -7473899.098 7  -7361255.60627  23778746.496
   5758972.312 5   4299187.55725  25160983.454
  -8965192.654 7  -7772848.09228  22915770.102
 -16196289.813 7 -12629155.76129  22064266.526
  10007990.238 7   1578045.48527  23517883.348
 92  8 27  1 31 30.0060000  0  5G11G17G28G21G23
  -7537855.527 7  -7411091.76027  23766570.875
   5864466.497 5   4381390.75525  25181058.756
  -8914232.634 7  -7733139.01628  22925464.371
 -16186020.962 7 -12621154.06129  22066221.593
  10082644.090 7   1636217.29127  23532091.262
 92  8 27  1 32  0.0060000  0  5G11G17G28G21G23
  -7601347.485 7  -7460566.00527  23754489.089
   5970144.202 5   4463736.94725  25201168.924
  -8862619.940 7  -7692921.33428  22935286.292
 -16175389.459 7 -12612869.76829  22068245.102
  10157489.822 7   1694538.62027  23546332.993
 92  8 27  1 32 30.0060000  0  5G11G17G28G21G23
  -7664377.162 7  -7509680.02327  23742497.511
   6075993.878 5   4546217.15525  25221318.485
  -8810394.063 7  -7652225.88428  22945224.981
 -16164410.993 7 -12604315.11629  22070331.747
  10232519.196 7   1753003.06227  23560610.399
 92  8 27  1 33  0.0060000  0  5G11G17G28G21G23
  -7726942.230 7  -7558432.00827  23730592.333
   6182029.723 5   4628842.41125  25241498.504
  -8757579.228 7  -7611071.47928  22955269.797
 -16153091.374 7 -12595494.63729  22072485.366
  10307740.670 7   1811617.17227  23574923.240
 92  8 27  1 33 30.0060000  0  5G11G17G28G21G23
  -7789039.491 7  -7606819.47427  23718778.291
   6288270.713 5   4711627.54125  25261713.240
  -8704192.933 7  -7569471.80528  22965433.181
 -16141427.674 7 -12586406.03629  22074706.529
  10383158.052 7   1870383.93527  23589276.374
 92  8 27  1 34  0.0060000  0  5G11G17G28G21G23
  -7850666.763 7  -7654840.71327  23707051.640
   6394724.183 5   4794578.25925  25281963.231
  -8650239.864 7  -7527430.46328  22975696.396
 -16129416.448 7 -12577046.63829  22076990.138
  10458768.809 7   1929301.38227  23603664.313
 92  8 27  1 34 30.0060000  0  6G12G11G17G28G21G23
   -124592.61515    -98122.90731  26344571.183
  -7911819.499 7  -7702492.17527  23695411.598
   6501406.329 5   4877707.18225  25302270.752
  -8595708.035 7  -7484938.15228  22986080.428
 -16117040.565 7 -12567403.09729  22079348.605
  10534574.298 7   1988370.59027  23618087.718
 92  8 27  1 35  0.0060000  0  6G12G11G17G28G21G23
   -180351.558 5   -141567.21021  26333956.221
  -7972492.295 7  -7749769.65427  23683867.250
   6608320.160 5   4961016.54425  25322619.825
  -8540568.754 7  -7441972.49528  22996573.433
 -16104297.236 7 -12557473.22129  22081770.478
  10610574.479 7   2047591.48927  23632553.783
 92  8 27  1 35 30.0060000  0  6G12G11G17G28G21G23
   -235688.573 5   -184686.86822  26323424.752
  -8032684.015 7  -7796672.29627  23672410.621
   6715450.362 5   5044494.58025  25342992.971
  -8484813.085 7  -7398526.55228  23007184.887
 -16091193.246 7 -12547262.32129  22084266.191
  10686762.997 7   2106959.14227  23647046.920
 92  8 27  1 36  0.0060000  0  6G12G11G17G28G21G23
   -290605.806 5   -227479.44823  26312981.692
  -8092397.580 7  -7843202.32127  23661045.729
   6822779.208 5   5128127.37625  25363420.439
  -8428454.178 7  -7354610.53628  23017903.037
 -16077740.182 7 -12536779.40829  22086824.500
  10763131.190 7   2166466.81327  23661583.077
 92  8 27  1 36 30.0060000  0  6G12G11G17G28G21G23
   -345101.146 5   -269943.27223  26302611.031
  -8151630.860 7  -7889358.12627  23649775.151
   6930310.945 5   5211918.29025  25383887.241
  -8371503.748 7  -7310233.59328  23028744.042
 -16063955.372 7 -12526038.01629  22089444.985
  10839675.075 7   2226111.38427  23676149.723
 92  8 27  1 37  0.0060000  0  6G12G11G17G28G21G23
   -399168.190 5   -312073.46122  26292312.741
  -8210377.824 7  -7935134.95727  23638595.681
   7038048.146 5   5295869.31725  25404387.259
  -8313964.516 7  -7265397.85128  23039691.384
 -16049841.453 7 -12515040.15429  22092133.164
  10916394.275 7   2285892.55327  23690750.395
 92  8 27  1 37 30.0060000  0  6G12G11G17G28G21G23
   -452800.899 5   -353865.05823  26282120.666
  -8268632.874 7  -7980528.49627  23627507.107
   7145992.070 5   5379981.37825  25424927.779
  -8255840.975 7  -7220106.82328  23050751.597
 -16035394.679 7 -12503782.93929  22094882.951
  10993306.252 7   2345823.91927  23705387.522
 92  8 27  1 38  0.0060000  0  6G12G11G17G28G21G23
   -505996.000 5   -395315.69423  26271987.142
  -8326392.787 7  -8025536.21727  23616518.335
   7254131.433 5   5464245.73725  25445506.223
  -8197133.544 7  -7174360.77928  23061924.802
 -16020614.250 7 -12492265.70429  22097695.634
  11070408.425 7   2405903.53927  23720055.827
 92  8 27  1 38 30.0060000  0  6G12G11G17G28G21G23
   -558751.061 5   -436423.47223  26261951.289
  -8383655.542 7  -8070156.51927  23605621.688
   7362452.018 5   5548651.30825  25466125.648
  -8137819.196 7  -7128141.82728  23073208.630
 -16005488.708 7 -12480479.57129  22100576.100
  11147692.906 7   2466125.18427  23734762.356
 92  8 27  1 39  0.0060000  0  6G12G11G17G28G21G23
   -611063.069 5   -477186.03923  26251993.503
  -8440418.453 7  -8114387.34227  23594818.757
   7470933.851 5   5633182.56825  25486762.641
  -8077885.497 7  -7081440.26428  23084616.902
 -15989997.993 7 -12468408.89029  22103525.068
  11225157.667 7   2526487.30427  23749506.988
 92  8 27  1 39 30.0060000  0  6G12G11G17G28G21G23
   -662925.345 5   -517598.16223  26242132.760
  -8496675.086 7  -8158223.67828  23584112.569
   7579573.039 5   5717836.44125  25507439.447
  -8017330.996 7  -7034254.96328  23096139.275
 -15974130.581 7 -12456044.66429  22106538.762
  11302805.626 7   2586992.19627  23764280.821
 92  8 27  1 40  0.0060000  0  6G12G11G17G28G21G23
   -714328.069 5   -557652.21124  26232346.544
  -8552416.080 7  -8201658.20628  23573508.849
   7688382.003 5   5802622.57225  25528142.844
  -7956151.593 7  -6986582.72528  23107784.534
 -15957870.966 7 -12443374.84629  22109638.496
  11380627.957 7   2647632.95327  23779089.729
 92  8 27  1 40 30.0060000  0  6G12G11G17G28G21G23
   -765273.695 5   -597349.98324  26222658.032
  -8607644.043 7  -8244692.95628  23562998.785
   7797374.389 5   5887551.64325  25548888.243
  -7894359.426 7  -6938432.99728  23119539.936
 -15941226.507 7 -12430405.12929  22112801.546
  11458623.299 7   2708408.51626  23793933.053
 92  8 27  1 41  0.0060000  0  6G12G11G17G28G21G23
   -815760.449 5   -636690.22625  26213050.763
  -8662357.339 7  -8287326.67128  23552585.914
   7906563.179 5   5972633.75225  25569657.894
  -7831975.338 7  -6889822.05128  23131407.340
 -15924220.698 8 -12417153.84129  22116041.193
  11536799.628 7   2769325.10126  23808804.408
 92  8 27  1 41 30.0060000  0  6G12G11G17G28G21G23
   -865784.582 5   -675670.05525  26203525.247
  -8716552.767 7  -8329556.85128  23542275.302
   8015957.668 5   6057876.13425  25590467.658
  -7769009.101 7  -6840757.47428  23143398.379
 -15906871.773 7 -12403635.18829  22119340.949
  11615159.259 7   2830384.55226  23823723.729
 92  8 27  1 42  0.0060000  0  6G12G11G17G28G21G23
   -915339.769 5   -714284.39624  26194082.834
  -8770224.019 7  -8371378.58628  23532061.223
   8125556.304 5   6143277.62925  25611323.440
  -7705462.071 7  -6791240.34328  23155489.518
 -15889193.995 8 -12389860.30929  22122703.931
  11693699.590 7   2891584.78726  23838669.013
 92  8 27  1 42 30.0060000  0  6G12G11G17G28G21G23
   -964422.746 5   -752530.80425  26184773.289
  -8823368.258 7  -8412789.66028  23521948.384
   8235355.605 5   6228835.44625  25632227.518
  -7641348.321 7  -6741281.59528  23167690.232
 -15871207.731 7 -12375845.01529  22126126.481
  11772424.591 6   2952928.91826  23853647.124
 92  8 27  1 43  0.0060000  0  5G11G17G28G21G23
  -8875985.060 7  -8453789.75328  23511934.956
   8345347.302 5   6314543.15525  25653158.338
  -7576676.530 7  -6690888.03428  23179992.725
 -15852917.787 7 -12361593.11829  22129605.873
  11851329.469 6   3014413.19226  23868660.820
 92  8 27  1 43 30.0060000  0  5G11G17G28G21G23
  -8928074.458 7  -8494378.87528  23502022.678
   8455523.372 5   6400394.60425  25674122.885
  -7511452.874 7  -6640064.40728  23192406.291
 -15834314.422 7 -12347096.98929  22133149.090
  11930410.647 6   3076034.89126  23883707.673
 92  8 27  1 44  0.0060000  0  5G11G17G28G21G23
  -8979636.470 7  -8534557.05328  23492212.959
   8565882.325 5   6486388.51525  25695124.815
  -7445685.668 7  -6588817.26328  23204924.455
 -15815385.623 7 -12332347.28129  22136748.968
  12009662.443 7   3137789.51826  23898791.341
 92  8 27  1 44 30.0060000  0  5G11G17G28G21G23
  -9030668.981 7  -8574322.63128  23482499.744
   8676427.816 5   6572527.74825  25716157.684
  -7379379.099 7  -6537149.84527  23217542.360
 -15796108.529 7 -12317326.17129  22140416.149
  12089096.114 6   3199685.85226  23913906.187
 92  8 27  1 45  0.0060000  0  5G11G17G28G21G23
  -9081174.418 7  -8613677.50528  23472890.316
   8787151.819 5   6658806.16825  25737229.227
  -7312515.855 7  -6485048.63827  23230266.421
 -15776466.162 7 -12302020.42829  22144158.248
  12168707.229 6   3261720.46926  23929056.529
 92  8 27  1 45 30.0060000  0  5G11G17G28G21G23
  -9131141.410 7  -8652612.80628  23463379.490
   8898056.104 5   6745225.02725  25758341.961
  -7245082.441 7  -6432503.15027  23243096.489
 -15756438.559 7 -12286414.50529  22147967.921
  12248500.713 6   3323897.20026  23944242.126
 92  8 27  1 46  0.0060000  0  5G11G17G28G21G23
  -9180566.407 7  -8691125.78328  23453973.172
   9009139.748 5   6831783.61825  25779467.646
  -7177078.462 7  -6379513.06027  23256034.243
 -15736034.282 7 -12270515.07029  22151848.644
  12328473.643 6   3386213.74526  23959457.373
 92  8 27  1 46 30.0060000  0  5G11G17G28G21G23
  -9229446.096 7  -8729213.83428  23444675.499
   9120394.720 5   6918475.77225  25800634.642
  -7108492.510 7  -6326069.49727  23269082.889
 -15715275.211 7 -12254339.16829  22155799.279
  12408630.205 6   3448673.37126  23974710.693
 92  8 27  1 47  0.0060000  0  5G11G17G28G21G23
  -9277777.387 7  -8766874.57328  23435478.916
   9231819.825 5   7005300.38625  25821854.432
  -7039321.361 7  -6272169.94627  23282248.155
 -15694185.453 7 -12237905.58629  22159813.380
  12488957.695 6   3511266.18626  23989995.162
 92  8 27  1 47 30.0060000  0  5G11G17G28G21G23
  -9325560.074 7  -8804107.83828  23426385.791
   9343407.945 5   7092252.06625  25843088.942
  -6969588.233 7  -6217832.46527  23295520.956
 -15672784.383 7 -12221229.44329  22163886.151
  12569439.768 6   3573979.47926  24005314.766
 92  8 27  1 48  0.0060000  0  6G12G11G17G28G21G23
      2239.88915    -10184.53331  26088036.498
  -9372791.522 7  -8840911.56228  23417400.201
   9455164.535 5   7179335.11225  25864348.514
  -6899291.641 7  -6163055.93627  23308901.713
 -15651082.480 7 -12204318.87729  22168017.831
  12650068.598 6   3636807.13426  24020653.018
 92  8 27  1 48 30.0060000  0  6G12G11G17G28G21G23
    -41014.923 5    -43887.61921  26079800.060
  -9419468.411 7  -8877283.15628  23408512.764
   9567090.458 5   7266550.07025  25885641.363
  -6828432.753 7  -6107841.24227  23322380.952
 -15629063.430 8 -12187161.18429  22172206.741
  12730831.178 6   3699738.96526  24036027.964
 92  8 27  1 49  0.0060000  0  6G12G11G17G28G21G23
    -83759.750 5    -77195.02523  26071668.010
  -9465583.487 7  -8913216.97928  23399741.046
   9679199.353 5   7353907.52425  25906985.327
  -6757027.564 7  -6052200.86327  23335968.685
 -15606693.587 7 -12169730.14929  22176462.564
  12811724.534 6   3762772.74226  24051416.341
 92  8 27  1 49 30.0060000  0  6G12G11G17G28G21G23
   -125991.860 5   -110103.05224  26063630.664
  -9511134.335 7  -8948711.14528  23391068.590
   9791490.236 5   7441406.93125  25928356.902
  -6685085.952 7  -5996142.50327  23349659.817
 -15583964.198 7 -12152018.93629  22180786.891
  12892752.031 6   3825911.02026  24066841.502
 92  8 27  1 50  0.0060000  0  6G12G11G17G28G21G23
   -167704.516 5   -142606.40225  26055688.352
  -9556114.419 7  -8983760.54728  23382510.865
   9903971.269 5   7529054.43925  25949761.874
  -6612596.257 7  -5939657.05527  23363454.677
 -15560866.498 7 -12134020.73129  22185185.116
  12973938.962 6   3889173.53626  24082285.281
 92  8 27  1 50 30.0060000  0  6G12G11G17G28G21G23
   -208893.488 5   -174701.65325  26047849.469
  -9600519.693 7  -9018362.04228  23374061.334
  10016643.261 5   7616850.69125  25971190.769
  -6539566.791 7  -5882751.00327  23377347.359
 -15537393.836 7 -12115730.35529  22189650.764
  13055300.087 6   3952571.80426  24097771.030
 92  8 27  1 51  0.0060000  0  6G12G11G17G28G21G23
   -249560.424 5   -206390.12925  26040114.614
  -9644351.996 7  -9052517.07128  23365721.767
  10129496.137 5   7704787.93125  25992668.320
  -6465990.446 7  -5825418.81027  23391356.961
 -15513562.727 8 -12097160.66629  22194186.534
  13136838.812 6   4016108.45326  24113284.001
 92  8 27  1 51 30.0060000  0  6G12G11G17G28G21G23
   -289704.975 5   -237671.51925  26032471.645
  -9687611.227 7  -9086225.56428  23357482.991
  10242518.056 5   7792856.84225  26014179.748
  -6391852.169 7  -5767648.77627  23405457.369
 -15489396.986 7 -12078330.22729  22198784.991
  13218549.895 6   4079779.40726  24128838.103
 92  8 27  1 52  0.0060000  0  6G12G11G17G28G21G23
   -329324.335 5   -268543.73225  26024937.021
  -9730294.661 7  -9119485.36028  23349367.279
  10355714.072 5   7881061.47725  26035712.641
  -6317151.363 7  -5709440.38827  23419675.116
 -15464885.840 7 -12059230.63129  22203446.134
  13300433.457 6   4143584.74026  24144418.467
 92  8 27  1 52 30.0060000  0  6G12G11G17G28G21G23
   -368415.919 5   -299004.61925  26017483.371
  -9772399.938 7  -9152294.66628  23341353.497
  10469081.171 5   7969399.42925  26057293.051
  -6241903.179 7  -5650805.46528  23433994.943
 -15440032.341 7 -12039864.27229  22208179.767
  13382473.924 6   4207512.37126  24160021.195
 92  8 27  1 53  0.0060000  0  6G12G11G17G28G21G23
   -406974.764 5   -329050.42725  26010155.724
  -9813922.317 7  -9184649.75828  23333452.737
  10582615.999 5   8057868.05025  26078899.574
  -6166107.066 7  -5591743.59627  23448418.528
 -15414842.713 7 -12020235.99229  22212971.350
  13464676.723 6   4271566.46626  24175673.989
 92  8 27  1 53 30.0060000  0  6G12G11G17G28G21G23
   -445000.385 5   -358680.74625  26002921.402
  -9854861.716 7  -9216550.56629  23325666.587
  10696319.003 5   8146467.73625  26100537.964
  -6089791.790 7  -5532277.18527  23462933.909
 -15389320.127 7 -12000348.28129  22217824.180
  13547045.044 7   4335749.54926  24191347.529
 92  8 27  1 54  0.0060000  0  6G12G11G17G28G21G23
   -482487.850 5   -387891.71625  25995781.575
  -9895212.966 7  -9247993.09829  23317984.765
  10810183.395 5   8235193.16625  26122213.078
  -6012970.452 7  -5472416.42428  23477556.646
 -15363457.754 7 -11980195.78829  22222750.400
  13629581.973 7   4400064.01326  24207059.232
 92  8 27  1 54 30.0060000  0  6G12G11G17G28G21G23
   -519431.222 5   -416678.72825  25988765.292
  -9934970.640 7  -9278973.10029  23310417.314
  10924187.053 5   8324027.12525  26143894.039
  -5935647.184 7  -5412164.57627  23492270.190
 -15337274.362 7 -11959793.14729  22227732.081
  13712280.378 6   4464504.32426  24222790.481
 92  8 27  1 55  0.0060000  0  6G12G11G17G28G21G23
   -555830.812 5   -445041.98125  25981829.504
  -9974135.083 7  -9309490.82429  23302964.473
  11038322.263 5   8412963.52525  26165599.732
  -5857827.522 7  -5351525.90327  23507078.438
 -15310778.254 7 -11939146.84529  22232773.661
  13795136.254 6   4529067.31626  24238553.988
 92  8 27  1 55 30.0060000  0  6G12G11G17G28G21G23
   -591677.271 5   -472974.22625  25975010.724
 -10012697.253 7  -9339539.25229  23295628.702
  11152592.939 5   8502005.57525  26187351.924
  -5779509.190 6  -5290498.66227  23521979.293
 -15283962.805 7 -11918251.68429  22237876.728
  13878138.856 6   4593744.64626  24254354.430
 92  8 27  1 56  0.0060000  0  6G12G11G17G28G21G23
   -626974.783 5   -500478.70925  25968288.988
 -10050661.323 7  -9369121.63629  23288403.764
  11266999.702 5   8591153.59325  26209122.312
  -5700687.589 7  -5229079.26127  23536984.984
 -15256830.781 7 -11897109.85629  22243040.174
  13961276.777 6   4658527.42026  24270169.651
 92  8 27  1 56 30.0060000  0  6G12G11G17G28G21G23
   -661723.468 5   -527555.57625  25961683.930
 -10088027.788 7  -9398238.34929  23281290.408
  11381567.901 5   8680427.43225  26230933.113
  -5621354.752 6  -5167261.50927  23552080.314
 -15229378.609 7 -11875718.55229  22248262.408
  14044552.807 6   4723417.83526  24286013.143
 92  8 27  1 57  0.0060000  0  6G12G11G17G28G21G23
   -695917.751 5   -554200.44225  25955179.183
 -10124791.046 7  -9426885.03829  23274299.038
  11496326.891 5   8769849.96325  26252772.394
  -5541494.126 7  -5105032.49327  23567276.824
 -15201580.403 7 -11854057.62329  22253553.326
  14127982.175 6   4788427.70726  24301894.409
 92  8 27  1 57 30.0060000  0  6G12G11G17G28G21G23
   -729553.801 5   -580410.29425  25948774.147
 -10160947.511 7  -9455058.89329  23267414.154
  11611274.864 5   8859419.70225  26274646.601
  -5461095.259 7  -5042384.03227  23582575.743
 -15173420.616 7 -11832114.93429  22258912.955
  14211567.254 6   4853558.92026  24317799.688
 92  8 27  1 58  0.0060000  0  6G12G11G17G28G21G23
   -762627.928 5   -606182.28225  25942482.973
 -10196493.529 7  -9482757.09129  23260651.046
  11726417.728 5   8949141.36825  26296568.474
  -5380152.993 7  -4979312.18627  23597982.856
 -15144891.130 7 -11809884.17029  22264341.597
  14295311.772 6   4918814.38326  24333739.323
 92  8 27  1 58 30.0060000  0  6G12G11G17G28G21G23
   -795135.069 5   -631512.49525  25936286.263
 -10231424.436 7  -9509975.96629  23254002.999
  11841744.568 5   9039006.34825  26318504.858
  -5298670.980 7  -4915819.74127  23613485.544
 -15115993.706 7 -11787366.70529  22269840.150
  14379220.810 6   4984198.01626  24349706.569
 92  8 27  1 59  0.0060000  0  5G12G11G28G21G23
   -827070.643 5   -656397.30525  25930214.656
 -10265735.800 7  -9536712.08029  23247475.827
  -5216669.275 6  -4851922.33827  23629091.480
 -15086738.232 7 -11764570.22829  22275405.558
  14463299.401 6   5049713.78826  24365699.058
 92  8 27  1 59 30.0060000  0  5G12G11G28G21G23
   -858436.941 5   -680838.50725  25924257.180
 -10299429.851 7  -9562967.17829  23241066.295
  -5134168.774 7  -4787636.26027  23644792.121
 -15057135.423 7 -11741503.11629  22281040.067
  14547547.907 6   5115361.94926  24381736.725
 92  8 27  2  0  0.0060000  0  5G12G11G28G21G23
   -889236.823 5   -704838.40725  25918386.914
 -10332509.751 8  -9588743.71929  23234769.184
  -5051191.059 6  -4722978.35527  23660579.642
 -15027204.290 7 -11718180.15629  22286736.333
  14631967.171 6   5181143.17826  24397802.273
 92  8 27  2  0 30.0060000  0  5G12G11G28G21G23
   -919471.382 5   -728397.78025  25912634.257
 -10364976.594 7  -9614042.53929  23228593.070
  -4967745.227 6  -4657955.66927  23676458.929
 -14996961.398 7 -11694614.27829  22292490.610
  14716567.567 6   5247065.56826  24413899.809
 92  8 27  2  1  0.0060000  0  5G12G11G28G21G23
   -949137.835 5   -751514.50325  25906990.064
 -10396827.879 7  -9638861.72929  23222529.887
  -4883839.265 6  -4592574.42327  23692424.916
 -14966406.270 7 -11670805.08729  22298307.093
  14801343.538 6   5313124.74726  24430025.345
 92  8 27  2  1 30.0060000  0  5G12G11G28G21G23
   -978231.667 5   -774184.93825  25901459.433
 -10428059.122 7  -9663197.75429  23216588.990
  -4799458.734 6  -4526823.40427  23708488.155
 -14935534.852 7 -11646749.43429  22304179.968
  14886272.471 6   5379303.10226  24446199.478
 92  8 27  2  2  0.0060000  0  5G12G11G28G21G23
  -1006746.802 5   -796404.48125  25896037.057
 -10458664.675 7  -9687046.23429  23210764.082
  -4714592.047 6  -4460693.55827  23724639.804
 -14904350.466 7 -11622449.92529  22310117.927
  14971327.854 6   5445579.99726  24462368.934
 92  8 27  2  2 30.0060000  0  5G12G11G28G21G23
  -1034680.586 5   -818171.07525  25890710.614
 -10488641.789 7  -9710405.02729  23205055.165
  -4629228.497 6  -4394176.54227  23740878.752
 -14872844.922 7 -11597900.15129  22316108.470
  15056499.901 6   5511947.82126  24478589.295
 92  8 27  2  3  0.0060000  0  5G12G11G28G21G23
  -1062030.661 5   -839482.79025  25885495.364
 -10517988.200 8  -9733272.33629  23199473.539
  -4543366.441 6  -4327271.08227  23757219.689
 -14841004.500 7 -11573089.43729  22322169.494
  15141768.936 6   5578391.17826  24494808.877
 92  8 27  2  3 30.0060000  0  6G12G11G17G28G21G23
  -1088795.739 5   -860338.61525  25880412.533
 -10546702.989 7  -9755647.49029  23194013.748
     25299.56715     34866.23231  26539369.487
  -4456994.898 6  -4259968.63027  23773653.412
 -14808838.602 7 -11548025.10429  22328286.789
  15227133.005 6   5644908.62826  24511057.628
 92  8 27  2  4  0.0060000  0  6G12G11G17G28G21G23
  -1114969.557 5   -880733.73725  25875434.929
 -10574779.830 7  -9777525.54829  23188665.541
    142131.367 5    125904.35821  26561595.650
  -4370125.153 6  -4192277.93627  23790182.799
 -14776347.930 7 -11522707.70229  22334472.586
  15312620.254 6   5711522.04826  24527322.058
 92  8 27  2  4 30.0060000  0  6G12G11G17G28G21G23
  -1140546.562 5   -900663.80925  25870570.497
 -10602213.283 7  -9798902.26529  23183443.576
    259139.003 5    217079.21422  26583868.251
  -4282766.465 6  -4124206.28327  23806807.610
 -14743526.242 7 -11497132.35729  22340719.452
  15398254.631 6   5778250.12826  24543624.173
 92  8 27  2  5  0.0060000  0  6G12G11G17G28G21G23
  -1165528.173 5   -920130.04525  25865810.902
 -10629004.866 8  -9819778.82729  23178347.044
    376307.404 5    308379.20722  26606157.910
  -4194941.214 6  -4055771.05627  23823518.162
 -14710379.297 7 -11471303.58129  22347025.076
  15484022.989 6   5845082.57725  24559940.287
 92  8 27  2  5 30.0060000  0  6G12G11G17G28G21G23
  -1189911.160 5   -939129.68125  25861161.420
 -10655151.752 8  -9840153.00629  23173373.667
    493633.748 5    399802.21023  26628497.365
  -4106662.291 6  -3986982.32327  23840317.781
 -14676905.057 7 -11445219.75629  22353396.266
  15569935.392 6   5912027.28326  24576289.319
 92  8 27  2  6  0.0060000  0  6G12G11G17G28G21G23
  -1213697.489 5   -957664.45425  25856648.225
 -10680655.663 8  -9860026.18729  23168521.796
    611097.527 5    491332.40424  26650849.651
  -4017944.119 6  -3917851.32827  23857199.544
 -14643095.280 7 -11418874.47029  22359830.441
  15655994.751 6   5979086.51526  24592666.501
 92  8 27  2  6 30.0060000  0  6G12G11G17G28G21G23
  -1236889.246 5   -975735.95625  25852243.314
 -10705519.173 8  -9879400.33929  23163788.163
    728671.495 5    582948.38824  26673218.335
  -3928779.676 6  -3848372.58127  23874171.005
 -14608944.623 8 -11392263.58229  22366327.873
  15742190.022 6   6046251.61626  24609070.455
 92  8 27  2  7  0.0060000  0  6G12G11G17G28G21G23
  -1259481.855 5   -993340.54225  25847928.731
 -10729737.582 7  -9898271.82529  23159179.274
    846349.681 5    674645.62324  26695598.202
  -3839164.899 6  -3778542.93027  23891219.693
 -14574458.675 7 -11365391.41429  22372891.470
  15828534.240 6   6113532.81726  24625504.208
 92  8 27  2  7 30.0060000  0  6G12G11G17G28G21G23
  -1281473.707 5  -1010477.01025  25843752.083
 -10753309.573 7  -9916639.60629  23154693.959
    964141.867 5    766431.69025  26718021.599
  -3749079.694 6  -3708346.70127  23908362.545
 -14539648.967 7 -11338266.96729  22379513.195
  15915049.624 6   6180947.39326  24641968.750
 92  8 27  2  8  0.0060000  0  6G12G11G17G28G21G23
  -1302865.114 5  -1027145.57625  25839682.550
 -10776235.264 7  -9934503.78629  23150330.959
   1082050.870 5    858308.80125  26740465.411
  -3658525.671 6  -3637785.17527  23925601.091
 -14504523.240 7 -11310896.27629  22386196.619
  16001724.188 6   6248485.99226  24658457.335
 92  8 27  2  8 30.0060000  0  6G12G11G17G28G21G23
  -1323652.876 5  -1043343.78725  25835718.304
 -10798511.791 8  -9951862.10829  23146094.023
   1200090.206 5    950287.45125  26762920.496
  -3567519.961 6  -3566871.66527  23942914.465
 -14469079.002 7 -11283277.40029  22392946.266
  16088548.469 6   6316141.24026  24674975.030
 92  8 27  2  9  0.0060000  0  5G12G11G28G21G23
  -1343835.640 5  -1059070.61725  25831867.200
 -10820137.947 7  -9968713.65929  23141975.324
  -3476083.829 6  -3495622.77127  23960319.726
 -14433324.700 8 -11255416.90629  22399746.398
  16175512.812 6   6383905.65126  24691536.105
 92  8 27  2  9 30.0060000  0  5G12G11G28G21G23
  -1363438.040 5  -1074345.13625  25828147.765
 -10841138.645 7  -9985077.83129  23137979.180
  -3384259.846 6  -3424071.65427  23977792.350
 -14397279.086 7 -11227329.41329  22406605.170
  16262570.778 6   6451743.01126  24708101.018
 92  8 27  2 10  0.0060000  0  5G12G11G28G21G23
  -1382420.113 5  -1089136.31825  25824537.934
 -10861473.799 8 -10000923.39729  23134109.639
  -3292035.891 6  -3352208.88627  23995339.022
 -14360896.950 7 -11198979.70629  22413529.656
  16349745.440 6   6519671.29226  24724683.018
 92  8 27  2 10 30.0060000  0  6G12G11G15G28G21G23
  -1400765.430 5  -1103431.32425  25821051.708
 -10881127.029 8 -10016237.60829  23130374.045
     -6140.32415    -21325.79431  26615169.042
  -3199392.036 6  -3280018.92227  24012966.279
 -14324167.633 8 -11170359.45829  22420519.707
  16437059.049 6   6587707.84626  24741295.448
 92  8 27  2 11  0.0060000  0  6G12G11G15G28G21G23
  -1418483.295 5  -1117237.41525  25817667.351
 -10900107.773 7 -10031027.79129  23126757.919
    -98613.874 5    -93382.76922  26597560.252
  -3106312.595 6  -3207489.52227  24030680.476
 -14287115.269 7 -11141487.49829  22427569.926
  16524505.202 6   6655847.67726  24757934.858
 92  8 27  2 11 30.0060000  0  6G12G11G15G28G21G23
  -1435590.080 5  -1130567.40625  25814419.909
 -10918432.745 7 -10045306.99729  23123271.182
   -191057.637 5   -165416.99522  26579971.998
  -3012794.292 6  -3134618.16326  24048471.869
 -14249748.088 8 -11112370.21229  22434681.783
  16612065.916 6   6724076.80326  24774603.049
 92  8 27  2 12  0.0060000  0  6G12G11G15G28G21G23
  -1452086.025 5  -1143421.32225  25811270.199
 -10936101.957 7 -10059075.20329  23119907.661
   -283472.004 5   -237428.10123  26562381.016
  -2918819.885 6  -3061391.39326  24066352.271
 -14212067.496 8 -11083008.72729  22441850.720
  16699736.375 6   6792391.42526  24791286.410
 92  8 27  2 12 30.0060000  0  6G12G11G15G28G21G23
  -1467960.954 5  -1155791.32025  25808265.290
 -10953105.622 7 -10072324.81729  23116678.417
   -375846.662 5   -309408.24824  26544808.711
  -2824369.262 6  -2987793.55926  24084333.793
 -14174060.445 8 -11053392.84029  22449084.202
  16787527.157 6   6860799.80326  24807992.284
 92  8 27  2 13  0.0060000  0  6G12G11G15G28G21G23
  -1483212.468 5  -1167675.62025  25805362.759
 -10969441.352 7 -10085053.93929  23113562.314
   -468179.189 5   -381355.59624  26527246.060
  -2729455.913 6  -2913835.13426  24102395.299
 -14135726.492 8 -11023522.24029  22456378.093
  16875441.870 6   6929304.75126  24824715.607
 92  8 27  2 13 30.0060000  0  6G12G11G15G28G21G23
  -1497837.400 5  -1179071.65425  25802568.514
 -10985106.006 7 -10097260.15229  23110583.156
   -560466.500 5   -453267.80824  26509681.070
  -2634110.712 6  -2839540.21226  24120535.021
 -14097066.488 8 -10993397.56029  22463736.199
  16963479.872 6   6997905.76726  24841479.671
 92  8 27  2 14  0.0060000  0  6G12G11G15G28G21G23
  -1511831.128 5  -1189975.79625  25799907.736
 -11000095.102 7 -10108939.97729  23107734.408
   -652704.065 6   -525141.14824  26492126.123
  -2538344.678 6  -2764917.37426  24138751.580
 -14058088.270 8 -10963024.93629  22471150.186
  17051660.503 6   7066617.94225  24858251.710
 92  8 27  2 14 30.0060000  0  6G12G11G15G28G21G23
  -1525198.742 5  -1200392.09225  25797377.607
 -11014413.949 7 -10120097.50629  23105008.725
   -744897.108 6   -596979.88324  26474590.273
  -2442174.340 6  -2689979.49026  24157061.854
 -14018802.936 8 -10932412.99329  22478630.068
  17139991.293 6   7135447.09925  24875066.500
 92  8 27  2 15  0.0060000  0  6G12G11G15G28G21G23
  -1537938.451 5  -1210319.12325  25794944.851
 -11028060.838 7 -10130731.44529  23102410.184
   -837043.946 6   -668782.52424  26457050.105
  -2345602.884 6  -2614729.03826  24175439.192
 -13979217.653 8 -10901567.31429  22486162.654
  17228466.010 6   7204388.39625  24891902.604
 92  8 27  2 15 30.0060000  0  6G12G11G15G28G21G23
  -1550053.557 5  -1219759.42525  25792633.871
 -11041038.932 7 -10140844.23829  23099939.954
   -929147.178 6   -740551.23825  26439511.497
  -2248635.751 6  -2539170.28826  24193891.987
 -13939330.203 8 -10870486.18829  22493753.009
  17317074.017 6   7273433.59725  24908759.365
 92  8 27  2 16  0.0060000  0  6G12G11G15G28G21G23
  -1561540.309 5  -1228710.10325  25790453.511
 -11053344.661 7 -10150433.10729  23097597.856
  -1021202.987 5   -812282.96725  26422000.560
  -2151268.132 6  -2463299.46826  24212423.328
 -13899127.284 8 -10839159.24229  22501403.503
  17405811.200 6   7342579.42625  24925646.074
 92  8 27  2 16 30.0060000  0  6G12G11G15G28G21G23
  -1572398.657 5  -1237171.11925  25788385.512
 -11064978.221 7 -10159498.21029  23095384.188
  -1113211.403 5   -883977.77625  26404497.357
  -2053527.504 6  -2387137.96826  24231021.463
 -13858606.597 8 -10807584.67429  22509113.055
  17494658.111 6   7411810.74325  24942554.609
 92  8 27  2 17  0.0060000  0  6G12G11G15G28G21G23
  -1582622.808 5  -1245137.94425  25786436.531
 -11075933.951 7 -10168035.14929  23093298.802
  -1205166.255 5   -955630.90425  26386994.993
  -1955432.351 6  -2310700.25826  24249690.888
 -13817767.938 8 -10775762.34929  22516883.136
  17583611.473 6   7481125.02725  24959480.081
 92  8 27  2 17 30.0060000  0  6G12G11G15G28G21G23
  -1592211.703 5  -1252609.79525  25784619.369
 -11086210.795 7 -10176043.06529  23091344.365
  -1297066.177 5  -1027241.18725  26369513.256
  -1856987.935 6  -2233990.35426  24268420.392
 -13776611.246 8 -10743692.20529  22524720.401
  17672670.559 6   7550521.70725  24976433.495
 92  8 27  2 18  0.0060000  0  6G12G11G15G28G21G23
  -1601164.522 5  -1259586.01425  25782907.105
 -11095808.184 7 -10183521.54529  23089516.800
  -1388910.419 5  -1098807.98625  26352026.961
  -1758188.273 6  -2157003.65026  24287224.215
 -13735144.706 8 -10711380.61029  22532606.861
  17761826.531 6   7619993.86925  24993396.502
 92  8 27  2 18 30.0070000  0  6G12G11G15G28G21G23
  -1609483.073 5  -1266067.94525  25781331.725
 -11104727.874 7 -10190471.94929  23087820.454
  -1480703.161 5  -1170334.79225  26334560.333
  -1659017.624 6  -2079727.86326  24306086.946
 -13693380.603 8 -10678837.16829  22540553.220
  17851082.976 6   7689544.33025  25010381.813
 92  8 27  2 19  0.0070000  0  6G12G11G15G28G21G23
  -1617161.222 5  -1272050.90125  25779867.299
 -11112963.662 7 -10196889.45329  23086249.152
  -1572432.164 5  -1241811.90625  26317108.095
  -1559450.147 6  -2002142.87026  24325040.455
 -13651321.412 8 -10646063.77929  22548560.826
  17940434.745 6   7759169.07625  25027382.713
 92  8 27  2 19 30.0070000  0  5G12G11G28G21G23
  -1624195.873 5  -1277532.39225  25778534.572
 -11120512.740 7 -10202771.85029  23084820.671
  -1459465.354 6  -1924232.68126  24344066.573
 -13608959.932 8 -10613054.84429  22556616.699
  18029884.755 6   7828870.36025  25044397.704
 92  8 27  2 20  0.0070000  0  5G12G11G28G21G23
  -1630589.653 6  -1282514.56125  25777315.646
 -11127377.771 7 -10208121.21529  23083510.248
  -1359082.042 6  -1846011.96526  24363167.730
 -13566296.959 8 -10579810.96729  22564739.456
  18119443.752 6   7898656.56125  25061441.355
 92  8 27  2 20 30.0070000  0  5G12G11G28G21G23
  -1636340.441 6  -1286995.65925  25776221.253
 -11133556.787 7 -10212936.04529  23082335.422
  -1258315.103 6  -1767492.30926  24382341.676
 -13523331.554 8 -10546331.43329  22572914.347
  18209123.827 6   7968537.10225  25078511.688
 92  8 27  2 21  0.0070000  0  6G12G11G15G28G21G23
  -1641446.744 5  -1290974.55525  25775246.748
 -11139048.407 7 -10217215.21829  23081290.945
    -30480.69315    -36821.12831  26247408.357
  -1157188.731 6  -1688692.59526  24401589.671
 -13480058.069 8 -10512611.85629  22581151.204
  18298925.804 6   8038512.68425  25095602.106
 92  8 27  2 21 30.0070000  0  6G12G11G15G28G21G23
  -1645908.069 6  -1294450.89025  25774396.537
 -11143852.213 7 -10220958.45729  23080375.978
   -121883.539 5   -108042.47623  26230007.474
  -1055722.430 6  -1609627.98326  24420893.877
 -13436469.644 8 -10478646.84829  22589443.853
  18388863.764 6   8108594.16725  25112715.699
 92  8 27  2 22  0.0070000  0  6G12G11G15G28G21G23
  -1649726.610 6  -1297426.37125  25773673.107
 -11147970.428 7 -10224167.45029  23079592.321
   -213219.590 5   -179213.33525  26212634.351
   -953926.508 6  -1530306.52626  24440267.455
 -13392575.997 8 -10444444.01129  22597795.592
  18478934.556 6   8178779.18225  25129860.679
 92  8 27  2 22 30.0070000  0  6G12G11G15G28G21G23
  -1652896.525 6  -1299896.35625  25773066.717
 -11151397.297 7 -10226837.73829  23078940.962
   -304482.736 5   -250327.42125  26195258.410
   -851783.442 6  -1450714.60226  24459703.959
 -13348381.973 8 -10410007.11229  22606203.721
  18569123.569 6   8249056.28625  25147019.031
 92  8 27  2 23  0.0070000  0  6G12G11G15G28G21G23
  -1655413.809 6  -1301857.89225  25772593.885
 -11154129.015 7 -10228966.37029  23078420.462
   -395668.386 5   -321381.13325  26177908.251
   -749286.975 6  -1370847.27126  24479207.617
 -13303876.164 8 -10375327.27529  22614675.856
  18659434.302 6   8319428.29325  25164197.948
 92  8 27  2 23 30.0070000  0  6G12G11G15G28G21G23
  -1657278.509 6  -1303310.87625  25772237.012
 -11156165.735 7 -10230553.43129  23078034.059
   -486776.078 5   -392374.07225  26160566.037
   -646425.227 6  -1290695.29926  24498787.063
 -13259068.693 8 -10340412.36129  22623198.955
  18749872.229 6   8389899.37625  25181406.125
 92  8 27  2 24  0.0070000  0  6G12G11G15G28G21G23
  -1658490.353 6  -1304255.15925  25772010.698
 -11157507.211 8 -10231598.73929  23077778.157
   -577804.804 5   -463305.45625  26143252.543
   -543200.437 6  -1210260.45426  24518426.107
 -13213979.730 8 -10305278.10629  22631780.454
  18840426.330 6   8460460.95725  25198640.084
 92  8 27  2 24 30.0070000  0  6G12G11G15G28G21G23
  -1659047.009 6  -1304688.85225  25771898.396
 -11158151.268 7 -10232100.60329  23077654.462
   -668751.457 6   -534172.90825  26125942.856
   -439613.419 6  -1129543.33026  24538138.210
 -13168608.215 8 -10269923.67029  22640416.576
  18931102.059 6   8531117.36025  25215898.027
 92  8 27  2 25  0.0070000  0  6G12G11G15G28G21G23
  -1658949.521 6  -1304612.85325  25771921.600
 -11158098.826 7 -10232059.74029  23077667.803
   -759615.787 6   -604976.18925  26108649.628
   -335680.122 6  -1048556.41626  24557911.891
 -13122947.587 8 -10234343.97729  22649103.422
  19021905.798 6   8601873.51025  25233173.777
 92  8 27  2 25 30.0070000  0  6G12G11G15G28G21G23
  -1658195.669 6  -1304025.36525  25772051.830
 -11157348.149 7 -10231474.81029  23077808.646
   -850394.992 5   -675713.19725  26091372.858
   -231407.020 6   -967304.71426  24577756.683
 -13077003.933 8 -10198543.71329  22657847.918
  19112822.942 6   8672718.00425  25250473.241
 92  8 27  2 26  0.0070000  0  6G12G11G15G28G21G23
  -1656782.609 6  -1302924.31025  25772326.410
 -11155896.156 7 -10230343.39129  23078084.125
   -941085.049 6   -746380.69625  26074117.614
   -126803.701 6   -885795.66726  24597664.641
 -13030757.209 8 -10162507.32329  22666647.966
  19203837.687 6   8743638.58525  25267796.059
 92  8 27  2 26 30.0070000  0  6G12G11G15G28G21G23
  -1654713.540 6  -1301312.02325  25772726.093
 -11153746.327 7 -10228668.20029  23078491.873
  -1031688.270 5   -816980.50325  26056882.636
    -21872.459 6   -804031.13026  24617632.468
 -12984179.742 8 -10126213.19029  22675509.262
  19294947.872 6   8814633.50925  25285140.042
 92  8 27  2 27  0.0070000  0  6G12G11G15G28G21G23
  -1651986.627 6  -1299187.13925  25773245.633
 -11150896.879 7 -10226447.85929  23079033.298
  -1122202.331 6   -887510.81925  26039653.323
     83383.102 6   -722013.86326  24637663.431
 -12937256.667 8 -10089649.77329  22684442.687
  19386145.425 6   8885696.51925  25302487.682
 92  8 27  2 27 30.0070000  0  6G12G11G15G28G21G23
  -1648592.958 6  -1296542.71025  25773883.052
 -11147338.993 7 -10223675.47329  23079713.737
  -1212616.799 5   -957963.69625  26022456.208
    188981.417 6   -639729.51426  24657752.853
 -12889991.972 8 -10052820.14729  22693434.512
  19477437.605 6   8956833.24225  25319868.720
 92  8 27  2 28  0.0070000  0  6G12G11G15G28G21G23
  -1644532.819 6  -1293378.94225  25774659.095
 -11143073.103 7 -10220351.42129  23080523.866
  -1302931.364 6  -1028338.55925  26005270.096
    294924.059 6   -557176.89226  24677917.973
 -12842393.590 8 -10015730.49029  22702492.112
  19568824.905 6   9028044.10025  25337249.967
 92  8 27  2 28 30.0070000  0  6G12G11G15G28G21G23
  -1639802.744 6  -1289693.13825  25775562.999
 -11138095.651 7 -10216472.87329  23081471.030
  -1393141.098 5  -1098631.80625  25988097.504
    401209.243 6   -474357.28726  24698137.445
 -12794478.147 8  -9978393.77929  22711609.250
  19660324.240 6   9099342.26325  25354667.339
 92  8 27  2 29  0.0070000  0  6G12G11G15G28G21G23
  -1634405.831 6  -1285487.74525  25776596.564
 -11132409.992 7 -10212042.49029  23082551.602
  -1483247.866 5  -1168844.80625  25970953.873
    507822.379 6   -391282.15226  24718428.298
 -12746276.705 8  -9940834.21829  22720784.218
  19751932.302 6   9170725.19425  25372097.392
 92  8 27  2 29 30.0070000  0  6G12G11G15G28G21G23
  -1628341.755 6  -1280762.46925  25777742.220
 -11126015.723 7 -10207059.95929  23083768.849
  -1573249.860 5  -1238976.22125  25953832.755
    614758.917 6   -307955.07226  24738773.893
 -12697799.481 8  -9903059.75929  22730008.353
  19843659.363 6   9242200.76725  25389548.971
 92  8 27  2 30  0.0070000  0  6G12G11G15G28G21G23
  -1621609.775 6  -1275516.73525  25779017.178
 -11118912.421 7 -10201524.90429  23085118.515
  -1663145.044 5  -1309024.31625  25936718.953
    721995.568 6   -224394.10526  24759185.712
 -12649033.257 8  -9865060.11529  22739287.949
  19935509.850 6   9313772.55525  25407034.066
 92  8 27  2 30 30.0070000  0  6G12G11G15G28G21G23
  -1614210.901 6  -1269751.35625  25780433.457
 -11111101.231 7 -10195438.26729  23086609.623
  -1752933.430 5  -1378989.24925  25919622.958
    829524.101 6   -140605.65026  24779658.060
 -12599971.103 7  -9826829.87129  22748626.244
  20027501.937 6   9385454.68925  25424540.477
 92  8 27  2 31  0.0070000  0  6G12G11G15G28G21G23
  -1606144.689 6  -1263465.94325  25781966.536
 -11102581.543 7 -10188799.54329  23088227.783
  -1842613.048 5  -1448869.40925  25902561.080
    937344.745 6    -56589.62726  24800163.654
 -12550602.170 8  -9788360.57229  22758021.020
  20119626.345 6   9457239.91425  25442065.115
 92  8 27  2 31 30.0070000  0  6G12G11G15G28G21G23
  -1597406.792 6  -1256657.20625  25783637.639
 -11093349.460 7 -10181605.71529  23089989.273
  -1932178.297 5  -1518660.50425  25885514.191
   1045459.937 6     27655.92526  24820736.672
 -12500917.758 8  -9749645.44929  22767472.247
  20211879.824 5   9529125.75225  25459618.113
 92  8 27  2 32  0.0070000  0  7G12G11G15G28G25G21G23
  -1587999.400 6  -1249326.76925  25785417.657
 -11083407.113 7 -10173858.43729  23091875.387
  -2021629.988 5  -1588363.02925  25868490.207
   1153855.840 6    112120.20726  24841360.624
    -41360.41215    -44461.30531  27022351.565
 -12450921.389 7  -9710687.24729  22776985.291
  20304248.523 5   9601101.30725  25477194.825
 92  8 27  2 32 30.0070000  0  7G12G11G15G28G25G21G23
  -1577922.404 6  -1241474.51225  25787335.189
 -11072754.519 7 -10165557.71629  23093903.723
  -2110966.523 5  -1657975.86225  25851498.360
   1262534.343 6    196804.71326  24862041.986
   -130023.280 5   -113550.59121  27005478.556
 -12400628.325 8  -9671497.85229  22786560.123
  20396718.676 6   9673155.96125  25494795.970
 92  8 27  2 33  0.0070000  0  7G12G11G15G28G25G21G23
  -1567179.525 6  -1233103.44425  25789383.641
 -11061395.363 7 -10156706.43029  23096069.094
  -2200189.939 6  -1727500.56225  25834520.424
   1371481.994 6    281698.92326  24882773.354
   -218729.043 5   -182671.21722  26988570.172
 -12350056.174 8  -9632090.99529  22796181.062
  20489266.396 5   9745271.07325  25512410.486
 92  8 27  2 33 30.0070000  0  7G12G11G15G28G25G21G23
  -1555765.809 6  -1224209.65025  25791549.822
 -11049324.984 7 -10147300.94229  23098362.566
  -2289293.871 6  -1796932.17025  25817563.862
   1480705.627 6    366808.18825  24903558.775
   -307480.669 6   -251828.19723  26971703.428
 -12299210.984 7  -9592471.38429  22805854.495
  20581895.352 5   9817449.43225  25530036.933
 92  8 27  2 34  0.0070000  0  7G12G11G15G28G25G21G23
  -1543682.637 6  -1214794.13025  25793845.632
 -11036544.797 7 -10137342.35429  23100798.890
  -2378278.050 6  -1866270.44625  25800633.893
   1590209.144 6    452135.58725  24924392.132
   -396274.144 5   -321017.84724  26954810.183
 -12248093.606 7  -9552639.65229  22815582.611
  20674593.655 5   9889681.84425  25547670.995
 92  8 27  2 34 30.0070000  0  7G12G11G15G28G25G21G23
  -1530926.861 6  -1204854.54225  25796272.182
 -11023051.769 7 -10126828.31129  23103364.244
  -2467137.944 6  -1935511.84225  25783729.885
   1700007.052 5    537692.31025  24945284.729
   -485089.947 6   -390224.84124  26937882.732
 -12196698.253 8  -9512591.33629  22825367.027
  20767371.449 5   9961976.23825  25565321.786
 92  8 27  2 35  0.0070000  0  7G12G11G15G28G25G21G23
  -1517495.734 6  -1194388.73325  25798833.789
 -11008843.287 7 -10115756.77329  23106070.770
  -2555869.111 6  -2004653.00225  25766836.940
   1810111.553 6    623487.95125  24966237.793
   -573926.640 6   -459448.16624  26921000.039
 -12145008.625 8  -9472313.70329  22835200.460
  20860239.017 5  10034340.54625  25583002.736
 92  8 27  2 35 30.0070000  0  7G12G11G15G28G25G21G23
  -1503388.352 6  -1183395.91025  25801515.762
 -10993918.554 7 -10104127.12329  23108908.725
  -2644469.019 6  -2073691.82426  25749983.477
   1920522.508 6    709522.43825  24987257.352
   -662785.484 6   -528688.70625  26904092.974
 -12093015.958 8  -9431799.94929  22845093.491
  20953201.022 5  10106778.47325  25600689.981
 92  8 27  2 36  0.0070000  0  7G12G11G15G28G25G21G23
  -1488607.367 6  -1171878.27325  25804327.696
 -10978280.315 7 -10091941.48829  23111884.585
  -2732938.602 6  -2142629.13825  25733138.259
   2031213.623 6    795775.19125  25008322.509
   -751652.615 5   -597935.70225  26887170.619
 -12040712.037 8  -9391043.65629  22855046.900
  21046261.722 5  10179293.26225  25618393.805
 92  8 27  2 36 30.0070000  0  7G12G11G15G28G25G21G23
  -1473152.279 5  -1159835.27525  25807265.332
 -10961928.085 7 -10079199.49729  23114997.510
  -2821275.645 6  -2211463.14025  25716338.220
   2142164.487 6    882230.32025  25029439.320
   -840533.395 5   -667193.36325  26870268.770
 -11988097.800 8  -9350045.55329  22865064.315
  21139442.204 5  10251901.40725  25636126.439
 92  8 27  2 37  0.0070000  0  7G12G11G15G28G25G21G23
  -1457021.357 6  -1147265.73525  25810346.929
 -10944860.511 7 -10065900.08729  23118242.314
  -2909476.002 6  -2280190.64125  25699542.527
   2253362.883 6    968878.36125  25050597.292
   -929433.221 5   -736465.80025  26853354.539
 -11935176.996 8  -9308808.56329  22875132.815
  21232736.940 5  10324598.58225  25653880.688
 92  8 27  2 37 30.0070000  0  7G12G11G15G28G25G21G23
  -1440214.482 6  -1134169.42025  25813542.356
 -10927077.371 7 -10052043.10129  23121628.500
  -2997538.022 6  -2348810.36025  25682790.244
   2364791.709 6   1055705.96825  25071805.420
  -1018346.747 5   -805748.95425  26836433.114
 -11881950.405 8  -9267333.30429  22885260.014
  21326140.955 5  10397380.93725  25671664.107
 92  8 27  2 38  0.0070000  0  7G12G11G15G28G25G21G23
  -1422732.019 6  -1120546.71925  25816871.552
 -10908579.281 7 -10037629.01129  23125142.967
  -3085460.274 6  -2417321.18325  25666061.166
   2476448.794 6   1142711.40425  25093054.710
  -1107267.816 5   -875037.92925  26819494.600
 -11828419.160 8  -9225620.65129  22895446.872
  21419658.633 5  10470251.81425  25689456.759
 92  8 27  2 38 30.0070000  0  7G12G11G15G28G25G21G23
  -1404573.532 6  -1106397.24225  25820322.253
 -10889365.883 7 -10022657.53329  23128809.758
  -3173240.462 6  -2485721.26025  25649363.025
   2588350.371 6   1229907.40825  25114341.983
  -1196206.863 5   -944340.95925  26802563.581
 -11774597.857 8  -9183681.98129  22905687.183
  21513285.538 5  10543207.82325  25707280.890
 92  8 27  2 39  0.0070000  0  7G12G11G15G28G25G21G23
  -1385737.669 6  -1091719.92425  25823909.869
 -10869436.010 7 -10007127.77129  23132593.978
  -3260874.975 6  -2554007.83425  25632683.652
   2700503.458 6   1317299.35425  25135684.388
  -1285155.674 5  -1013651.59125  26785656.996
 -11720483.199 8  -9141514.71829  22915985.683
  21607006.377 6  10616237.02025  25725113.055
 92  8 27  2 39 30.0070000  0  7G12G11G15G28G25G21G23
  -1366228.773 6  -1076518.17225  25827622.139
 -10848793.989 7  -9991043.08929  23136521.410
  -3348366.377 6  -2622182.88325  25616026.404
   2812898.801 6   1404880.07125  25157068.254
  -1374122.944 5  -1082976.58825  26768708.379
 -11666085.437 8  -9099126.86129  22926334.969
  21700819.518 5  10689338.15625  25742960.509
 92  8 27  2 40  0.0070000  0  7G12G11G15G28G25G21G23
  -1346044.999 6  -1060790.56025  25831457.174
 -10827438.181 7  -9974402.19629  23140587.824
  -3435710.550 6  -2690243.24325  25599407.319
   2925546.414 6   1492657.34626  25178502.455
  -1463111.324 5  -1152318.03625  26751783.386
 -11611410.428 8  -9056522.94729  22936740.885
  21794732.481 5  10762517.07125  25760828.530
 92  8 27  2 40 30.0070000  0  7G12G11G15G28G25G21G23
  -1325182.389 6  -1044533.95525  25835429.904
 -10805364.712 7  -9957202.11129  23144788.037
  -3522901.524 6  -2758184.22625  25582812.457
   3038447.955 6   1580632.49725  25199981.866
  -1552117.157 5  -1221673.13025  26734844.752
 -11556448.454 8  -9013695.42829  22947202.173
  21888738.614 6  10835768.62325  25778720.053
 92  8 27  2 41  0.0070000  0  7G12G11G15G28G25G21G23
  -1303644.879 6  -1027751.44025  25839530.945
 -10782577.785 7  -9939446.06829  23149124.624
  -3609941.158 6  -2826007.24825  25566254.800
   3151588.976 6   1668794.28925  25221515.058
  -1641133.247 5  -1291036.18825  26717919.879
 -11501190.166 8  -8970637.03529  22957715.984
  21982836.797 6  10909091.85325  25796627.376
 92  8 27  2 41 30.0070000  0  7G12G11G15G28G25G21G23
  -1281430.440 6  -1010441.48325  25843749.654
 -10759075.506 7  -9921132.61429  23153593.241
  -3696825.362 6  -2893709.14925  25549721.846
   3264981.242 6   1757151.83025  25243091.182
  -1730155.119 5  -1360403.77325  26700976.359
 -11445633.336 8  -8927345.99029  22968284.927
  22077035.762 5  10982493.59725  25814551.308
 92  8 27  2 42  0.0070000  0  7G12G11G15G28G25G21G23
  -1258542.449 5   -992606.67025  25848103.630
 -10734861.147 7  -9902264.29629  23158206.177
  -3783555.144 6  -2961290.76525  25533216.082
   3378627.589 6   1845707.33725  25264725.225
  -1819170.793 5  -1429766.49525  26684045.490
 -11389774.683 8  -8883819.77029  22978916.977
  22171319.874 6  11055961.72325  25832494.426
 92  8 27  2 42 30.0070000  0  7G12G11G15G28G25G21G23
  -1234979.756 6   -974246.09125  25852593.262
 -10709933.972 7  -9882840.52329  23162945.926
  -3870127.001 6  -3028749.33025  25516739.639
   3492514.184 6   1934450.09125  25286402.588
  -1908169.805 5  -1499116.21925  26667099.031
 -11333619.101 8  -8840062.17929  22989602.539
  22265686.948 6  11129494.51125  25850448.997
 92  8 27  2 43  0.0070000  0  7G12G11G15G28G25G21G23
  -1210739.190 6   -955357.32525  25857200.443
 -10684290.833 7  -9862858.86928  23167827.387
  -3956535.758 6  -3096080.75925  25500295.543
   3606637.799 6   2023377.50425  25308115.746
  -1997151.033 5  -1568452.14625  26650155.361
 -11277177.094 8  -8796081.38529  23000344.103
  22360152.422 5  11203103.95425  25868432.197
 92  8 27  2 43 30.0070000  0  7G12G11G15G28G25G21G23
  -1185823.283 6   -935942.33725  25861949.335
 -10657934.420 7  -9842321.40128  23172839.887
  -4042781.305 6  -3163284.99625  25483888.771
   3720989.363 6   2112482.54125  25329875.732
  -2086120.348 5  -1637778.76425  26633238.792
 -11220458.945 8  -8751885.42229  23011136.422
  22454711.790 5  11276786.52925  25886413.179
 92  8 27  2 44  0.0070000  0  7G12G11G15G28G25G21G23
  -1160231.967 6   -916001.06625  25866824.050
 -10630864.810 7  -9821228.19628  23177993.109
  -4128861.278 6  -3230360.29525  25467509.280
   3835538.950 6   2201741.87425  25351672.532
  -2175081.955 5  -1707099.37925  26616315.958
 -11163468.379 8  -8707477.18629  23021983.003
  22549375.602 5  11350550.54625  25904436.282
 92  8 27  2 44 30.0070000  0  7G12G11G15G28G25G21G23
  -1133964.573 6   -895532.93625  25871816.704
 -10603081.511 7  -9799578.88428  23183280.009
  -4214772.300 6  -3297303.90025  25451163.636
   3950268.899 6   2291141.82125  25373506.717
  -2264040.899 5  -1776417.93225  26599375.765
 -11106200.081 7  -8662852.54929  23032878.420
  22644170.438 5  11424416.62525  25922475.963
 92  8 27  2 45  0.0070000  0  7G12G11G15G28G25G21G23
  -1107020.578 6   -874537.56925  25876939.558
 -10574584.156 7  -9777373.15128  23188703.794
  -4300511.654 6  -3364113.74625  25434847.911
   4065190.516 5   2380691.03125  25395368.422
  -2352998.206 5  -1845735.22025  26582452.931
 -11048646.388 7  -8618005.50229  23043829.479
  22739091.585 5  11498381.15625  25940537.919
 92  8 27  2 45 30.0070000  0  7G12G11G15G28G25G21G23
  -1079401.762 6   -853016.39725  25882205.472
 -10545374.429 7  -9754612.33628  23194263.116
  -4386078.419 6  -3430789.14226  25418563.725
   4180307.978 5   2470392.87125  25417274.527
  -2441942.655 5  -1915042.46425  26565521.702
 -10990797.859 8  -8572928.72829  23054842.834
  22834124.935 5  11572433.06625  25958618.193
 92  8 27  2 46  0.0070000  0  7G12G11G15G28G25G21G23
  -1051109.271 6   -830970.31325  25887587.586
 -10515454.022 7  -9731297.73728  23199955.635
  -4471471.567 6  -3497329.18626  25402306.909
   4295624.631 5   2560249.89725  25439219.545
   2489342.02515    -19437.60431  26548602.525
 -10932649.678 8  -8527618.45929  23065905.716
  22929257.053 5  11646561.96325  25976727.905
 92  8 27  2 46 30.0070000  0  7G12G11G15G28G25G21G23
  -1022147.026 6   -808402.32525  25893098.761
 -10484826.718 7  -9707432.30628  23205783.720
  -4556692.446 6  -3563735.03026  25386093.653
   4411155.255 5   2650273.74125  25461202.936
   2400463.414 6    -88693.36022  26531695.579
 -10874201.199 7  -8482074.19329  23077028.795
  23024471.567 5  11720755.09125  25994848.231
 92  8 27  2 47  0.0070000  0  7G12G11G15G28G25G21G23
   -992509.103 6   -785307.80025  25898736.838
 -10453486.920 7  -9683011.66828  23211748.571
  -4641732.429 6  -3629999.91526  25369911.756
   4526918.539 5   2740478.80825  25483232.585
   2311635.830 6   -157909.59725  26514788.424
 -10815451.123 7  -8436294.90629  23088208.176
  23119746.448 5  11794995.24125  26012983.456
 92  8 27  2 47 30.0070000  0  7G12G11G15G28G25G21G23
   -962198.449 6   -761689.12625  25904506.553
 -10421437.612 7  -9658038.19428  23217848.958
  -4726591.502 6  -3696123.82826  25353769.760
   4642888.330 5   2830844.82625  25505322.223
   2222865.160 6   -227081.37825  26497901.744
 -10756402.745 7  -8390283.18229  23099444.068
  23215074.982 5  11869277.20725  26031111.636
 92  8 27  2 48  0.0070000  0  7G12G11G15G28G25G21G23
   -931212.540 5   -737544.25925  25910392.259
 -10388676.463 7  -9632510.03428  23224078.225
  -4811264.641 6  -3762102.86226  25337652.108
   4759053.130 5   2921362.78825  25527419.265
   2134151.050 6   -296209.22125  26481016.114
 -10697065.660 7  -8344046.50629  23110736.560
  23310466.052 5  11943607.88225  26049273.603
 92  8 27  2 48 30.0070000  0  7G12G11G15G28G25G21G23
   -899551.380 6   -712873.16825  25916421.235
 -10355203.631 7  -9606427.30028  23230449.534
  -4895748.941 6  -3827934.71326  25321579.275
   4875396.361 5   3012019.76025  25549558.818
   2045485.792 5   -365298.94725  26464130.424
 -10637451.357 7  -8297593.79729  23122078.398
  23405933.768 5  12017998.30225  26067430.863
 92  8 27  2 49  0.0070000  0  7G12G11G15G28G25G21G23
   -867220.629 6   -687680.40725  25922583.289
 -10321025.044 7  -9579794.65328  23236957.159
  -4980047.410 6  -3893621.83326  25305527.548
   4991902.702 5   3102803.82025  25571737.794
   1956855.134 5   -434361.70425  26447267.668
 -10577582.273 7  -8250942.55529  23133473.090
  23501469.008 5  12092441.31125  26085596.277
 92  8 27  2 49 30.0070000  0  7G12G11G15G28G25G21G23
   -834215.048 6   -661961.76025  25928858.365
 -10286135.684 7  -9552608.14628  23243593.815
  -5064152.188 6  -3959157.95626  25289525.945
   5108566.092 5   3193710.32225  25593937.995
   1868273.745 5   -503386.05025  26430421.970
 -10517455.337 7  -8204090.40229  23144915.029
  23597097.843 5  12166957.24525  26103807.230
 92  8 27  2 50  0.0070000  0  7G12G11G15G28G25G21G23
   -800538.279 6   -635720.09825  25935262.861
 -10250539.188 7  -9524870.62228  23250362.409
  -5148064.104 6  -4024543.81126  25273561.517
   5225391.800 5   3284743.24425  25616168.655
   1779737.499 5   -572375.22625  26413559.363
 -10457075.494 8  -8157041.17929  23156407.153
  23692832.676 5  12241555.82325  26122030.684
 92  8 27  2 50 30.0070000  0  7G12G11G15G28G25G21G23
   -766191.850 6   -608956.65025  25941803.193
 -10214237.354 7  -9496583.49628  23257273.075
  -5231781.747 6  -4089778.31226  25257632.435
   5342389.540 5   3375910.25125  25638420.661
   1691250.044 6   -641326.40825  26396730.963
 -10396437.157 7  -8109790.54329  23167944.126
  23788666.966 5  12316231.88825  26140265.861
 92  8 27  2 51  0.0070000  0  7G12G11G15G28G25G21G23
   -731208.577 6   -581696.92325  25948459.845
 -10177263.138 7  -9467772.41228  23264313.071
  -5315334.819 6  -4154884.53626  25241728.925
   5459530.058 5   3467188.48425  25660717.095
   1602781.843 5   -710262.59425  26379883.467
 -10335557.398 7  -8062351.76229  23179530.145
  23884565.455 5  12390957.94825  26158517.345
 92  8 27  2 51 30.0070000  0  7G12G11G15G28G25G21G23
   -695540.135 6   -553903.34025  25955251.283
 -10139568.319 7  -9438399.84828  23271485.126
  -5398671.995 6  -4219822.55526  25225870.293
   5576855.976 6   3558611.20025  25683053.162
   1514378.421 5   -779148.28825  26363058.994
 -10274368.340 7  -8014671.97429  23191174.054
  23980582.916 5  12465776.74025  26176779.742
 92  8 27  2 52  0.0070000  0  7G12G11G15G28G25G21G23
   -659152.458 6   -525549.29625  25962173.551
 -10101119.202 7  -9408439.51328  23278804.649
  -5481756.555 6  -4284563.71626  25210058.190
   5694405.061 5   3650207.80425  25705410.724
   1426068.108 5   -847961.40725  26346262.222
 -10212841.932 7  -7966729.33229  23202880.920
  24076741.179 5  12540705.27425  26195079.973
 92  8 27  2 52 30.0070000  0  7G12G11G15G28G25G21G23
   -622085.047 6   -496665.57925  25969220.023
 -10061955.324 7  -9377922.19528  23286253.442
  -5564624.781 6  -4349136.33826  25194279.573
   5812129.001 5   3741940.68125  25727809.268
   1337807.117 5   -916736.16525  26329477.292
 -10151021.206 7  -7918557.33029  23214644.626
  24172992.880 5  12615706.59025  26213402.629
 92  8 27  2 53  0.0070000  0  7G12G11G15G28G25G21G23
   -584382.382 6   -467286.88725  25976392.258
 -10022121.408 7  -9346882.80228  23293836.303
  -5647317.968 6  -4413572.52626  25178553.720
   5929966.418 5   3833761.95625  25750227.209
   1249554.201 5   -985504.54625  26312674.734
 -10088952.339 7  -7870191.96929  23226455.519
  24269299.433 5  12690750.62625  26231721.297
 92  8 27  2 53 30.0070000  0  7G12G11G15G28G25G21G23
   -546017.719 6   -437392.33725  25983692.594
  -9981591.050 7  -9315300.71228  23301546.335
  -5729806.197 6  -4477849.03026  25162860.574
   6047947.219 5   3925694.95425  25772671.861
   1161345.219 5  -1054238.72525  26295884.768
 -10026625.413 7  -7821625.54929  23238316.568
  24365684.736 5  12765855.97625  26250060.891
 92  8 27  2 54  0.0070000  0  7G12G11G15G28G25G21G23
   -506986.492 6   -406978.40625  25991131.224
  -9940359.739 7  -9283172.44928  23309390.854
  -5812081.724 6  -4541959.80126  25147201.395
   6166070.491 5   4017738.99925  25795164.209
   1073193.769 5  -1122928.05525  26279118.994
  -9964040.145 7  -7772857.80329  23250223.335
  24462151.801 5  12841025.14025  26268421.530
 92  8 27  2 54 30.0070000  0  7G12G11G15G28G25G21G23
   -467275.888 6   -376035.09525  25998687.823
  -9898414.774 7  -9250488.05928  23317374.717
  -5894128.569 6  -4605892.38526  25131589.912
   6284341.113 5   4109897.85725  25817656.408
    985126.767 6  -1191551.65125  26262359.007
  -9901166.205 7  -7723865.13629  23262186.014
  24558720.428 5  12916273.44225  26286804.054
 92  8 27  2 55  0.0070000  0  7G12G11G15G28G25G21G23
   -426870.204 6   -344550.11225  26006371.953
  -9855740.661 7  -9217235.52528  23325496.185
  -5975927.765 6  -4669632.00926  25116022.889
   6402783.736 5   4202190.72325  25840205.958
    897183.905 6  -1260078.47625  26245632.027
  -9837968.681 7  -7674620.31829  23274219.863
  24655401.142 5  12991609.05625  26305197.431
 92  8 27  2 55 30.0070000  0  7G12G11G15G28G25G21G23
   -385801.506 6   -312548.56825  26014187.183
  -9812369.786 7  -9183440.05528  23333751.900
  -6057508.143 6  -4733201.11626  25100491.871
   6521374.507 5   4294599.01725  25862771.096
    809336.870 6  -1328530.63425  26228904.687
  -9774475.498 7  -7625145.11429  23286299.700
  24752163.337 6  13067008.10625  26323613.861
 92  8 27  2 56  0.0070000  0  7G12G11G15G28G25G21G23
   -344069.512 6   -280030.12225  26022131.024
  -9768302.019 7  -9149101.52028  23342134.966
  -6138865.970 6  -4796596.78526  25085018.803
   6640118.429 5   4387126.65225  25885361.897
    721589.284 6  -1396905.31225  26212210.654
  -9710669.307 7  -7575426.00129  23298440.096
  24849015.170 5  13142477.08425  26342047.050
 92  8 27  2 56 30.0070000  0  7G12G11G15G28G25G21G23
   -301671.035 6   -246992.33225  26030201.257
  -9723534.268 7  -9114217.58428  23350653.629
  -6219995.137 6  -4859814.29426  25069576.793
   6759024.884 5   4479780.97725  25907996.527
    633957.383 5  -1465189.78225  26195533.799
  -9646546.593 7  -7525460.25629  23310642.968
  24945960.780 5  13218019.07825  26360494.240
 92  8 27  2 57  0.0070000  0  7G12G11G15G28G25G21G23
   -258607.007 6   -213435.93525  26038394.045
  -9678067.987 7  -9078789.33928  23359307.618
  -6300893.140 6  -4922851.65726  25054184.579
   6878094.811 5   4572562.65325  25930651.693
    546436.938 6  -1533387.45825  26178880.868
  -9582129.686 7  -7475265.27329  23322897.734
  25042995.715 5  13293630.66225  26378954.440
 92  8 27  2 57 30.0070000  0  7G12G11G15G28G25G21G23
   -214873.692 6   -179358.02425  26046713.975
  -9631899.427 7  -9042813.86328  23368093.545
  -6381552.559 6  -4985703.14826  25038831.428
   6997318.317 5   4665464.02425  25953335.250
    459012.199 6  -1601510.55625  26162247.783
  -9517441.462 7  -7424858.87628  23335210.390
  25140134.832 5  13369323.48925  26397440.782
 92  8 27  2 58  0.0070000  0  7G12G11G15G28G25G21G23
   -170469.899 6   -144757.68025  26055171.690
  -9585027.661 7  -9006290.43428  23377007.964
  -6461968.899 6  -5048365.22026  25023525.884
   7116675.504 5   4758469.55825  25976040.841
    371679.782 6  -1669561.69525  26145621.773
  -9452481.880 7  -7374241.01328  23347571.433
  25237368.310 5  13445089.83825  26415943.583
 92  8 27  2 58 30.0070000  0  7G12G11G15G28G25G21G23
   -125403.139 6   -109640.68125  26063746.204
  -9537460.322 7  -8969224.97328  23386062.476
  -6542145.878 6  -5110840.73426  25008276.610
   7236142.668 5   4851560.75025  25998780.609
    284429.324 6  -1737548.97425  26129023.973
  -9387274.305 7  -7323429.92428  23359980.142
  25334687.535 5  13520922.95725  26434463.262
 92  8 27  2 59  0.0070000  0  5G12G11G15G21G23
    -79656.374 6    -73993.86325  26072443.513
  -9489180.752 7  -8931604.56228  23395248.267
  -6622063.235 6  -5173114.00126  24993058.006
  -9321804.820 8  -7272414.75528  23372440.596
  25432112.404 5  13596838.36625  26452994.333
 92  8 27  2 59 30.0070000  0  6G12G11G15G25G21G23
    -33241.608 6    -37826.49725  26081272.641
  -9440201.083 7  -8893438.60427  23404567.045
  -6701729.550 6  -5235191.62026  24977908.264
    -46427.61916    -48379.81632  26095871.214
  -9256075.173 7  -7221196.82928  23384947.937
  25529626.865 5  13672823.62925  26471559.581
 92  8 27  3  0  0.0070000  0  6G12G11G15G25G21G23
     13839.450 6     -1139.98425  26090236.855
  -9390523.269 7  -8854728.63927  23414025.527
  -6781142.929 6  -5297072.11726  24962793.268
     23265.27916    -47429.89531  26079316.045
  -9190066.966 7  -7169761.88828  23397507.832
  25627228.501 5  13748876.85425  26490128.186
